[[[{"header":{"parameterUnit":"kt","parameterCategory":2,"dx":1,"dy":1,"la1":29.285339999999998,"la2":30.599998999999997,"lo1":-89.70041500000002,"lo2":-87.6738589999976,"nx":112,"ny":82,"refTime":"2022-10-09T12:00:00:Z","depth":0,"parameterNumber":1,"parameterNumberName":"U-component_of_WINDS"},"data":[5.0946,5.2684,0.0,5.2108,5.0663,0.0,5.0694,0.0,0.0,0.0,0.0,0.0,0.0,0.0,0.0,0.0,0.0,0.0,0.0,4.3709,0.0,0.0,0.0,0.0,0.0,0.0,0.0,0.0,0.0,0.0,0.0,0.0,7.4002,7.4376,7.9051,8.1108,8.0079,8.1513,8.2445,8.2822,8.4321,8.6395,8.8681,8.8007,8.8958,9.1026,9.0714,9.0652,9.0419,9.0885,9.1745,9.2856,9.3089,9.4005,9.5276,9.5646,9.6213,9.6926,9.7927,9.7296,9.6356,9.7047,9.6895,9.6395,9.6395,9.6395,9.6298,9.6156,9.6352,9.6298,9.6156,9.6352,9.6249,9.5565,9.5077,9.459,9.302,9.2571,9.2451,9.2879,9.3815,9.4768,9.5885,9.6771,9.7211,9.7211,9.7211,9.7211,9.7211,9.7211,9.7211,9.7211,9.7211,9.6992,9.6329,9.6695,9.8214,10.1541,10.2686,10.4762,10.799,11.034,11.1208,11.0808,11.3552,11.4647,11.4239,11.3832,11.3658,11.3658,11.4073,11.5922,0.0,0.0,4.9393,4.7976,0.0,0.0,0.0,0.0,0.0,0.0,0.0,0.0,0.0,0.0,0.0,0.0,0.0,0.0,0.0,0.0,0.0,0.0,0.0,0.0,0.0,0.0,0.0,0.0,0.0,0.0,0.0,6.9676,7.4837,7.6433,7.9472,8.0734,8.0032,8.0734,8.1248,8.1575,8.2276,8.4098,8.6738,8.6074,8.7447,9.0076,8.954,8.967,9.0419,9.0603,9.1745,9.3603,9.3603,9.4306,9.5545,9.5797,9.6552,9.7558,9.7677,9.7095,9.6063,9.6555,9.6309,9.6063,9.6063,9.6063,9.6063,9.6063,9.6063,9.5914,9.6258,9.6107,9.5912,9.498,9.4784,9.4443,9.2529,9.2325,9.2451,9.2879,9.3588,9.4768,9.5833,9.6771,9.7211,9.7211,9.7211,9.7211,9.7211,9.7211,9.7211,9.7211,9.7211,9.7211,9.7597,9.7159,9.8512,10.2195,10.3278,10.4743,10.6915,10.9432,11.0751,11.0751,11.2937,11.4448,11.4657,11.3372,11.3168,11.3928,11.2642,11.3912,0.0,0.0,0.0,4.0313,0.0,0.0,0.0,0.0,3.8172,0.0,0.0,0.0,0.0,0.0,0.0,0.0,0.0,0.0,0.0,0.0,0.0,0.0,0.0,0.0,0.0,0.0,0.0,0.0,0.0,0.0,6.8821,7.2878,7.7143,8.1482,8.0593,8.0032,8.0032,8.0032,8.0547,8.1528,8.1528,8.2604,8.452,8.452,8.5366,8.7163,8.783,8.8965,9.0885,9.1529,9.2499,9.3741,9.3741,9.3993,9.4823,9.5478,9.6167,9.6992,9.6825,9.6012,9.5098,9.5098,9.5098,9.5098,9.5098,9.5098,9.5098,9.5098,9.5098,9.5107,9.5421,9.5668,9.5423,9.4982,9.4736,9.4639,9.3716,9.3454,9.3804,9.5147,9.5388,9.5833,9.6992,9.7211,9.7211,9.7211,9.7211,9.7211,9.7211,9.7211,9.7211,9.7211,9.7211,9.7815,9.9491,9.9705,10.1629,10.655,10.9763,11.1589,11.1648,11.2467,11.2902,11.2902,11.2902,11.3314,11.4335,11.3039,11.3579,11.5702,11.2414,11.1227,3.985,0.0,0.0,0.0,0.0,0.0,0.0,0.0,0.0,0.0,0.0,0.0,0.0,0.0,0.0,0.0,0.0,4.2626,0.0,0.0,0.0,0.0,0.0,0.0,0.0,0.0,0.0,0.0,0.0,7.0153,7.0153,7.5669,7.9175,8.0453,8.0219,8.0032,8.0032,8.0032,8.0173,8.0453,8.0453,8.1528,8.3492,8.3492,8.452,8.6444,8.6637,8.7593,8.8965,8.8965,9.0812,9.3471,9.3471,9.3904,9.4439,9.5389,9.5814,9.6336,9.6149,9.6336,9.6285,9.5812,9.5336,9.5098,9.5098,9.5098,9.5098,9.5098,9.5098,9.5147,9.5207,9.4824,9.4534,9.4341,9.3807,9.3223,9.2382,9.2088,9.2216,9.265,9.3588,9.4543,9.5611,9.655,9.7211,9.7211,9.7211,9.7211,9.7211,9.7211,9.7211,9.7211,9.7211,9.7431,9.7868,9.7597,9.7974,9.9276,10.3155,10.7218,11.0982,11.1331,11.1506,11.1506,11.1506,11.1709,11.1913,11.0687,11.0817,11.204,11.3501,11.4623,0.0,0.0,0.0,0.0,0.0,0.0,3.583,0.0,3.3271,0.0,0.0,0.0,0.0,0.0,0.0,0.0,4.0128,0.0,0.0,0.0,0.0,0.0,0.0,0.0,0.0,0.0,0.0,0.0,6.8971,7.1226,7.1905,7.5835,7.8673,8.0032,8.0032,8.0032,8.0032,8.0032,8.0032,8.0032,8.0032,8.0921,8.251,8.2931,8.4006,8.5549,8.6016,8.6876,8.802,8.802,8.9824,9.2756,9.229,9.229,9.2523,9.3453,9.4137,9.4406,9.4923,9.5389,9.557,9.5156,9.469,9.4406,9.4406,9.4406,9.4406,9.4406,9.4406,9.4557,9.4773,9.44,9.3687,9.3449,9.2971,9.2198,9.1833,9.2105,9.2557,9.3235,9.4266,9.5216,9.5388,9.6329,9.7211,9.7211,9.7211,9.7211,9.7211,9.7211,9.7211,9.7211,9.7211,9.8033,9.9918,9.9651,10.0289,10.1916,10.4448,10.7078,10.9612,11.0136,11.0226,11.0226,11.0226,11.0628,11.1567,11.033,10.9876,11.0397,11.2295,11.408,0.0,0.0,0.0,0.0,3.0873,0.0,0.0,0.0,0.0,0.0,0.0,0.0,0.0,0.0,0.0,0.0,0.0,0.0,0.0,0.0,0.0,0.0,0.0,0.0,0.0,5.7652,6.2502,6.5706,6.8888,7.1393,7.2711,7.4043,7.6419,7.9538,7.9809,8.0032,8.0032,8.0032,8.0032,8.0032,8.0032,8.0547,8.1435,8.2604,8.3585,8.4474,8.5689,8.6876,8.802,8.802,8.9435,9.1529,9.037,9.0137,9.037,9.1529,9.199,9.222,9.3184,9.3639,9.3639,9.3639,9.3639,9.3639,9.3639,9.3639,9.3639,9.3639,9.3639,9.3665,9.3935,9.3488,9.307,9.255,9.1891,9.141,9.1546,9.2499,9.3639,9.4716,9.6055,9.655,9.5833,9.655,9.7211,9.7211,9.7211,9.7211,9.7211,9.7211,9.7211,9.7211,9.7211,9.89,10.2801,10.3213,10.4841,10.8311,10.8947,10.8562,10.7788,10.8563,10.9004,10.9004,10.9004,10.9937,11.1568,11.0435,11.0027,11.059,11.059,11.1578,0.0,0.0,0.0,0.0,0.0,3.1345,0.0,0.0,0.0,0.0,0.0,0.0,0.0,0.0,0.0,0.0,0.0,0.0,0.0,0.0,0.0,0.0,0.0,0.0,0.0,5.6066,5.7912,6.0883,6.4195,6.6935,6.8916,7.1889,7.448,7.6915,7.9089,8.0032,8.0032,8.0032,8.0032,8.0032,8.0032,8.0173,8.0406,8.2276,8.3211,8.3492,8.5362,8.6876,8.802,8.802,8.8965,9.037,9.0137,9.0603,9.1529,9.2956,9.3412,9.3412,9.369,9.3639,9.3639,9.3639,9.3639,9.3639,9.3639,9.3639,9.3639,9.2956,9.2956,9.2728,9.224,9.1877,9.1512,9.1279,9.0812,9.0294,9.0284,9.0468,9.1117,9.222,9.3412,9.4992,9.655,9.6992,9.7211,9.7211,9.7211,9.7211,9.7211,9.7211,9.7211,9.7211,9.7211,9.765,9.8467,9.9705,10.0713,10.1554,10.4178,10.5443,10.5243,10.6842,10.7667,10.7667,10.7667,10.7863,10.8197,10.7963,10.9519,11.2674,11.2674,11.2916,0.0,0.0,0.0,3.0582,0.0,0.0,0.0,0.0,3.4679,3.7621,3.9174,4.0431,4.1581,4.2702,4.3652,4.3652,0.0,0.0,0.0,0.0,0.0,0.0,0.0,0.0,5.4983,5.4907,5.5593,5.6907,6.0746,6.4073,6.6786,6.9027,7.0871,7.231,7.43,7.5312,7.5312,7.7188,7.8141,7.8141,7.9585,8.0032,8.0126,8.1669,8.265,8.3211,8.4754,8.5928,8.7116,8.7116,8.7593,8.8068,8.873,8.9435,9.0137,9.199,9.2728,9.2728,9.3412,9.3639,9.3639,9.3639,9.3639,9.3639,9.3639,9.3639,9.369,9.3412,9.2956,9.2678,9.222,9.1629,9.0983,9.0983,9.0468,9.0001,9.0001,9.0468,9.1348,9.2499,9.3639,9.5216,9.6992,9.7211,9.7211,9.7211,9.7211,9.7211,9.7211,9.7211,9.765,9.863,9.8846,9.9651,10.1916,10.2952,10.3771,10.4639,10.6239,10.7085,10.6692,10.7397,10.7846,10.837,10.8562,10.8947,10.9519,10.8947,11.0087,11.2493,11.2493,11.2855,0.0,0.0,0.0,0.0,0.0,0.0,3.1608,3.2817,3.4679,0.0,3.9813,4.1189,4.3798,4.4986,4.5559,4.5559,4.6862,0.0,0.0,0.0,0.0,0.0,0.0,0.0,5.4438,5.4301,5.4267,5.4438,5.7557,6.0894,6.3745,6.511,6.6451,6.7766,6.9553,7.0623,7.1025,7.4053,7.5807,7.5807,7.7733,7.8915,7.8961,8.0245,8.14,8.242,8.3911,8.5175,8.6203,8.6203,8.6203,8.6203,8.7593,8.8257,8.873,9.0835,9.199,9.222,9.3412,9.3639,9.3639,9.3639,9.3639,9.3639,9.3639,9.3639,9.3639,9.3639,9.3184,9.2728,9.2499,9.1629,9.0983,9.0751,9.0518,9.0001,9.0001,9.0885,9.222,9.3412,9.4768,9.5833,9.6992,9.7211,9.7211,9.7211,9.7211,9.7211,9.7211,9.7211,9.7815,9.9651,10.0289,10.1916,10.5443,10.6634,10.7729,10.8947,10.9388,10.9197,10.8814,10.8235,10.8176,10.9079,10.9649,11.0403,11.1578,11.0963,11.1148,11.2128,11.2128,11.2493,2.7955,2.8768,2.9445,3.03,0.0,0.0,3.2519,3.756,4.2388,0.0,4.8779,5.2648,5.098,5.0312,4.9927,4.9927,5.0208,5.1365,0.0,0.0,0.0,0.0,0.0,0.0,5.4684,5.3904,5.3768,5.448,5.3971,5.4679,5.6826,5.9181,6.1998,6.5782,6.8377,7.0426,7.2245,7.3329,7.3949,7.3949,7.4467,7.4467,7.4425,7.6913,7.8708,7.9932,8.3157,8.5175,8.6203,8.6203,8.6203,8.6203,8.7593,8.873,8.9904,9.1298,9.2449,9.3412,9.3639,9.3639,9.3639,9.3639,9.3639,9.3639,9.3639,9.3639,9.3639,9.3639,9.3184,9.2499,9.1398,9.0983,9.0751,9.0284,9.0001,9.0001,9.0001,9.0885,9.222,9.3412,9.4768,9.5833,9.6992,9.7211,9.7211,9.7211,9.7211,9.7211,9.7211,9.7211,9.7211,9.765,9.9276,10.0658,10.129,10.4784,10.7085,10.6692,10.8176,10.8621,10.8235,10.7651,10.7456,10.7456,10.837,10.927,11.0403,11.2128,11.3096,11.3096,11.3096,11.3276,2.6648,2.8022,2.9552,3.0051,0.0,0.0,3.23,3.5714,3.8996,0.0,4.5632,4.9669,4.9375,5.0737,5.1928,5.1928,5.1441,5.188,5.3128,0.0,0.0,0.0,0.0,0.0,0.0,5.3666,5.3398,5.3532,5.1456,5.1189,5.3904,5.5293,5.7178,5.9239,6.1127,6.2471,6.3327,6.6533,6.8394,6.8921,7.133,7.2565,7.3074,7.5653,7.7391,7.8608,8.2279,8.4287,8.5222,8.4661,8.4427,8.4615,8.5739,8.6668,8.713,8.8506,8.9691,9.0917,9.152,9.2224,9.2775,9.3436,9.3639,9.3639,9.3639,9.3639,9.3639,9.3639,9.3412,9.3184,9.227,9.1398,9.0983,9.0751,9.0284,9.0001,9.0001,9.0885,9.222,9.3412,9.5216,9.655,9.7211,9.7211,9.7211,9.7211,9.7211,9.7211,9.7211,9.7211,9.825,10.0713,10.1972,10.3362,10.6041,10.7865,10.8888,10.8696,10.9329,10.9579,10.9006,10.8947,10.9138,10.9519,11.0027,11.0963,11.2128,11.2311,11.2674,11.3276,11.3276,11.3276,2.5674,0.0,0.0,0.0,0.0,0.0,3.2051,0.0,3.7535,3.9278,4.3774,4.789,4.8888,5.0932,5.239,5.1918,5.1682,5.1649,5.1649,5.2357,5.3028,0.0,0.0,0.0,0.0,0.0,0.0,0.0,5.0761,5.0395,5.2727,5.3091,5.3964,5.4943,5.5913,5.6707,5.7399,6.1143,6.346,6.4072,6.7162,6.9367,7.0692,7.3231,7.5276,7.7175,8.0846,8.251,8.2884,8.2463,8.2276,8.2553,8.3705,8.4436,8.5165,8.6408,8.7854,8.9116,8.9867,9.0838,9.1708,9.247,9.2724,9.2724,9.2724,9.2724,9.2724,9.2724,9.2724,9.2724,9.2274,9.1391,9.082,9.0652,9.0284,9.0001,9.0001,9.0622,9.1545,9.25,9.4728,9.6262,9.6262,9.6262,9.6262,9.6262,9.6262,9.6262,9.6262,9.6643,9.8306,10.1591,10.2957,10.5003,10.8013,10.8825,10.9378,10.9549,10.9609,10.954,10.9388,10.9519,10.9898,11.0275,11.059,11.1333,11.2493,11.158,11.1394,11.2171,11.2171,11.2171,0.0,0.0,0.0,3.0012,3.1004,3.2194,3.2327,3.7308,4.208,4.244,4.7618,5.2191,5.2224,5.2055,5.1413,5.0021,5.0939,5.1649,5.1649,5.1649,5.1649,5.1649,5.1176,5.1435,5.263,5.2074,5.2655,5.4342,5.3431,5.276,5.3497,5.2861,5.3701,5.5638,5.5876,5.6701,5.8605,5.9632,6.0271,6.0307,6.1491,6.339,6.5703,6.8631,7.1673,7.4936,7.8495,7.9612,7.877,7.9752,8.0126,8.0219,8.1248,8.3208,8.5316,8.6341,8.83,9.0336,9.0387,9.0387,9.0387,9.0438,9.0438,9.0438,9.0438,9.0438,9.0438,9.0438,9.0438,9.0438,9.0438,9.0363,9.0109,8.999,9.0001,9.0001,9.0001,9.0166,9.0336,9.0336,9.2125,9.3888,9.3888,9.3888,9.3888,9.3888,9.3888,9.3888,9.3888,9.5618,9.6801,9.7006,10.0748,10.3057,10.3246,10.5289,10.6861,10.7499,10.7558,10.7964,10.8755,10.8428,10.8235,10.8235,10.8562,10.927,11.0215,10.9691,10.9345,10.9345,10.9345,10.9345,2.4513,2.593,2.7569,3.0638,2.9644,2.8744,3.1971,3.5602,3.8341,3.8618,4.4782,4.942,4.7553,4.8724,4.9513,4.9275,4.9513,4.9751,4.9751,5.0259,5.0497,5.0497,5.0939,5.1273,5.15,5.2049,5.2489,5.2721,5.0733,0.0,5.2727,5.0988,5.0955,5.3634,5.3701,5.4039,5.4751,5.5703,5.6561,5.7325,5.9238,6.0921,6.2358,6.7383,7.0384,7.1629,7.6725,7.8069,7.6573,7.7602,7.8022,7.8022,7.8396,7.8974,7.9941,8.0986,8.2905,8.5053,8.6491,8.7914,8.9371,9.0082,9.0336,9.0336,9.0336,9.0336,9.0336,9.0336,9.0336,9.0336,8.9898,8.9709,8.9443,8.8665,8.8082,8.7854,8.7854,8.9688,9.1374,9.1374,9.2666,9.3783,9.3783,9.3783,9.3783,9.3783,9.4939,9.5717,9.5717,9.7507,9.9511,10.0829,10.2179,10.3565,10.517,10.5963,10.6384,10.6251,10.631,10.6489,10.6719,10.709,10.7643,10.7826,10.8553,10.8914,10.8553,10.9334,10.9868,11.0573,11.1495,11.1433,2.4088,2.5484,2.717,3.1148,2.9746,2.8683,3.3562,3.6054,3.8006,3.9964,4.4975,4.8508,4.6739,4.6892,4.7808,4.8558,4.8797,4.8797,4.8558,4.8797,4.9036,4.8797,4.9751,5.0227,4.9989,5.0939,5.1682,5.2121,5.0633,5.0628,5.2727,5.1055,5.0888,5.2559,5.2625,5.2625,5.2625,5.333,5.4037,5.4751,5.6603,5.8494,6.0339,6.4877,6.8075,7.0335,7.476,7.6106,7.4937,7.5591,7.5872,7.5919,7.6293,7.6646,7.7166,7.8633,8.03,8.2192,8.3997,8.5811,8.7542,8.7847,8.8203,8.8507,8.8507,8.8507,8.8609,8.9015,8.9117,8.8901,8.8467,8.8333,8.8195,8.731,8.6936,8.6341,8.5146,8.6662,8.8535,8.8957,8.9797,9.089,9.1097,9.1304,9.1304,9.1304,9.2801,9.3668,9.3291,9.6485,9.8796,9.9212,10.1453,10.3208,10.4114,10.4711,10.501,10.5307,10.5069,10.5369,10.6085,10.6386,10.686,10.7344,10.7937,10.7383,10.6156,10.7558,10.8403,10.9099,10.9959,10.9898,2.4245,2.6449,2.8687,3.1208,3.1015,3.1513,3.6293,3.8276,4.0398,4.5275,4.7894,4.9306,4.9306,4.6817,4.5582,4.7808,4.8558,4.8318,4.7598,4.7598,4.7598,4.6877,4.7358,4.8078,4.8558,4.9306,5.0497,5.239,5.2625,5.2827,5.3263,5.3263,5.3028,5.2625,5.2625,5.2625,5.2625,5.2625,5.2625,5.2625,5.3999,5.6252,5.957,6.1185,6.4957,7.0216,7.2572,7.3609,7.3609,7.3815,7.3815,7.3955,7.4984,7.6197,7.7285,7.9385,8.1022,8.2102,8.3173,8.429,8.5002,8.3986,8.4341,8.5205,8.5205,8.5205,8.5408,8.6526,8.6831,8.6671,8.6137,8.6247,8.661,8.6173,8.62,8.5413,8.2128,8.1881,8.2457,8.363,8.4638,8.5688,8.6677,8.6926,8.6926,8.7069,8.8021,8.8483,8.7424,9.2668,9.5624,9.3301,9.8549,10.1779,10.0522,10.1599,10.2856,10.4052,10.3613,10.4443,10.6625,10.5773,10.5652,10.6565,10.6327,10.5114,10.3325,10.4615,10.529,10.529,10.5352,10.5352,2.4479,2.5051,2.5603,3.19,3.0943,2.9779,3.4292,3.5984,3.7302,0.0,4.2504,4.4129,4.4614,4.3156,4.1935,4.2126,4.3858,4.5099,4.4885,4.6124,4.7117,4.7598,4.7838,4.7838,4.8078,4.9067,5.0021,5.0497,5.0939,5.1413,5.2121,5.2121,5.2357,5.2625,5.2625,5.2625,5.2625,5.2625,5.2625,5.2625,5.4932,5.6323,5.7439,6.2971,6.5436,6.5477,6.7608,6.9535,7.1481,7.3195,7.3815,7.4068,7.4968,7.5473,7.6231,7.8268,7.9683,8.085,8.1852,8.2967,8.3986,8.3731,8.3833,8.4036,8.4036,8.4036,8.4086,8.4735,8.5038,8.503,8.4772,8.4244,8.3833,8.4189,8.3551,8.2619,8.1606,8.3101,8.5001,8.5991,8.6282,8.648,8.6926,8.6926,8.746,8.8707,9.0581,9.213,9.3074,9.5973,9.7779,9.713,9.8577,9.9385,9.9086,9.988,10.0298,9.9984,10.0693,10.1445,10.1984,10.1786,10.2116,10.2977,10.4604,10.5154,10.4676,10.569,10.6133,10.6194,10.6887,10.6592,2.3136,2.4215,2.5487,3.0624,2.9957,2.9599,3.4653,3.6117,3.7302,4.0867,3.9478,3.8243,4.0438,3.9971,3.9478,4.0683,4.1935,4.2668,4.218,4.2668,4.34,4.5156,4.5156,4.5611,4.6877,4.8078,4.9036,4.9306,5.0227,5.0939,5.1176,5.1176,5.1649,5.2154,5.1918,5.2154,5.2625,5.2625,5.2625,5.2625,5.4033,5.5432,5.6554,6.0549,6.2343,6.2828,6.5655,6.7392,6.8682,6.9916,7.0339,7.0128,7.2063,7.2895,7.3195,7.6735,7.8399,7.9103,8.0705,8.186,8.2817,8.2309,8.2512,8.2919,8.2919,8.2919,8.292,8.3575,8.3671,8.3616,8.3008,8.2551,8.2044,8.185,8.1574,8.1147,7.9822,8.0784,8.2213,8.3301,8.4179,8.4763,8.5343,8.5343,8.5728,8.6765,8.8274,8.9503,8.9812,9.3409,9.5508,9.4228,9.6762,9.8308,9.771,9.9216,9.9761,9.8986,10.0324,10.136,10.1514,10.1792,10.228,10.322,10.398,10.3835,10.2666,10.468,10.5595,10.5254,10.5871,10.5637,2.1162,2.3886,2.6644,2.8686,2.9137,3.0409,3.5537,3.6549,3.789,4.2341,3.7251,3.3048,3.6506,3.6506,3.7003,3.9971,4.0217,3.9725,3.9256,3.849,3.8738,4.1252,4.155,4.2532,4.4671,4.6424,4.7418,4.8078,4.9482,5.0433,5.0433,5.0433,5.067,5.1176,5.0907,5.1176,5.239,5.2625,5.2625,5.2625,5.2625,5.3799,5.6092,5.6323,5.8126,6.1673,6.4998,6.6091,6.5613,6.6484,6.6225,6.6007,6.9066,7.0339,7.0716,7.5453,7.7365,7.7565,7.9546,8.0741,8.1598,8.0632,8.0937,8.175,8.175,8.175,8.1754,8.2263,8.2311,8.2157,8.1377,8.1121,8.0766,7.9579,8.0142,8.0106,7.7627,7.7256,7.7915,7.9203,8.0909,8.2393,8.3151,8.3392,8.3339,8.3527,8.4752,8.5207,8.3821,8.9043,9.2128,8.9614,9.4741,9.7889,9.7097,9.9086,10.0343,9.9753,10.1225,10.2439,10.2739,10.3038,10.3937,10.5106,10.3878,10.222,10.0301,10.3063,10.4219,10.3757,10.3587,10.3587,2.0784,2.3726,2.7007,2.9902,3.1418,3.1973,3.1726,3.2568,3.3569,3.4854,3.355,3.2313,3.3069,3.2544,3.2041,3.2061,3.3529,3.4488,3.4987,3.6234,3.7499,3.849,3.938,3.9729,3.9256,4.2828,4.4661,4.3942,4.6576,4.8318,4.8318,4.8318,4.8558,4.9275,5.0227,5.0939,5.1176,5.2154,5.2625,5.2625,5.2625,5.333,5.4699,5.586,5.7705,6.0477,6.3091,6.3716,6.3414,6.7824,6.9323,6.9279,7.2941,7.4432,7.4637,7.6513,7.7765,7.856,7.8956,7.9646,8.0581,8.0378,8.0429,8.0581,8.014,7.9943,7.9999,8.0101,7.9993,8.019,8.035,7.991,7.9215,7.9176,7.8619,7.7806,7.732,7.8113,7.9288,8.0602,8.2098,8.3151,8.3339,8.3014,8.3151,8.4248,8.6246,8.8153,8.9279,9.2246,9.4393,9.5103,9.6303,9.7397,9.8568,9.9734,10.018,9.9248,10.0424,10.099,10.0823,10.0888,10.228,10.5106,10.3486,10.291,10.3658,10.3466,10.3364,10.3364,10.2785,10.2611,2.1068,2.2584,2.3854,2.571,2.6662,2.7798,2.9448,3.0306,3.0913,3.0883,2.9852,2.9414,3.1285,3.1396,3.1051,3.0817,3.1031,3.1496,3.1516,3.1496,3.2483,3.4738,3.5461,3.651,3.8738,4.1682,4.3702,4.4914,4.6365,4.7358,4.7838,4.7117,4.7598,4.9306,4.9513,5.0465,5.1649,5.239,5.2625,5.2625,5.2625,5.2861,5.3565,5.4233,5.5629,5.7705,6.0174,6.0626,6.0136,6.2526,6.3153,6.3153,6.8167,7.0083,7.0761,7.5453,7.7565,7.8114,7.9103,7.9937,8.0327,8.0327,8.0327,8.0133,7.9691,7.9495,7.94,7.8907,7.8655,7.8601,7.8736,7.8336,7.8043,7.8181,7.7597,7.7116,7.7072,7.861,8.0044,8.0961,8.2427,8.3349,8.3445,8.3203,8.3474,8.517,8.7895,8.989,9.0417,9.3299,9.5191,9.5669,9.6862,9.7996,9.8763,10.0023,10.0601,9.9833,10.1647,10.2568,10.2118,10.2086,10.2641,10.3731,10.3687,10.3353,10.2787,10.3002,10.3019,10.2845,10.2497,10.2437,2.0986,2.1225,2.116,2.2246,2.2536,2.3399,2.7322,2.7863,2.7942,2.8251,2.7313,2.7401,3.0147,3.0756,3.0545,3.0545,3.0019,2.9259,2.877,2.7735,2.7971,3.072,3.109,3.2858,3.7228,3.9306,4.1357,4.4081,4.4699,4.5427,4.6328,4.5456,4.6124,4.8558,4.8558,4.9513,5.1918,5.2154,5.239,5.2625,5.2625,5.2625,5.2625,5.2861,5.3999,5.5825,5.8163,5.8621,5.7705,5.8355,5.8583,5.9002,6.4257,6.6658,6.7737,7.418,7.6513,7.7165,7.8906,7.9742,7.9937,8.0133,8.0327,8.0133,7.9691,7.9495,7.9103,7.8312,7.7915,7.7716,7.7365,7.7165,7.7165,7.7165,7.7165,7.7165,7.7565,7.8907,8.0253,8.1564,8.2404,8.2983,8.3309,8.3151,8.3421,8.504,8.7992,9.0042,8.9684,9.3189,9.5674,9.5564,9.7278,9.8809,9.941,10.0709,10.1421,10.1143,10.3185,10.4237,10.384,10.3693,10.3263,10.2683,10.3536,10.303,10.1505,10.2649,10.2845,10.2437,10.2437,10.2437,1.9248,2.0293,2.163,2.469,2.424,2.3248,2.4206,2.3716,2.3737,2.6654,2.7793,2.8271,2.8666,2.9018,2.9278,2.9278,2.7989,2.748,2.8007,2.748,2.7225,2.748,2.8326,2.917,2.9804,3.262,3.4868,3.5653,3.7487,3.9679,4.1984,4.1761,4.2695,4.5156,4.6365,4.7598,4.9036,5.0227,5.1413,5.2625,5.2625,5.2625,5.2625,5.3765,5.4932,5.6323,5.8886,5.9569,5.9077,6.1975,6.3897,6.5613,6.8682,7.1271,7.3195,7.3815,7.4684,7.5704,7.6964,7.8114,7.8956,7.9937,8.0327,8.0133,7.9691,7.9103,7.8708,7.8114,7.7516,7.7165,7.7165,7.7165,7.7165,7.7165,7.7165,7.7565,7.866,7.8858,7.9747,8.2582,8.2219,8.1908,8.3151,8.2236,8.1613,8.215,8.5407,8.7753,8.7753,9.2406,9.6283,9.7492,9.8417,9.9934,10.2384,10.269,10.314,10.3466,10.3752,10.3814,10.3814,10.3038,10.2865,10.3746,10.2206,10.1866,10.3011,10.2725,10.2437,10.2437,10.2437,10.2437,1.7853,1.7752,1.7895,2.0192,2.0328,2.0124,2.0476,2.1302,2.2765,2.5326,2.5868,2.5747,2.533,2.6927,0.0,2.6441,2.6812,2.7149,2.7149,2.6597,2.6477,2.6477,2.6885,2.7672,2.9513,3.1129,3.3257,3.6259,3.6575,3.7571,3.9779,3.9108,4.0217,4.3671,4.4157,4.5853,4.8797,4.9989,5.0939,5.1413,5.239,5.2625,5.2625,5.3096,5.4466,5.6323,5.7015,5.7705,5.8621,5.9494,6.0362,6.1673,6.4517,6.6267,6.7522,7.2018,7.3927,7.4746,7.7866,7.9299,7.9742,8.0133,8.0327,8.0133,7.9299,7.8906,7.856,7.7716,7.7365,7.7165,7.7165,7.7165,7.7165,7.7165,7.7165,7.7365,7.7814,7.7909,7.8458,8.092,8.1975,8.2777,8.3279,8.3243,8.354,8.4236,8.772,9.1357,9.487,9.822,10.0514,10.1058,10.1559,10.2317,10.3414,10.3703,10.4098,10.4265,10.4534,10.4534,10.4265,10.387,10.3779,10.3757,10.2761,10.2649,10.3192,10.2671,10.2437,10.2437,10.2437,10.2785,1.5929,1.5524,1.5158,1.6822,1.7476,1.7919,1.9086,2.0013,2.1528,2.4316,2.5129,2.4837,2.3967,2.5419,0.0,2.4521,2.5582,2.6488,2.6202,2.6092,2.5819,2.5819,2.5917,2.6733,2.8969,2.9475,3.1284,3.4914,3.4303,3.4804,3.7191,3.6575,3.7747,4.1445,4.218,4.3886,4.7088,4.8766,4.9958,5.067,5.1649,5.2154,5.2154,5.239,5.4033,5.6359,5.586,5.6785,5.8658,5.8392,5.8849,5.9948,6.2159,6.3233,6.4517,6.966,7.1764,7.2642,7.6769,7.8411,7.8658,7.9887,8.0133,7.9887,7.9103,7.8708,7.8312,7.7516,7.7365,7.7165,7.7165,7.7165,7.7165,7.7165,7.711,7.7256,7.7256,7.7239,7.7938,8.0599,8.2355,8.3315,8.2931,8.3138,8.3788,8.5045,8.741,9.0923,9.6019,9.8432,10.0312,10.2157,10.2942,10.3398,10.3825,10.4054,10.4466,10.4665,10.5001,10.4833,10.4328,10.4219,10.4049,10.3476,10.3131,10.3019,10.3019,10.2671,10.2437,10.2437,10.2437,10.2959,1.3299,1.3644,1.4506,1.637,1.6616,1.7362,2.1345,2.017,1.9345,2.3612,2.6065,2.6961,2.528,2.4801,2.4881,2.4572,2.4482,2.4609,2.5638,2.5442,2.5174,2.5174,2.5753,2.6239,2.6971,2.6971,2.7398,2.8574,2.9006,3.0464,3.3419,3.4037,3.5259,3.7995,3.9971,4.169,4.2912,4.564,4.8287,5.067,5.067,5.067,5.067,5.2154,5.4033,5.6323,5.6323,5.7741,6.0062,6.0062,6.1341,6.3535,6.3535,6.4819,6.6743,6.696,6.7392,6.8468,7.2434,7.4086,7.5106,7.9053,7.9887,7.9495,7.9495,7.8708,7.7915,7.7915,7.7516,7.7165,7.7165,7.7165,7.7165,7.7165,7.7248,7.7072,7.7072,7.7217,7.8473,8.2617,8.3325,8.3068,8.1953,8.1005,8.1106,8.3272,8.3022,8.3827,8.7,8.9632,9.3682,9.9876,10.1592,10.2624,10.3729,10.3852,10.4246,10.5045,10.5168,10.4833,10.3757,10.3476,10.3019,10.2437,10.2437,10.2437,10.2437,10.2437,10.2437,10.2437,10.2437,10.2959,1.3208,1.3129,1.3592,1.6635,1.6026,1.5422,1.7902,1.6766,1.5652,1.6874,1.6967,1.6317,1.4905,1.6781,1.8646,0.0,2.0383,2.1966,2.4093,2.368,2.3565,2.429,2.3875,2.4076,2.5085,2.5565,2.6016,2.7415,2.7056,2.7805,2.97,3.0349,3.1516,3.4009,3.5509,3.7003,3.8738,4.0412,4.2858,4.5341,4.7268,4.945,5.2121,5.239,5.3565,5.4932,5.4932,5.6323,5.8126,5.8621,5.9532,6.0626,6.089,6.1565,6.2422,6.4737,6.6875,6.8852,7.2388,7.5357,7.7667,7.8906,7.9495,7.9887,7.9103,7.8708,7.8312,7.7516,7.7365,7.7165,7.7165,7.7103,7.7191,7.7191,7.7108,7.8084,8.0962,8.1663,8.2784,8.7413,8.8085,8.7672,8.5718,8.4953,8.4086,8.1647,8.5769,8.9184,8.9129,9.3506,9.7709,9.99,10.2591,10.4391,10.4657,10.4719,10.4842,10.5106,10.4308,10.3057,10.1647,10.1089,10.0588,9.9804,9.9804,9.9804,9.9804,9.9804,9.9804,9.9804,10.0421,10.1029,1.2594,1.2496,1.2949,1.6277,1.4227,1.1999,1.4267,1.3238,1.2126,1.3619,1.2822,1.177,1.1863,1.3017,1.4587,1.6318,1.7793,1.9828,2.3286,2.2906,2.2813,2.368,2.3272,2.2973,2.3735,2.4172,2.4801,2.5807,2.5807,2.631,2.7062,2.846,2.954,3.0776,3.2943,3.451,3.5509,3.7699,3.8983,3.958,4.1698,4.5301,4.9666,5.0391,5.176,5.3604,5.3604,5.4836,5.6979,5.7934,5.8577,5.9296,6.0251,6.0327,6.025,6.2606,6.5134,6.8124,7.1509,7.4699,7.7667,7.8708,7.9103,7.9299,7.8708,7.861,7.8458,7.7463,7.7458,7.7848,7.8239,7.8171,7.8305,7.9361,7.953,8.0259,8.2972,8.3678,8.476,8.8293,8.907,8.8552,8.7157,8.6898,8.5975,8.3121,8.6982,8.9716,8.8879,9.4482,9.8889,9.9897,10.2951,10.5001,10.5168,10.5168,10.4922,10.4596,10.3792,10.2743,10.1559,10.0847,10.0212,9.9711,9.9563,9.9426,9.9426,9.9426,9.9426,9.9426,9.9919,10.073,1.1602,1.1684,1.2199,1.4897,1.1274,0.7865,1.0936,0.9446,0.8572,1.2722,1.2166,1.159,1.3648,1.242,1.1873,1.484,1.5799,1.7613,2.1928,0.0,2.2079,2.24,2.2269,2.2235,2.2509,2.3089,2.3641,2.3917,2.5127,2.5843,2.5843,2.7914,2.9125,2.8362,3.1716,3.3423,3.2651,3.6413,3.6613,3.3605,3.5394,3.918,4.4711,4.6385,4.8964,5.2036,5.1898,5.3402,5.6447,5.7413,5.8384,5.9501,6.0624,6.0669,6.0024,6.0438,6.2788,6.6182,6.9527,7.271,7.5714,7.8461,7.8708,7.7915,7.7964,7.835,7.858,7.7653,7.8043,7.8971,7.9996,7.9676,8.008,8.2983,8.3517,8.3701,8.3665,8.3765,8.4537,8.6409,8.6951,8.6847,8.6743,8.6683,8.6721,8.6721,8.6624,8.6788,8.7122,9.3285,9.8074,9.9838,10.2778,10.4726,10.5168,10.5168,10.4719,10.3914,10.3536,10.3183,10.3062,10.2134,10.1574,10.1453,10.0835,10.0646,10.0683,10.0683,10.0683,10.0683,10.0683,10.116,1.0144,0.9801,0.9755,1.0749,0.8684,0.6747,0.7928,0.6387,0.4754,0.52,0.464,0.439,0.5702,0.5249,0.5648,0.8855,0.9445,1.0646,1.3844,1.3362,1.3083,1.3991,1.3915,1.5069,1.7822,1.9754,2.166,2.3672,2.4653,2.5143,2.5143,2.6191,2.6961,2.7224,2.8993,3.0029,2.9804,3.0782,3.138,3.1949,3.5473,3.8643,4.1124,4.3675,4.6423,4.8534,4.7144,5.0019,5.548,5.4311,5.6249,5.9796,5.9343,5.9343,5.9304,5.8849,6.0362,6.3153,6.6963,7.0416,7.3422,7.7019,7.8511,7.866,7.9103,7.9345,7.9438,7.941,7.9215,7.8824,7.9068,7.9496,8.063,8.3107,8.352,8.3698,8.3668,8.4921,8.6225,8.6814,8.6882,8.6221,8.4634,8.4275,8.4175,8.4235,8.495,8.6607,8.9503,9.5494,9.9604,10.0433,10.3294,10.5001,10.5168,10.4894,10.4449,10.3914,10.3509,10.2709,10.1608,10.0751,9.9919,9.9209,9.8683,9.8332,9.798,9.798,9.798,9.798,9.8536,9.8842,0.9899,0.9094,0.7924,0.6838,0.5135,0.3684,0.384,0.2969,0.2145,0.1424,0.126,0.1398,0.2192,0.2168,0.2821,0.4863,0.6292,0.7847,1.0612,1.0176,0.9977,0.0,0.0,1.1716,1.3868,1.5472,1.758,1.9782,2.0024,2.099,2.2947,2.3312,2.4118,2.5604,2.7216,2.7811,2.7324,2.7444,2.78,2.8878,3.2146,3.4707,3.6855,3.9788,4.2917,4.6264,0.0,4.8549,5.4326,5.3977,5.6248,5.9563,5.9418,5.9116,5.8891,5.8067,5.9031,6.1197,6.5134,6.808,7.076,7.2876,7.4994,7.6513,7.6359,7.8035,7.9773,7.8971,7.9898,8.0972,8.0972,8.1362,8.221,8.3323,8.3668,8.3551,8.3636,8.5361,8.6874,8.6831,8.6893,8.659,8.5256,8.5821,8.6283,8.5148,8.7545,9.1133,9.5493,9.8767,10.1137,10.2372,10.4037,10.5168,10.5168,10.5001,10.4694,10.4452,10.3398,10.2348,10.1384,10.0486,9.9823,9.9243,9.8721,9.8351,9.8124,9.8124,9.8124,9.8124,9.8574,9.8872,0.9831,0.8346,0.6172,0.3543,0.1754,0.0559,0.0,0.0239,0.0239,-0.0281,-0.015,0.0,0.0324,0.0539,0.0927,0.1455,0.3345,0.5646,0.8013,0.8358,0.8421,0.835,0.0,0.94,0.9928,1.1213,1.2834,1.5217,1.4765,1.6207,2.0244,2.0244,2.1341,2.378,2.5519,2.5915,2.4928,2.5277,2.5772,2.5882,2.8005,3.0193,3.2706,3.5366,3.9285,4.3863,0.0,4.73,5.2598,5.3644,5.6149,5.89,5.9343,5.915,5.8359,5.7632,5.7799,5.9209,6.2697,6.5559,6.7551,6.8155,7.0596,7.3003,7.2896,7.5916,7.9239,7.7702,7.9898,8.2827,8.3022,8.3384,8.3482,8.3649,8.3815,8.426,8.4599,8.6055,8.746,8.7518,8.7467,8.7258,8.6847,8.8483,8.9172,8.7106,9.1186,9.6066,10.0843,10.1779,10.2787,10.4436,10.5001,10.5168,10.5001,10.5001,10.4878,10.486,10.3163,10.2157,10.1786,10.1036,10.0576,10.039,9.996,9.9566,9.9524,9.9524,9.9524,9.9524,9.9524,9.9524,0.787,0.5735,0.3545,0.2553,0.1169,0.0,-0.0246,-0.0235,-0.0571,-0.1686,-0.2409,-0.2732,-0.3015,-0.3592,-0.3656,-0.2534,-0.305,-0.2904,-0.071,0.1108,0.2068,0.1495,0.2509,0.0,0.5592,0.8284,1.1472,1.4974,1.5143,1.5722,1.7625,1.8147,1.9119,2.0551,2.2498,2.2514,2.0106,2.3814,2.5339,2.4404,2.722,2.8693,2.9477,3.2219,3.5899,3.9834,0.0,0.0,4.9167,4.8864,5.2143,5.7394,5.697,5.7376,5.7878,5.6377,5.5832,5.6391,5.7442,6.0374,6.4072,6.7349,6.8582,6.9374,7.2863,7.4885,7.6519,7.7054,7.8288,7.9703,8.0581,8.2143,8.3665,8.3482,8.5053,8.7005,8.8893,8.9523,8.9843,8.9746,8.9746,8.9122,8.7158,8.7158,8.726,8.6898,9.131,9.4967,9.6693,10.12,10.4375,10.5001,10.5168,10.5001,10.4726,10.4328,10.3779,10.3345,10.2016,10.1605,10.2156,10.2099,10.1602,10.0785,10.0446,9.991,9.9524,9.9524,9.9524,9.9524,9.923,9.9082,0.699,0.4665,0.2267,0.1834,0.0787,-0.0331,-0.0808,-0.0788,-0.1012,-0.2501,-0.31,-0.3549,-0.4301,-0.4757,-0.4799,-0.4469,-0.53,-0.5648,-0.515,-0.4395,-0.4349,-0.4998,-0.4201,-0.2514,0.0,0.2228,0.5115,0.9692,1.0298,1.1788,1.4835,1.4971,1.5755,1.74,2.0009,2.0244,1.8109,2.1655,2.3284,2.2708,2.6486,2.7802,2.6677,3.0921,3.4464,3.6981,3.7508,4.1471,4.7484,4.6731,4.9086,5.3174,5.3586,5.4274,5.4783,5.5151,5.5387,5.5726,5.5726,5.7131,5.9143,6.1366,6.5038,6.89,7.0123,7.1722,7.3681,7.7699,7.9106,7.9801,8.1061,8.1651,8.2192,8.4149,8.482,8.534,8.6488,8.8706,9.0361,9.04,9.0453,9.0143,8.8902,8.8849,8.8326,8.7137,8.8899,9.2875,9.9959,10.3312,10.4863,10.4894,10.4894,10.4665,10.4158,10.332,10.2486,10.2135,10.1679,10.1222,10.1105,10.126,10.0945,10.0171,9.996,9.9858,9.9524,9.9524,9.9377,9.923,9.8934,9.9082,0.5869,0.0,0.1181,0.0831,0.0,-0.0685,0.0,-0.1338,-0.1781,-0.3466,-0.414,-0.4757,-0.582,-0.6186,-0.626,-0.6375,-0.727,-0.7663,-0.7383,-0.8239,-0.8884,-0.9114,-0.8479,-0.6992,-0.4012,-0.2675,0.0,0.4782,0.5795,0.7723,1.1672,1.1862,1.2676,1.4094,1.6703,1.7413,1.5981,1.9302,2.0917,2.0828,2.5064,2.617,2.4776,2.9841,3.308,3.4709,3.7158,4.0937,4.5007,4.4859,4.6832,4.9904,5.1237,5.2113,5.3047,5.444,5.522,5.5635,5.5427,5.5596,5.5971,5.6833,6.1577,6.7375,6.8177,6.8849,7.1028,7.762,7.9996,8.0607,8.1633,8.111,8.1147,8.4849,8.4289,8.2762,8.2718,8.5503,8.8098,8.794,8.8098,8.8002,8.8002,8.8098,8.7809,8.6921,8.9328,9.4517,10.3975,10.5071,10.4985,10.4788,10.4421,10.407,10.3779,10.1443,10.0111,10.0205,9.9896,9.9586,9.911,9.9048,9.8997,9.8806,9.8806,9.8932,9.9392,9.9626,9.967,9.9377,9.923,9.9377,0.0,0.1636,-0.0291,-0.119,-0.1255,-0.1166,-0.1684,-0.2375,0.0,-0.5153,-0.6725,-0.8117,-0.9078,-0.9927,-1.0251,-0.9423,-1.1154,-1.1398,-0.7849,-0.9291,-1.019,-0.8868,-0.8289,0.0,-0.5509,-0.3119,0.0,0.3577,0.4374,0.5619,0.7957,0.9733,1.0777,1.0777,1.1723,1.2183,1.2878,1.5959,1.8059,1.9168,2.1845,2.3394,2.3781,2.8286,3.1183,0.0,3.4865,3.746,4.0447,4.1541,4.52,5.0096,5.0648,5.2898,5.5901,5.5278,5.4974,5.522,5.6216,5.6422,5.6628,5.7896,5.9194,6.1618,6.8407,6.858,6.8067,7.5368,7.8784,8.0381,8.0444,8.0289,8.1293,8.5719,8.3628,8.0498,8.0449,8.0751,8.1105,8.1005,8.0904,8.0955,8.0955,8.0905,8.2211,8.5823,9.6302,10.4093,10.5128,10.5092,10.5229,10.5168,10.4123,10.3325,10.369,9.8566,9.5702,9.6448,9.5268,9.4874,9.5606,9.5606,9.5964,9.6595,9.6531,9.7443,9.8996,10.0121,10.068,10.0537,10.025,9.9961,0.1802,0.0281,-0.1207,-0.1981,-0.191,-0.195,-0.3043,-0.3366,-0.4095,-0.6044,-0.7043,-0.7959,-0.9436,-0.9859,-1.0404,-1.126,-1.2039,-1.2345,-1.2033,-1.3121,-1.3902,-1.4093,0.0,0.0,0.0,-0.894,-0.6521,-0.3329,0.0221,0.2677,0.2987,0.655,0.7783,0.6126,0.9279,1.1485,1.2429,1.5043,1.6939,1.7885,2.0466,2.139,2.1202,2.6692,2.9535,3.0352,3.3958,3.6044,0.0,3.8349,3.9665,4.1245,4.4062,4.5941,4.7747,5.1158,5.218,5.1969,5.4312,5.5182,5.5389,5.6422,5.7275,5.8822,6.4264,6.3726,6.1824,6.4717,7.172,7.8571,7.9943,7.9838,7.9782,8.2263,8.1558,8.0353,8.0291,8.0335,8.0183,8.0307,8.0205,8.0256,8.0216,8.0295,8.0715,8.2353,8.8787,9.6186,10.4114,10.5071,10.367,9.9683,10.0224,10.0576,9.9697,9.689,9.5349,9.5857,9.5417,9.5103,9.5306,9.5306,9.5586,9.6413,9.6413,9.6805,9.7661,9.81,9.8144,9.7587,9.751,9.765,0.0573,-0.0776,-0.2164,-0.2666,-0.2405,-0.2554,-0.4077,-0.4378,-0.4877,-0.686,-0.7899,-0.8998,-1.0622,-1.1132,-1.2019,-1.4385,-1.4306,-1.4603,-1.6523,-1.7384,-1.8029,-1.9071,-2.0319,-2.0212,0.0,0.0,-1.1754,-0.821,-0.3935,-0.1539,-0.1364,0.2777,0.4206,0.14,0.5667,0.8792,1.0214,1.3116,1.5054,1.5755,1.8332,1.9117,1.8424,2.5077,2.8134,2.8546,3.3468,3.524,3.4727,3.6453,3.6719,3.683,4.0519,4.2918,4.4326,4.8731,5.0718,5.1615,5.3791,5.5312,5.6116,5.6889,5.7226,5.817,6.0999,6.071,5.9415,5.9175,6.5243,7.2156,7.3941,7.4736,7.5925,7.9355,7.9294,7.8137,7.8179,8.0267,8.2122,8.2178,8.2178,8.2206,8.2284,8.1651,8.149,8.2067,8.4467,9.0179,10.0775,10.1831,10.0283,9.6625,9.7355,9.7416,9.5543,9.4551,9.4122,9.4334,9.4334,9.426,9.3984,9.4122,9.4534,9.5076,9.5345,9.5803,9.6385,9.6518,9.6508,9.634,9.634,9.6614,0.017,-0.1664,-0.3143,-0.3143,-0.292,-0.3106,-0.4418,-0.5372,-0.6205,-0.752,-0.9931,-1.1966,-1.2894,-1.4193,-1.6012,-1.8824,-1.8326,-1.8549,-2.1026,-2.1694,-2.2286,0.0,0.0,-2.6399,-2.5652,-2.0367,-1.4627,-0.9567,-0.812,0.0,-0.546,-0.1849,-0.07,-0.2805,0.0467,0.3505,0.5845,0.9503,1.1731,1.2447,1.5518,1.64,1.5213,2.3494,2.7224,2.7199,3.2979,3.4938,0.0,3.612,3.7584,3.8723,4.1499,4.477,4.797,4.865,5.1349,5.4525,5.5112,5.7328,5.9908,5.9704,5.9672,5.9672,5.9672,6.0607,6.1628,6.0867,6.0356,6.0177,6.1168,6.4219,6.9286,7.8077,7.6752,7.3728,7.3718,8.0144,8.6129,8.6258,8.6131,8.6222,8.6211,8.4552,8.3978,8.588,8.6266,8.8479,9.4926,9.4887,9.504,9.7304,9.592,9.39,9.1331,9.1151,9.1151,9.1151,9.1151,9.1151,9.1151,9.1753,9.2147,9.2147,9.3242,9.4205,9.5431,9.569,9.6466,9.7556,9.7556,9.7556,-0.1598,-0.2483,-0.3524,-0.5583,-0.5577,-0.5903,-0.8199,-0.8663,-0.8945,-1.0468,-1.18,-1.3243,-1.5022,-1.5815,-1.7005,-1.971,-1.9336,-1.9507,-2.222,-2.3333,-2.3901,-2.4533,0.0,-2.6547,0.0,-2.3959,-2.1608,-1.7736,-1.4963,-1.2189,-0.9773,-0.869,-0.7565,-0.6425,-0.2551,0.0464,0.2751,0.6764,0.9176,0.9873,1.2606,1.3977,1.4659,1.8414,2.1273,2.3715,2.7277,2.8728,0.0,3.3261,3.4492,3.4488,3.9126,4.1524,4.2979,4.5749,4.7123,4.7938,5.0549,5.3583,5.6385,5.6668,5.856,6.0598,6.0598,6.1011,6.1132,6.0946,6.0915,6.0794,6.1221,6.5522,6.9766,6.9387,7.1869,7.4045,7.2792,7.4329,7.7211,8.0625,7.8523,7.6244,7.6119,7.749,7.8712,7.9211,7.9324,8.058,8.4085,8.9772,9.3116,9.1747,9.1552,9.1308,9.1214,9.1151,9.1151,9.1151,9.1621,9.1885,9.1885,9.26,9.3114,9.3556,9.3746,9.3941,9.4645,9.5324,9.5339,9.4594,9.6214,9.6698,-0.3808,-0.4479,-0.5396,-0.8109,-0.8528,-0.8812,-1.1095,-1.1329,-1.161,-1.3482,-1.4582,-1.6009,-1.8527,-1.9601,-2.0963,-2.3495,-2.2825,-2.2793,-2.5091,-2.6384,-2.7476,-2.7944,-2.9432,0.0,0.0,0.0,-2.6731,-2.5046,-2.0906,-1.7502,-1.5744,-1.496,-1.3195,-1.0702,-0.5783,-0.2314,-0.0455,0.3705,0.6303,0.724,0.9908,1.1887,1.2914,1.6443,1.9103,2.114,2.3807,2.5287,0.0,2.957,3.1553,3.2387,3.692,3.9796,4.164,4.4195,4.5709,4.6975,4.8968,5.1895,5.4673,5.5973,5.8115,6.0111,5.9756,6.0494,6.1223,6.058,6.0342,6.0208,5.9909,6.2343,6.5544,6.7408,6.9421,7.0705,7.047,6.8444,6.8526,7.501,7.3933,7.1888,7.1963,7.4461,7.5978,7.481,7.6236,7.9038,8.3405,8.7907,9.0029,8.8754,8.968,9.0684,9.1151,9.1356,9.1489,9.1489,9.2211,9.26,9.26,9.3682,9.4179,9.3872,9.4967,9.4704,9.3275,9.5349,9.54,9.3512,9.4985,9.5443,-0.6343,-0.7485,-0.8101,-1.1031,-1.1603,-1.1934,-1.3762,-1.3952,-1.4256,-1.6533,-1.7906,-1.962,-2.2823,-2.454,-2.6243,-2.8927,-2.7829,-2.7184,-2.8889,-3.0262,-3.1557,-3.2096,0.0,0.0,-3.5635,-3.186,-3.0047,-3.114,-2.5775,-2.2587,-2.259,-2.0442,-1.7932,-1.5262,-0.9469,-0.5552,-0.4564,0.0232,0.327,0.4443,0.7718,0.9437,1.0299,1.5722,1.8145,1.8406,2.1603,2.29,0.0,2.5492,2.8447,3.1566,3.4454,3.8219,4.2153,4.3062,4.5602,4.8692,4.894,5.1159,5.4049,5.6204,5.7309,5.7723,5.7187,5.8896,6.0858,5.9383,5.9196,5.9022,5.7672,5.6576,5.8845,7.0014,6.8784,6.5475,6.7169,6.3139,6.1484,6.9814,7.1073,7.1039,7.1839,7.4229,7.5048,7.2262,7.6581,8.2498,8.8882,8.8042,8.7029,8.7422,8.9678,9.1159,9.1285,9.1753,9.2147,9.2147,9.2986,9.3433,9.3433,9.5021,9.5259,9.3621,9.6652,9.6207,9.2227,9.5782,9.6204,9.3752,9.411,9.4334,-0.8574,-0.9432,-1.0475,-1.3597,-1.4083,-1.4526,-1.6939,-1.7045,-1.7156,-1.8963,-1.9673,-2.1116,-2.4737,-2.5355,-2.6702,-3.1055,-2.9854,-2.9035,-3.0994,-3.1316,-3.1428,0.0,-3.2866,0.0,-3.4367,-3.3232,0.0,-3.2237,-2.886,-2.7104,-2.768,-2.3495,-2.106,-2.0204,-1.4831,-1.1879,-1.1618,-0.4396,0.0,0.1169,0.449,0.6233,0.6819,0.9622,1.1175,1.1985,1.4976,1.7291,1.9035,2.2913,2.5243,2.6869,3.0963,3.3673,3.5419,3.8762,4.0867,4.2326,4.5096,4.8066,5.061,5.0957,5.0915,5.0968,5.2295,5.4763,5.694,5.6002,5.7337,5.8924,5.6828,5.6745,5.9644,6.9765,6.9539,6.6551,6.4617,6.3157,6.3142,6.6124,6.3904,6.3747,7.0731,7.2401,7.271,7.2006,8.1471,8.8225,8.7252,8.89,8.9152,8.6735,8.8592,9.0351,9.1489,9.2211,9.26,9.26,9.3495,9.412,9.412,9.5797,9.6605,9.6146,9.7544,9.7775,9.7045,9.6622,9.5693,9.4311,9.6364,9.694,-1.0997,-1.1952,-1.3268,-1.783,-1.8817,-1.9308,-2.2362,0.0,0.0,-2.3056,-2.3053,-2.3679,-2.7013,-2.7276,-2.8602,-3.3568,-3.3364,-3.2681,-3.3181,-3.4952,-3.5908,-3.4598,-3.5788,-3.7127,0.0,-3.7484,-3.6353,-3.5874,-3.41,-3.3045,-3.2593,-2.7749,-2.4076,-2.177,-1.7634,-1.4731,-1.3587,-0.906,-0.537,-0.2573,0.0942,0.3099,0.3874,0.6491,0.8728,1.088,1.1874,1.4513,1.8076,2.0266,2.3033,2.6018,2.9333,3.1939,3.4173,3.6627,3.7685,3.8101,4.1363,4.3465,4.4569,4.4504,4.6318,4.8381,4.9056,5.1437,5.3734,5.2857,5.4123,5.5526,5.4261,5.5597,5.8717,6.4224,6.4376,6.2981,6.1299,6.267,6.4647,6.6063,6.5612,6.6488,7.1119,7.313,7.3636,7.2165,8.043,8.5452,8.2165,8.6083,8.7889,8.4357,8.6296,8.8511,8.9916,9.1321,9.2211,9.2401,9.3795,9.4613,9.4735,9.6213,9.6721,9.6136,9.756,9.7858,9.6902,9.7876,9.7807,9.6765,9.8066,9.8416,-1.3462,-1.4784,-1.6713,-2.1582,-2.3267,-2.4398,-2.7222,-2.7389,0.0,-2.706,-2.6681,-2.7078,-2.9321,-2.9719,-3.1303,-3.6429,-3.6939,-3.6521,-3.6014,-3.9194,-4.0595,0.0,-3.9335,-4.1289,-4.3888,-4.1867,0.0,0.0,-3.9533,-3.84,-3.6561,-3.1659,-2.733,-2.3537,-2.068,-1.7658,-1.4964,-1.3578,-1.0787,-0.6578,-0.2815,-0.0472,0.1196,0.4534,0.7405,0.9828,0.9917,0.0,1.6173,1.6594,1.9764,2.4219,2.6242,2.8989,3.2399,3.3988,3.4409,3.4797,3.7921,3.8954,3.9079,3.8784,4.2175,4.6501,4.5325,4.7728,5.0607,4.979,5.0761,5.1946,5.2023,5.4523,5.7296,5.847,5.8692,5.8736,5.8732,6.1799,6.5194,6.7155,6.9607,7.1634,7.2043,7.4416,7.5343,7.2784,7.7263,7.9968,7.7092,8.1932,8.4658,8.2413,8.4476,8.6682,8.8132,9.0209,9.1465,9.1891,9.3361,9.4495,9.4901,9.6095,9.6409,9.551,9.7485,9.7664,9.5725,9.8497,9.9314,9.8476,9.8388,9.8476,-1.6069,-1.8932,-2.1223,-2.2157,-2.4287,-2.6497,-2.7589,-2.7306,-2.707,-2.7774,-2.9511,-3.0871,-3.0856,-3.2186,-3.4769,-3.9365,0.0,-3.7844,-4.1288,-4.0756,-4.0223,-4.0982,-4.033,-4.0909,-4.4088,-4.3052,-4.2384,-4.2736,-4.2202,-4.0436,-3.7623,-3.3521,-3.1153,-3.0983,-2.7622,-2.4417,-2.155,-1.7564,-1.4026,-1.0702,-0.7849,-0.5011,-0.2156,0.1654,0.2989,0.2663,0.6014,0.7608,0.8055,1.0157,1.1837,1.3279,1.7342,1.9502,2.1405,2.6764,2.9017,3.0106,3.4068,3.6826,3.8419,3.5742,3.7416,4.0082,3.8385,4.216,4.6791,4.6353,4.8832,5.1788,5.2727,5.4344,5.6005,5.8204,5.8692,5.8736,5.8732,6.0091,6.2423,6.6448,6.8523,7.0282,7.2838,7.4028,7.4381,7.3967,7.5887,7.7149,7.6759,7.8453,8.0629,8.3199,8.5233,8.7222,8.9048,9.0025,9.0678,9.0911,9.1682,9.2644,9.3696,9.5126,9.6049,9.6614,9.7944,9.8514,9.838,9.6528,9.5716,9.5798,9.5549,9.5465,-1.8133,-2.1225,-2.4425,-2.6186,-2.758,-2.8818,-3.0933,-3.1033,-3.0914,-3.1995,-3.1829,-3.1821,-3.2743,-3.2339,0.0,0.0,0.0,0.0,-4.3471,-4.2803,-4.2339,0.0,-4.326,0.0,-4.6931,-4.6317,-4.4902,0.0,-4.3965,-4.3447,-4.0645,-3.7229,-3.4526,-3.2932,-3.0263,-2.7963,-2.5864,-2.1071,-1.6701,-1.302,-1.1151,-0.9073,-0.7225,-0.3468,-0.0684,0.0895,0.0,0.6416,0.8394,0.9564,1.0856,1.2753,1.5217,1.6846,1.8363,2.2496,2.4452,2.5553,3.0616,3.2027,3.1669,3.0433,3.3102,3.6891,3.6605,3.9408,4.2819,4.3267,4.5386,4.7927,4.8685,5.1685,5.4233,5.2605,5.3831,5.599,5.8158,5.9127,6.1096,6.5971,6.8942,7.0795,7.1498,7.3266,7.4607,7.421,7.4865,7.532,7.5839,7.6024,7.7519,8.1333,8.3597,8.5483,8.7194,8.9056,9.0342,9.0926,9.2302,9.3538,9.447,9.5048,9.5558,9.5857,9.6337,9.6955,9.778,9.5837,9.5402,9.6106,9.525,9.4823,-1.9553,-2.2876,-2.6772,-2.9862,-3.1125,-3.2226,-3.4829,-3.5126,-3.5115,-3.6149,-3.5198,-3.4772,0.0,0.0,0.0,-4.2422,-4.1409,0.0,-4.5308,-4.507,0.0,-4.5146,0.0,-4.6363,-4.7985,-4.8412,0.0,0.0,-4.5689,-4.5859,-4.3841,-4.0363,-3.732,-3.5111,-3.2411,-3.0698,-2.9761,-2.5958,-2.193,-1.7681,-1.5207,-1.3382,-1.1759,-0.815,-0.4936,-0.2208,0.0,0.2913,0.6295,0.6804,0.8449,1.1024,1.3232,1.4544,1.5703,1.9068,2.0146,2.0891,2.571,2.6217,2.4429,2.488,2.8884,3.3708,3.4538,3.7377,4.0609,4.1375,4.3363,4.5433,4.6085,4.9886,5.2286,4.8173,5.0069,5.4073,5.7802,5.9387,6.1316,6.5673,6.8623,7.0443,7.0014,7.2285,7.4154,7.3839,7.4411,7.487,7.5043,7.542,7.6821,7.996,8.2224,8.4148,8.583,8.7853,8.9457,9.0455,9.2072,9.3496,9.4791,9.4791,9.4634,9.4451,9.4965,9.5484,9.605,9.5656,9.559,9.5909,9.4827,9.411,-2.05,-2.4285,-2.7673,-3.13,-3.4179,-3.6684,-3.8606,-3.8605,-3.8383,-3.8759,-4.0806,-4.2833,0.0,0.0,-4.5212,-4.8362,-4.6132,-4.5071,-4.7897,-4.7033,-4.5965,0.0,0.0,0.0,0.0,0.0,0.0,-4.8724,0.0,-4.7141,-4.6085,-4.1537,-3.9388,-4.0287,-3.5426,-3.3309,-3.4041,-3.3417,-3.1178,-2.7362,-2.1644,-1.7723,-1.5247,-1.111,-0.9468,-0.9505,-0.7536,-0.5845,-0.3864,-0.1682,0.0646,0.3501,0.8729,0.9935,0.9571,1.5077,1.6614,1.6139,1.8645,1.912,1.8917,2.0223,2.4444,2.9329,2.9724,3.5194,4.1474,4.1288,4.3737,4.6872,4.8601,5.0121,5.0526,4.7939,5.0394,5.419,5.8002,6.1458,6.4285,6.5392,6.6325,6.7618,6.9047,7.0741,7.2043,7.2655,7.4865,7.6103,7.51,7.7574,7.9805,8.085,8.2346,8.4148,8.6385,8.6844,8.7569,8.9164,8.962,9.1019,9.3508,9.3586,9.3402,9.2808,9.4751,9.5179,9.382,9.5659,9.5549,9.366,9.3214,9.1987,-2.0499,-2.5346,-3.0497,-3.1963,-3.5022,-3.7811,-3.8505,-3.8823,-3.9303,-4.0995,-4.2242,-4.3471,-4.4949,-4.5328,-4.6239,-4.8695,-4.7015,-4.6816,-5.0667,-4.8887,-4.7987,-5.0329,-4.8547,-4.7797,0.0,0.0,0.0,-4.7133,-4.9388,-5.0375,-4.8694,-4.75,-4.5651,-4.3079,-4.0398,-3.8007,-3.5874,-3.4158,-3.2454,-3.0811,-2.7433,-2.4803,-2.3133,-1.8652,-1.5832,-1.428,-1.1534,-0.917,-0.6552,-0.5245,-0.3148,-0.0414,0.2303,0.4995,0.7778,1.1438,1.3658,1.4468,1.1547,1.2882,1.6047,1.6646,2.1319,2.6929,2.7917,3.2203,3.6637,3.7118,4.0411,4.3907,4.4653,4.6569,4.8198,4.7694,4.8574,5.1086,5.5944,5.9889,6.296,6.3941,6.4443,6.5535,6.7892,7.0059,7.2562,7.4897,7.6073,7.644,7.6125,7.8916,8.111,8.1353,8.2896,8.4843,8.733,8.8197,8.932,9.1009,9.1772,9.2751,9.4049,9.3541,9.3216,9.2965,9.3235,9.2981,9.234,9.3193,9.3193,9.234,9.2267,9.1865,-2.1614,-2.5851,-3.0453,-3.2171,-3.5142,-3.7915,-3.9336,-4.0225,-4.1252,-4.2981,-4.4078,-4.535,-4.7275,-4.7751,-4.8302,-4.9511,-4.8372,-4.8078,-5.0529,-4.905,-4.8525,-5.1122,-4.9693,0.0,0.0,0.0,0.0,-4.9401,-5.1795,-5.2775,-5.0961,-5.1042,-4.9553,-4.5959,-4.4606,-4.2747,-4.0198,-3.8383,-3.7148,-3.6354,-3.5174,-3.2925,-2.9746,-2.4939,-2.1846,-2.0113,-1.7202,-1.4416,-1.1901,-0.9251,-0.6718,-0.4211,-0.2237,0.1011,0.4585,0.6189,0.8365,1.0315,0.6122,0.7842,1.1899,1.3227,1.742,2.2358,2.5439,2.9503,3.3145,3.4416,3.7681,4.0912,4.0921,4.3388,4.575,4.5731,4.6642,4.8957,5.3882,5.7945,6.0823,6.1956,6.2293,6.3424,6.5819,6.8327,7.0976,7.3984,7.5355,7.5547,7.4065,7.7457,8.0501,8.2103,8.3137,8.4892,8.7579,8.88,9.0079,9.1617,9.2671,9.3389,9.3834,9.3281,9.2559,9.1661,9.1964,9.1849,9.121,9.2084,9.2084,9.1258,9.1353,9.101,-2.4163,-2.5617,-2.7198,-3.1801,-3.4672,-3.7305,-4.136,-4.3372,-4.4441,-4.4781,-4.6767,-4.9046,-5.1114,-5.1959,-5.2129,-5.1557,-5.0346,-4.8944,-4.7811,-4.768,-4.768,-4.7827,-4.9339,-4.8578,0.0,-5.0897,-5.5494,-5.6035,-5.5303,-5.4312,-5.2698,-5.196,-5.0706,-4.9139,-4.808,-4.7547,-4.7802,-4.6604,-4.55,-4.3981,-4.5004,-4.1846,-3.4755,-2.9362,-2.7308,-2.7453,-2.4389,-2.2251,-2.0081,-1.4147,-1.039,-0.8173,-0.4984,-0.2177,0.0,-0.0595,0.0963,0.3136,0.2444,0.3644,0.6245,0.9932,1.261,1.5578,2.1679,2.7024,3.1344,3.331,3.5812,3.7942,3.7942,4.0648,4.3052,4.1801,4.4577,4.8509,5.2132,5.563,5.8247,5.9332,5.9972,6.0814,6.2946,6.5125,6.7368,6.9494,7.2878,7.3548,6.9194,7.3233,7.8262,8.2585,8.3073,8.4189,8.7158,8.8265,8.9403,9.0801,9.1745,9.2302,9.2458,9.2702,9.1541,8.8811,9.1205,9.181,9.0484,9.265,9.265,9.0558,9.0587,8.9488,-2.3581,-2.6996,-3.0056,-3.3167,-3.6954,-3.9939,-4.054,-4.2647,-4.4538,-4.5035,-4.8631,-5.1624,-5.1817,-5.1924,-5.2415,-5.3327,-5.1617,-5.0863,-5.2638,-5.2919,-5.3199,-5.3994,-5.3902,-5.3225,-5.1567,-5.6764,-5.925,-5.6874,-5.8608,-5.8979,-5.7026,-5.6663,-5.4903,-5.1634,-5.1002,-5.023,-4.9371,-4.857,-4.7481,-4.6401,-4.704,-4.4934,-4.0325,-3.9802,-3.6646,-3.1571,-2.9249,-2.5771,-2.117,-1.855,-1.6079,-1.3541,-1.1092,-0.8059,-0.5406,-0.9025,-0.6741,-0.1623,-0.0179,0.2169,0.4962,0.7536,1.0897,1.4479,1.8076,2.1575,2.484,2.8112,3.1516,3.4374,3.5277,3.8278,4.0524,3.8532,4.0751,4.4274,4.8248,5.1364,5.4359,5.7499,5.8982,6.0277,6.2246,6.4896,6.6682,6.692,6.8312,7.0452,7.3489,7.42,7.6211,8.0984,8.0657,8.1878,8.6147,8.6765,8.7749,8.9744,8.9965,9.0403,9.111,9.0481,9.0516,9.1535,9.1717,9.2294,9.3251,9.3614,9.4216,9.5033,9.4817,9.5147,-2.1664,-2.4415,-2.7195,-2.9689,-3.3178,-3.6241,-3.661,-4.0404,-4.3856,-4.3486,-4.8235,-5.2196,-5.1022,-5.1593,-5.2232,0.0,-5.1521,-5.1806,-5.4045,-5.4714,-5.5383,-5.6634,-5.735,-5.7842,-5.7882,-6.1032,-6.1938,-5.9467,-6.0892,-6.134,-6.0048,-5.9808,-5.8783,-5.6943,-5.6676,-5.591,-5.4866,-5.4604,-5.3588,-5.2307,-5.2015,-5.0207,-4.7111,-4.7475,-4.3546,-3.6752,-3.344,-3.0354,-2.7354,-2.3744,-2.1345,-1.9514,-1.7179,-1.3463,-0.954,-1.3136,-1.0539,-0.4993,-0.3405,-0.034,0.3238,0.5675,0.8442,1.1706,1.5281,1.8169,2.0911,2.38,2.6853,2.975,3.1528,3.4581,3.7071,3.6937,3.9123,4.1963,4.4314,4.663,4.9347,5.2732,5.4666,5.6762,5.9812,6.2277,6.304,6.0967,6.2252,6.4541,6.7679,7.0004,7.2765,7.6344,7.6772,7.8624,8.2925,8.4763,8.5901,8.6697,8.8102,8.8824,8.8734,8.9957,9.1015,9.1832,9.2383,9.3224,9.4285,9.4129,9.4606,9.5706,9.4869,9.5461,-1.8961,-1.998,-2.1926,-2.4144,-2.6772,-2.9194,0.0,0.0,-4.1491,-4.0163,-4.5878,-5.0504,-4.8648,-5.0235,-5.1144,-4.9179,-5.0203,-5.1739,-5.3376,-5.4382,-5.5537,-5.7447,-6.0243,-6.2328,-6.3333,-6.4125,-6.4125,-6.3195,-6.3195,-6.2972,-6.2415,-6.2362,-6.2452,-6.2669,-6.3087,-6.2848,-6.1712,-6.1937,-6.1526,-6.0019,-5.8471,-5.6553,-5.4283,-5.3245,-4.9331,-4.3267,-3.8462,-3.6536,-3.6591,-2.9482,-2.5865,-2.4859,-2.2402,-1.8233,-1.3669,-1.4713,-1.1831,-0.7417,-0.5988,-0.2709,0.1256,0.3859,0.5914,0.8322,1.2822,1.5733,1.7909,2.0043,2.2312,2.4529,2.7203,2.9971,3.2861,3.5462,3.7965,3.9947,4.0378,4.2104,4.4427,4.6894,4.9243,5.2227,5.6072,5.8126,5.7926,5.4223,5.6304,5.811,5.7386,6.3422,6.8324,6.985,7.2239,7.5142,7.8341,8.2058,8.3982,8.3223,8.6163,8.7369,8.6162,8.9976,9.1603,9.0475,9.2624,9.3948,9.4346,9.4175,9.4156,9.4335,9.2562,9.2823,0.0,0.0,0.0,0.0,0.0,0.0,0.0,0.0,-3.4456,-3.4592,-3.9816,-4.4145,-4.3051,-4.4714,-4.6538,-4.7091,-4.7694,-4.9649,-5.417,-5.4191,-5.5537,-6.0679,-6.404,-6.5662,-6.4668,-6.6903,-6.7864,-6.6903,-6.8453,-6.8712,-6.7021,-6.7163,-6.5287,-6.0905,-6.4017,-6.431,-6.1186,-6.3203,-6.4454,-6.4931,-6.2461,-6.0663,-5.9359,-5.8949,-5.7274,-5.4509,-4.9748,-4.706,-4.5084,-3.4943,-2.8292,-2.463,-2.343,-2.1767,-1.9796,-1.6546,-1.381,-1.1059,-0.5546,-0.2879,-0.1193,0.1876,0.4427,0.6771,0.9269,1.0693,1.2157,1.5639,1.8141,2.0271,2.2332,2.4741,2.7124,3.0018,3.262,3.5048,3.7165,4.051,4.387,4.6472,4.8603,5.058,5.2617,5.3219,5.3966,5.5586,5.7214,5.823,5.8516,6.198,6.4249,6.3826,6.8834,7.2766,7.4362,7.7773,8.114,8.3889,8.4575,8.5196,8.5898,8.6605,8.7834,8.9777,9.0282,9.1942,9.4773,9.3258,9.3271,9.4672,9.2888,9.2301,0.0,0.0,0.0,0.0,0.0,0.0,0.0,0.0,0.0,0.0,0.0,-4.0887,0.0,0.0,-4.5774,-4.637,-4.868,-5.1639,-5.4685,-5.6389,-5.9062,-6.3499,-6.5513,-6.6635,-6.6957,-6.9091,-7.0421,-6.9995,-7.1381,-7.1791,-7.0605,-6.9167,-6.7389,-6.5318,-6.7946,-6.8511,-6.6532,-7.0028,-7.1589,-7.1095,-6.8583,-6.7035,-6.6293,-6.4995,-6.3239,-6.0902,-5.6671,-5.3485,-5.0369,-4.3019,-3.6449,-3.0714,-2.8242,-2.5706,-2.312,-1.9176,-1.6081,-1.3094,-0.752,-0.5068,-0.3728,0.0,0.2665,0.4677,0.6641,0.8194,0.9764,1.16,1.3547,1.5774,1.8075,2.0146,2.2456,2.5794,2.7904,3.0214,3.3114,3.592,3.8649,4.1155,4.4387,4.7153,4.8478,4.6876,4.6757,5.0607,5.1558,5.2978,5.5782,5.8694,6.1023,6.2514,6.478,6.84,7.3782,7.3108,7.4973,8.0819,8.1826,8.2582,8.3472,8.5263,8.7325,8.945,8.967,9.1013,9.3573,9.1821,9.185,9.3547,9.0053,8.8458,0.0,0.0,0.0,0.0,0.0,0.0,0.0,0.0,0.0,0.0,0.0,0.0,0.0,0.0,0.0,-4.5374,-4.9767,-5.3665,-5.5424,-5.9182,-6.2585,-6.4976,-6.5728,-6.6727,-6.8744,-7.0531,-7.1664,-7.2127,-7.3283,-7.3792,-7.3507,-7.142,-7.0457,-7.0793,-7.3119,-7.3756,-7.2624,-7.6907,-7.8505,-7.7288,0.0,0.0,-7.3327,-7.1082,-6.864,-6.5714,-6.2543,-5.8864,-5.5024,-5.0941,-4.5063,-3.8266,-3.5182,-3.1471,-2.7227,-2.2116,-1.8405,-1.5126,-1.0203,-0.7753,-0.5989,-0.2134,0.0561,0.2583,0.4535,0.6397,0.0,0.7963,0.9461,1.144,1.375,1.558,1.7732,2.1389,2.3382,2.5341,2.8365,3.0518,3.2565,3.4927,3.886,4.2191,4.4097,4.1358,3.9962,4.3082,4.4328,4.6342,5.0219,5.4254,5.7928,6.1221,6.2139,6.5425,7.2866,6.9835,7.0392,7.6949,7.879,7.9769,8.0105,8.3255,8.5311,8.5916,8.626,8.7608,8.9892,8.8535,8.8908,9.0744,8.4603,8.2361,0.0,0.0,0.0,0.0,0.0,0.0,0.0,0.0,0.0,0.0,0.0,0.0,0.0,0.0,0.0,0.0,-4.6974,-5.2097,-5.7539,-6.0787,-6.2815,-6.3169,-6.5326,-6.7423,-6.8595,-7.0041,-7.1225,-7.2214,-7.4316,-7.5654,-7.5864,0.0,0.0,0.0,0.0,-7.9375,-7.5146,-7.8416,-8.0662,-8.1851,-7.8502,-7.787,-7.9275,-7.689,-7.418,-7.152,-6.9718,-6.595,-6.0407,-5.5424,-4.9389,-4.3144,-4.3706,-4.146,-3.6374,-2.5476,-2.0602,-1.8559,-1.2288,0.0,0.0,-0.4714,-0.1897,0.0701,0.2376,0.3115,0.3648,0.5618,0.7101,0.8406,0.9255,1.0548,1.2455,1.586,1.812,2.0276,2.2672,2.596,2.9088,3.1501,3.3448,3.582,3.9375,3.9455,3.803,3.4958,3.9138,4.2199,4.1148,4.8919,5.4568,5.5015,0.0,0.0,6.8317,7.0508,7.3034,7.5337,7.6355,7.6742,7.6584,7.7238,7.6296,7.3445,7.369,7.6217,8.1093,8.1012,8.2594,8.5377,7.5673,7.3764,0.0,0.0,0.0,0.0,0.0,0.0,0.0,0.0,0.0,0.0,0.0,0.0,0.0,0.0,0.0,0.0,-4.6138,-5.2955,-5.6583,-5.8745,-6.0683,-6.2734,-6.5361,-6.7522,-6.8569,-7.0504,-7.2492,-7.438,-7.5959,-7.696,-7.7162,-7.6085,-7.5205,-7.4717,-7.8205,-7.9677,-7.9025,-8.3171,-8.5552,-8.586,-8.4416,-8.3225,-8.2275,-8.1232,-7.9548,-7.7486,-7.4928,-7.1189,-6.6562,-6.2484,-5.6513,0.0,0.0,0.0,0.0,0.0,-2.5236,-2.1572,-1.4614,-1.25,-1.195,-0.617,-0.428,-0.3778,-0.0644,0.0505,0.1114,0.3173,0.4217,0.5044,0.6281,0.768,0.9264,1.1403,1.3377,1.5491,1.8289,2.0759,2.3193,2.5356,2.9346,0.0,3.2434,3.234,3.2757,3.4483,3.7631,4.0138,4.0969,4.8056,5.3508,5.4695,5.8992,6.3814,6.8551,6.8336,0.0,0.0,0.0,7.7304,7.7141,7.7876,0.0,0.0,0.0,0.0,0.0,0.0,0.0,0.0,7.1003,6.8988,0.0,0.0,0.0,0.0,0.0,0.0,0.0,0.0,0.0,0.0,0.0,0.0,0.0,0.0,0.0,0.0,0.0,-5.0306,-5.2251,-5.5567,-5.8938,-6.2168,-6.4552,-6.6898,-6.952,-7.1091,-7.313,-7.5841,-7.6967,-7.7727,-7.8119,-7.5662,-7.4911,-7.6471,-7.7987,-7.9663,-8.1391,-8.5776,-8.7727,-8.7459,-8.776,-8.6853,-8.4649,-8.4584,-8.3158,-8.0733,-7.9373,-7.54,-6.999,-6.8075,-6.2598,-5.462,-4.8651,-4.3985,-3.9917,-3.311,-2.799,-2.3558,-1.6467,-1.4798,-1.4577,-0.8145,-0.7005,-0.7506,-0.36,-0.2134,-0.1413,0.0588,0.1178,0.1537,0.2865,0.3819,0.4911,0.6361,0.8217,1.0295,1.2949,1.4998,1.6896,1.962,2.367,2.6316,2.4681,2.4786,2.6498,3.0726,3.3195,0.0,3.8357,4.5764,5.1325,5.3281,5.5985,6.0649,6.7959,6.654,6.8213,7.5194,7.6484,7.7377,7.8345,7.86,7.9855,8.2448,7.7912,7.631,0.0,0.0,0.0,0.0,0.0,0.0,0.0,0.0,0.0,0.0,0.0,0.0,0.0,0.0,0.0,0.0,0.0,0.0,0.0,0.0,0.0,0.0,0.0,0.0,-4.3712,-5.1699,-5.8343,-6.1125,-6.2485,-6.5521,-7.1767,-7.1296,-7.2072,-7.5562,-7.6841,-7.7924,-7.8697,-7.7858,-7.7987,-7.9127,-8.0025,-8.056,-8.1114,-8.3912,-8.5441,-8.5508,-8.6588,-8.7037,-8.6929,-8.6407,-8.385,-7.9969,-8.3261,-7.8729,-6.8975,-7.0877,-6.5995,-5.6511,-4.9657,-4.4216,-3.9144,-3.1586,-2.7137,-2.3939,-1.7387,-1.5059,-1.4494,-1.1651,-1.0404,-0.9618,-0.6121,-0.4898,-0.432,-0.2162,-0.1823,-0.1951,-0.1656,-0.1789,-0.155,0.0239,0.2381,0.4594,0.6203,0.8114,1.0778,1.5374,1.551,1.5228,1.6283,1.814,1.9519,1.9727,2.3229,0.0,2.9753,3.9699,4.7,4.8243,5.6733,6.2968,6.4949,6.6234,6.9425,7.525,7.4609,7.5648,7.9303,7.7305,7.6378,7.6846,7.4948,7.5189,7.7708,0.0,0.0,0.0,0.0,0.0,0.0,0.0,0.0,0.0,0.0,0.0,0.0,0.0,0.0,0.0,0.0,0.0,0.0,0.0,0.0,0.0,0.0,0.0,0.0,0.0,-5.5614,-5.9198,-6.1854,-6.4726,-6.7834,-6.8391,-6.9927,-7.2886,-7.6017,-7.8022,-7.841,-7.8753,-7.9622,-8.1251,-8.2202,-8.3437,-8.5247,-8.6437,-8.7162,-8.7501,-8.7903,-8.7663,-8.6788,-8.6629,-8.4699,-8.1624,-8.3505,-8.0129,-7.313,-7.2168,-6.6497,-5.7826,-5.2376,-4.5406,-3.7666,-3.2373,-2.8299,-2.4961,-2.256,-1.9179,-1.5056,-1.031,-0.8887,-0.8399,-0.4738,-0.3539,-0.2895,0.0,0.0927,0.1137,0.1881,0.189,0.1799,0.2487,0.3154,0.3703,0.4517,0.5844,0.778,1.0904,0.9333,0.834,1.135,1.4763,1.6478,1.4628,2.0377,2.6416,3.0812,3.8365,4.5276,5.0239,5.4817,5.9536,6.4428,6.6339,6.9468,7.4888,7.5992,7.7689,8.053,7.9167,7.9445,8.1847,8.0122,7.6602,7.1018,0.0,0.0,0.0,0.0,0.0,0.0,0.0,0.0,0.0,0.0,0.0,0.0,0.0,0.0,0.0,0.0,0.0,0.0,0.0,0.0,0.0,0.0,0.0,0.0,0.0,0.0,-5.7563,-6.1222,0.0,-6.5777,-6.6465,-6.7436,-6.9025,-7.1857,-7.4282,-7.6121,-7.6341,-7.7745,-8.0555,-8.1454,-8.2706,-8.4396,-8.5821,-8.6699,-8.7011,-8.7573,-8.731,-8.6416,-8.6667,-8.5502,-8.3141,-8.4016,-8.1152,-7.5868,-7.425,-6.8087,-5.9127,-5.3637,-4.536,-3.6023,-3.1019,-2.7038,-2.3862,-2.2097,-1.8401,-1.3802,-0.9273,-0.7977,-0.741,-0.3429,-0.3534,-0.4148,0.009,0.0456,0.0,0.1768,0.257,0.2823,0.2767,0.3099,0.3348,0.3446,0.3105,0.4071,0.8283,0.7214,0.668,0.9989,1.2277,1.3588,1.3015,1.7731,2.3666,3.0267,3.6996,4.3696,5.0396,5.3943,5.8058,6.3866,6.6182,6.94,7.4168,7.6586,7.8687,8.0546,8.0481,8.1068,8.2604,8.0348,7.5974,0.0,0.0,0.0,0.0,0.0,0.0,0.0,0.0,0.0,0.0,0.0,0.0,0.0,0.0,0.0,0.0,0.0,0.0,0.0,0.0,0.0,0.0,0.0,0.0,0.0,0.0,0.0,-5.5969,-5.9938,0.0,0.0,0.0,0.0,-6.3849,-6.4737,-6.7289,-7.163,-7.1148,-7.277,-7.7244,-7.8127,-7.8527,-7.8691,-8.2292,-8.406,-8.406,-8.5515,-8.597,-8.5713,-8.6542,-8.5884,-8.4146,-8.4785,-8.2011,-7.7253,-7.6907,-7.0481,-6.0213,-5.3587,-4.4351,-3.4192,-2.8098,-2.4192,-2.1254,-1.6758,-1.3471,-1.1045,-0.8739,-0.7753,-0.6602,-0.2294,-0.4262,0.0,0.0,-0.2443,-0.4609,-0.1436,0.036,0.1315,0.1199,0.253,0.3647,0.3028,0.0544,0.0594,0.0,0.924,0.9707,1.2215,0.0,1.1643,1.4336,1.5475,1.9079,2.7727,3.5165,4.2135,4.8549,5.3882,5.8759,6.2993,6.5924,6.9285,7.329,7.6254,7.8425,7.9624,8.0989,8.0851,7.889,7.5335,0.0,0.0,0.0,0.0,0.0,0.0,0.0,0.0,0.0,0.0,0.0,0.0,0.0,0.0,0.0,0.0,0.0,0.0,0.0,0.0,0.0,0.0,0.0,0.0,0.0,0.0,-3.9001,-4.5415,-4.9826,-5.3549,-5.5227,0.0,0.0,0.0,0.0,0.0,0.0,-6.5,-6.6939,-6.8497,-6.9491,-7.435,-7.6666,-7.6148,-8.0613,-8.2775,-8.2616,-8.3202,-8.3411,-8.3008,-8.3491,-8.348,-8.3017,-8.2993,-8.23,-8.0787,-7.5997,-6.7767,-5.7901,-5.5129,-4.5651,-3.3316,-3.1382,-2.8999,-2.5939,-1.995,-1.5888,-1.283,-0.9926,-0.6263,-0.2786,-0.1636,0.0,0.0,0.0,0.0,0.1677,0.3342,0.242,0.1891,0.5312,0.7186,0.7864,0.6407,0.5431,0.712,0.0,1.3542,1.3424,1.9052,0.0,0.0,0.0,0.0,2.2988,2.3547,3.1772,3.9891,4.6101,5.2063,5.7703,6.2902,6.5104,6.8728,7.4691,7.5948,7.796,8.1232,7.9181,7.7039,7.5104,0.0,0.0,0.0,0.0,0.0,0.0,0.0,0.0,0.0,0.0,0.0,0.0,0.0,0.0,0.0,0.0,0.0,0.0,0.0,0.0,0.0,0.0,0.0,0.0,0.0,0.0,0.0,-2.7714,-3.5454,-4.1056,-4.511,-4.7081,0.0,0.0,0.0,0.0,0.0,0.0,0.0,0.0,0.0,-6.519,-6.923,-7.1586,-7.1858,-7.6863,-7.9457,-7.99,-8.2787,-8.4122,-8.4041,-8.5124,-8.5219,-8.4593,-8.1914,-7.9623,-7.7501,-7.2751,-6.5288,-5.6427,0.0,0.0,0.0,0.0,-2.7328,-2.3121,-1.7687,-1.2871,-0.8387,-0.3581,0.0,0.0,0.0,0.0,0.0,0.0,0.0,0.0,0.0,0.0,0.5679,0.7322,0.8603,0.899,0.733,1.2139,1.7382,0.0,1.8684,1.8759,2.3138,0.0,0.0,0.0,0.0,2.4532,2.4172,3.0783,3.8014,4.4079,4.9849,5.519,6.0178,6.3251,6.7177,7.2652,7.4909,7.6508,7.7471,7.6686,7.3632,0.0,0.0,0.0,0.0,0.0,0.0,0.0,0.0,0.0,0.0,0.0,0.0,0.0,0.0,0.0,0.0,0.0,0.0,0.0,0.0,0.0,0.0,0.0,0.0,0.0,0.0,0.0,0.0,0.0,-2.2391,-2.9947,0.0,0.0,0.0,0.0,0.0,0.0,0.0,0.0,0.0,0.0,0.0,0.0,0.0,-6.4493,-6.5994,-7.1232,-7.4439,-7.5516,-8.1169,-8.4001,-8.4494,-8.6115,-8.6272,-8.4861,-7.9147,0.0,-7.1024,-6.7466,0.0,0.0,0.0,0.0,0.0,0.0,0.0,0.0,0.0,0.0,0.0,0.0,0.0,0.0,0.0,0.0,0.0,0.0,0.0,0.0,0.0,0.0,1.0554,0.9221,0.9845,1.0406,0.0,1.9082,2.7236,2.4881,2.4697,0.0,0.0,0.0,0.0,0.0,0.0,0.0,2.6561,3.1253,3.6508,4.1663,4.7726,5.3037,5.7113,6.1508,6.5764,6.9831,7.3171,7.3827,7.1402,7.3614,0.0,0.0,0.0,0.0,0.0,0.0,0.0,0.0,0.0,0.0,0.0,0.0,0.0,0.0,0.0,0.0,0.0,0.0,0.0,0.0,0.0,0.0,0.0,0.0,0.0,0.0,0.0,0.0,0.0,0.0,0.0,0.0,0.0,0.0,0.0,0.0,0.0,0.0,0.0,0.0,0.0,0.0,0.0,0.0,0.0,0.0,0.0,0.0,0.0,0.0,-7.0234,-7.2042,-7.2273,-7.312,-7.3399,-7.2906,-6.791,-6.6564,-6.7301,-5.989,0.0,0.0,0.0,0.0,0.0,0.0,0.0,0.0,0.0,0.0,0.0,0.0,0.0,0.0,0.0,0.0,0.0,0.0,0.0,0.0,0.0,0.0,0.0,0.0,1.899,2.0983,2.1718,0.0,0.0,0.0,0.0,0.0,0.0,0.0,0.0,0.0,0.0,0.0,2.5236,3.1512,3.6788,3.7148,4.7202,5.515,5.8642,6.2766,6.7348,7.2479,6.9992,6.8671,0.0,0.0,0.0,0.0,0.0,0.0,0.0,0.0,0.0,0.0,0.0,0.0,0.0,0.0,0.0,0.0,0.0,0.0,0.0,0.0,0.0,0.0,0.0,0.0,0.0,0.0,0.0,0.0,0.0,0.0,0.0,0.0,0.0,0.0,0.0,0.0,0.0,0.0,0.0,0.0,0.0,0.0,0.0,0.0,0.0,0.0,0.0,0.0,0.0,0.0,0.0,0.0,0.0,0.0,0.0,0.0,0.0,0.0,0.0,-5.5211,0.0,0.0,0.0,0.0,0.0,0.0,0.0,0.0,0.0,0.0,0.0,0.0,0.0,0.0,0.0,0.0,0.0,0.0,0.0,0.0,0.0,0.0,0.0,0.0,0.0,0.0,0.0,0.0,0.0,0.0,0.0,0.0,0.0,0.0,0.0,0.0,0.0,0.0,0.0,0.0,3.1866,3.4573,3.7461,3.9117,4.7256,5.4014,5.7453,6.1897,6.5534,6.7977,6.7306,0.0,0.0,0.0,0.0,0.0,0.0,0.0,0.0,0.0,0.0,0.0,0.0,0.0,0.0,0.0,0.0,0.0,0.0,0.0,0.0,0.0,0.0,0.0,0.0,0.0,0.0,0.0,0.0,0.0,0.0,0.0,0.0,0.0,0.0,0.0,0.0,0.0,0.0,0.0,0.0,0.0,0.0,0.0,0.0,0.0,0.0,0.0,0.0,0.0,0.0,0.0,0.0,0.0,0.0,0.0,0.0,0.0,0.0,0.0,-4.8535,0.0,0.0,0.0,0.0,0.0,0.0,0.0,0.0,0.0,0.0,0.0,0.0,0.0,0.0,0.0,0.0,0.0,0.0,0.0,0.0,0.0,0.0,0.0,0.0,0.0,0.0,0.0,0.0,0.0,0.0,0.0,0.0,0.0,0.0,0.0,0.0,0.0,0.0,0.0,0.0,0.0,3.9037,3.8377,3.9034,4.1993,4.7959,5.291,5.6071,6.1179,6.3987,6.3173,6.414,0.0,0.0,0.0,0.0,0.0,0.0,0.0,0.0,0.0,0.0,0.0,0.0,0.0,0.0,0.0,0.0,0.0,0.0,0.0,0.0,0.0,0.0,0.0,0.0,0.0,0.0,0.0,0.0,0.0,0.0,0.0,0.0,0.0,0.0,0.0,0.0,0.0,0.0,0.0,0.0,0.0,0.0,0.0,0.0,0.0,0.0,0.0,0.0,0.0,0.0,0.0,0.0,0.0,0.0,0.0,0.0,0.0,0.0,0.0,0.0,0.0,0.0,0.0,0.0,0.0,0.0,0.0,0.0,0.0,0.0,0.0,0.0,0.0,0.0,0.0,0.0,0.0,0.0,0.0,0.0,0.0,0.0,0.0,0.0,0.0,0.0,0.0,0.0,0.0,0.0,0.0,0.0,0.0,0.0,0.0,0.0,0.0,0.0,0.0,0.0,0.0,4.1434,4.1613,4.1986,4.2349,4.9253,5.4511,5.6048,6.2566,6.551,6.3179,0.0,0.0,0.0,0.0,0.0,0.0,0.0,0.0,0.0,0.0,0.0,0.0,0.0,0.0,0.0,0.0,0.0,0.0,0.0,0.0,0.0,0.0,0.0,0.0,0.0,0.0,0.0,0.0,0.0,0.0,0.0,0.0,0.0,0.0,0.0,0.0,0.0,0.0,0.0,0.0,0.0,0.0,0.0,0.0,0.0,0.0,0.0,0.0,0.0,0.0,0.0,0.0,0.0,0.0,0.0,0.0,0.0,0.0,0.0,0.0,0.0,0.0,0.0,0.0,0.0,0.0,0.0,0.0,0.0,0.0,0.0,0.0,0.0,0.0,0.0,0.0,0.0,0.0,0.0,0.0,0.0,0.0,0.0,0.0,0.0,0.0,0.0,0.0,0.0,0.0,0.0,0.0,0.0,0.0,0.0,0.0,0.0,0.0,0.0,0.0,0.0,0.0,4.4672,4.3526,4.3181,4.4773,4.9608,5.3996,5.6965,6.2651,6.4498,6.0738,0.0,0.0,0.0,0.0,0.0,0.0,0.0,0.0,0.0,0.0,0.0,0.0,0.0,0.0,0.0,0.0,0.0,0.0,0.0,0.0,0.0,0.0,0.0,0.0,0.0,0.0,0.0,0.0,0.0,0.0,0.0,0.0,0.0,0.0,0.0,0.0,0.0,0.0,0.0,0.0,0.0,0.0,0.0,0.0,0.0,0.0,0.0,0.0,0.0,0.0,0.0,0.0,0.0,0.0,0.0,0.0,0.0,0.0,0.0,0.0,0.0,0.0,0.0,0.0,0.0,0.0,0.0,0.0,0.0,0.0,0.0,0.0,0.0,0.0,0.0,0.0,0.0,0.0,0.0,0.0,0.0,0.0,0.0,0.0,0.0,0.0,0.0,0.0,0.0,0.0,0.0,0.0,0.0,0.0,0.0,0.0,0.0,0.0,0.0,0.0,0.0,0.0,4.7739,4.6408,4.6098,4.8484,5.1141,5.4261,5.8025,6.2812,6.3488,5.851,0.0,0.0,0.0,0.0,0.0,0.0,0.0,0.0,0.0,0.0,0.0,0.0,0.0,0.0,0.0,0.0,0.0,0.0,0.0,0.0,0.0,0.0,0.0,0.0,0.0,0.0,0.0,0.0,0.0,0.0,0.0,0.0,0.0,0.0,0.0,0.0,0.0,0.0,0.0,0.0,0.0,0.0,0.0,0.0,0.0,0.0,0.0,0.0,0.0,0.0,0.0,0.0,0.0,0.0,0.0,0.0,0.0,0.0,0.0,0.0,0.0,0.0,0.0,0.0,0.0,0.0,0.0,0.0,0.0,0.0,0.0,0.0,0.0,0.0,0.0,0.0,0.0,0.0,0.0,0.0,0.0,0.0,0.0,0.0,0.0,0.0,0.0,0.0,0.0,0.0,0.0,0.0,0.0,0.0,0.0,0.0,0.0,0.0,0.0,0.0,0.0,0.0,5.0368,5.0853,5.1697,5.3412,5.4538,5.6306,5.9244,6.3329,6.307,0.0,0.0,0.0,0.0,0.0,0.0,0.0,0.0,0.0,0.0,0.0,0.0,0.0,0.0,0.0,0.0,0.0,0.0,0.0,0.0,0.0,0.0,0.0,0.0,0.0,0.0,0.0,0.0,0.0,0.0,0.0,0.0,0.0,0.0,0.0,0.0,0.0,0.0,0.0,0.0,0.0,0.0,0.0,0.0,0.0,0.0,0.0,0.0,0.0,0.0,0.0,0.0,0.0,0.0,0.0,0.0,0.0,0.0,0.0,0.0,0.0,0.0,0.0,0.0,0.0,0.0,0.0,0.0,0.0,0.0,0.0,0.0,0.0,0.0,0.0,0.0,0.0,0.0,0.0,0.0,0.0,0.0,0.0,0.0,0.0,0.0,0.0,0.0,0.0,0.0,0.0,0.0,0.0,0.0,0.0,0.0,0.0,0.0,0.0,0.0,0.0,0.0,0.0,4.9632,5.1885,5.3342,0.0,5.3713,5.555,5.8081,6.2372,6.2495,5.6829,0.0,0.0,0.0,0.0,0.0,0.0,0.0,0.0,0.0,0.0,0.0,0.0,0.0,0.0,0.0,0.0,0.0,0.0,0.0,0.0,0.0,0.0,0.0,0.0,0.0,0.0,0.0,0.0,0.0,0.0,0.0,0.0,0.0,0.0,0.0,0.0,0.0,0.0,0.0,0.0,0.0,0.0,0.0,0.0,0.0,0.0,0.0,0.0,0.0,0.0,0.0,0.0,0.0,0.0,0.0,0.0,0.0,0.0,0.0,0.0,0.0,0.0,0.0,0.0,0.0,0.0,0.0,0.0,0.0,0.0,0.0,0.0,0.0,0.0,0.0,0.0,0.0,0.0,0.0,0.0,0.0,0.0,0.0,0.0,0.0,0.0,0.0,0.0,0.0,0.0,0.0,0.0,0.0,0.0,0.0,0.0,0.0,0.0,0.0,0.0,0.0,0.0,0.0,5.3525,5.5417,0.0,5.6626,5.7911,6.1,6.391,6.3175,5.7591,0.0,0.0,0.0,0.0,0.0,0.0,0.0,0.0,0.0,0.0,0.0,0.0,0.0,0.0,0.0,0.0,0.0,0.0,0.0,0.0,0.0,0.0,0.0,0.0,0.0,0.0,0.0,0.0,0.0,0.0,0.0,0.0,0.0,0.0,0.0,0.0,0.0,0.0,0.0,0.0,0.0,0.0,0.0,0.0,0.0,0.0,0.0,0.0,0.0,0.0,0.0,0.0,0.0,0.0,0.0,0.0,0.0,0.0,0.0,0.0,0.0,0.0,0.0,0.0,0.0,0.0,0.0,0.0,0.0,0.0,0.0,0.0,0.0,0.0,0.0,0.0,0.0,0.0,0.0,0.0,0.0,0.0,0.0,0.0,0.0,0.0,0.0,0.0,0.0,0.0,0.0,0.0,0.0,0.0,0.0,0.0,0.0,0.0,0.0,0.0,0.0,0.0,0.0,5.5947,5.8327,6.3778,6.2183,6.2447,6.6552,6.6958,6.4578,5.886,5.531,0.0,0.0,0.0,0.0,0.0,0.0,0.0,0.0,0.0,0.0,0.0,0.0,0.0,0.0,0.0,0.0,0.0,0.0,0.0,0.0,0.0,0.0,0.0,0.0,0.0,0.0,0.0,0.0,0.0,0.0,0.0,0.0,0.0,0.0,0.0,0.0,0.0,0.0,0.0,0.0,0.0,0.0,0.0,0.0,0.0,0.0,0.0,0.0,0.0,0.0,0.0,0.0,0.0,0.0,0.0,0.0,0.0,0.0,0.0,0.0,0.0,0.0,0.0,0.0,0.0,0.0,0.0,0.0,0.0,0.0,0.0,0.0,0.0,0.0,0.0,0.0,0.0,0.0,0.0,0.0,0.0,0.0,0.0,0.0,0.0,0.0,0.0,0.0,0.0,0.0,0.0,0.0,0.0,0.0,0.0,0.0,0.0,0.0,0.0,0.0,0.0,0.0,6.0517,6.4208,6.4318,6.2753,6.2642,6.4935,6.5058,6.262,5.6862,5.449,0.0,0.0,0.0,0.0,0.0,0.0,0.0,0.0,0.0,0.0,0.0,0.0,0.0,0.0,0.0,0.0,0.0,0.0,0.0,0.0,0.0,0.0,0.0,0.0,0.0,0.0,0.0,0.0,0.0,0.0,0.0,0.0,0.0,0.0,0.0,0.0,0.0,0.0,0.0,0.0,0.0,0.0,0.0,0.0,0.0,0.0,0.0,0.0,0.0,0.0,0.0,0.0,0.0,0.0,0.0,0.0,0.0,0.0,0.0,0.0,0.0,0.0,0.0,0.0,0.0,0.0,0.0,0.0,0.0,0.0,0.0,0.0,0.0,0.0,0.0,0.0,0.0,0.0,0.0,0.0,0.0,0.0,0.0,0.0,0.0,0.0,0.0,0.0,0.0,0.0,0.0,0.0,0.0,0.0,0.0,0.0,0.0,0.0,0.0,0.0,0.0,0.0,5.7386,6.3476,6.5452,6.4084,6.3402,6.4453,6.5813,6.3481,5.6276,5.2671,0.0,0.0,0.0,0.0,0.0,0.0,0.0,0.0,0.0,0.0,0.0,0.0,0.0,0.0,0.0,0.0,0.0,0.0,0.0,0.0,0.0,0.0,0.0,0.0,0.0,0.0,0.0,0.0,0.0,0.0,0.0,0.0,0.0,0.0,0.0,0.0,0.0,0.0,0.0,0.0,0.0,0.0,0.0,0.0,0.0,0.0,0.0,0.0,0.0,0.0,0.0,0.0,0.0,0.0,0.0,0.0,0.0,0.0,0.0,0.0,0.0,0.0,0.0,0.0,0.0,0.0,0.0,0.0,0.0,0.0,0.0,0.0,0.0,0.0,0.0,0.0,0.0,0.0,0.0,0.0,0.0,0.0,0.0,0.0,0.0,0.0,0.0,0.0,0.0,0.0,0.0,0.0,0.0,0.0,0.0,0.0,0.0,0.0,0.0,0.0,0.0,0.0,0.0,5.948,6.5997,6.5379,6.4687,6.517,6.7283,6.5022,5.6627,0.0,0.0,0.0,0.0,0.0,0.0,0.0,0.0,0.0,0.0,0.0,0.0,0.0,0.0,0.0,0.0,0.0,0.0,0.0,0.0,0.0,0.0,0.0,0.0,0.0,0.0,0.0,0.0,0.0,0.0,0.0,0.0,0.0,0.0,0.0,0.0,0.0,0.0,0.0,0.0,0.0,0.0,0.0,0.0,0.0,0.0,0.0,0.0,0.0,0.0,0.0,0.0,0.0,0.0,0.0,0.0,0.0,0.0,0.0,0.0,0.0,0.0,0.0,0.0,0.0,0.0,0.0,0.0,0.0,0.0,0.0,0.0,0.0,0.0,0.0,0.0,0.0,0.0,0.0,0.0,0.0,0.0,0.0,0.0,0.0,0.0,0.0,0.0,0.0,0.0,0.0,0.0,0.0,0.0,0.0,0.0,0.0,0.0,0.0,0.0,0.0,0.0,0.0,0.0,0.0,6.3222,6.5156,6.66,6.8368,6.682,6.345,5.8107,0.0,0.0,0.0,0.0,0.0,0.0,0.0,0.0,0.0,0.0,0.0,0.0,0.0,0.0]}],[{"header":{"parameterUnit":"kt","parameterCategory":2,"dx":1,"dy":1,"la1":29.285339999999998,"la2":30.599998999999997,"lo1":-89.70041500000002,"lo2":-87.6738589999976,"nx":112,"ny":82,"refTime":"2022-10-09T12:00:00:Z","depth":0,"parameterNumber":2,"parameterNumberName":"V-component_of_WINDS"},"data":[10.3309,10.5668,0.0,9.9567,9.6295,0.0,8.4787,0.0,0.0,0.0,0.0,0.0,0.0,0.0,0.0,0.0,0.0,0.0,0.0,5.5945,0.0,0.0,0.0,0.0,0.0,0.0,0.0,0.0,0.0,0.0,0.0,0.0,9.4718,9.5197,10.118,10.3813,10.2497,10.3399,10.4113,10.459,10.5532,10.6689,10.8059,10.7237,10.7437,10.8481,10.7155,10.661,10.6808,10.6412,10.6475,10.6818,10.6616,10.6721,10.7218,10.8108,10.9228,11.0523,11.1664,11.2917,11.382,11.413,11.4458,11.4879,11.4879,11.4879,11.4763,11.4088,11.432,11.4763,11.4088,11.432,11.4705,11.389,11.3309,11.223,10.9879,10.8866,10.777,10.498,10.3736,10.2969,10.1929,10.1089,10.0665,10.0665,10.0665,10.0665,10.0665,10.0665,10.0665,10.0665,10.0665,10.0877,10.151,10.1895,10.1703,10.0659,10.047,9.9851,9.8955,9.8051,9.7527,9.7176,9.6555,9.62,9.5858,9.5517,9.537,9.537,9.4873,9.3454,0.0,0.0,9.7464,9.1188,0.0,0.0,0.0,0.0,0.0,0.0,0.0,0.0,0.0,0.0,0.0,0.0,0.0,0.0,0.0,0.0,0.0,0.0,0.0,0.0,0.0,0.0,0.0,0.0,0.0,0.0,0.0,9.1629,9.7529,9.783,10.1719,10.3334,10.2437,10.3334,10.3993,10.4411,10.5309,10.6678,10.8558,10.7727,10.7988,10.9271,10.8139,10.7339,10.6808,10.6552,10.6475,10.6265,10.6265,10.7063,10.7994,10.8279,10.9132,11.0269,11.1379,11.2188,11.2973,11.2553,11.2763,11.2973,11.2973,11.2973,11.2973,11.2973,11.2973,11.3299,11.3704,11.403,11.3798,11.3192,11.296,11.2056,10.93,10.8577,10.777,10.498,10.394,10.2969,10.1874,10.1089,10.0665,10.0665,10.0665,10.0665,10.0665,10.0665,10.0665,10.0665,10.0665,10.0665,10.0186,10.0611,10.0246,9.8688,9.8436,9.8102,9.7542,9.7244,9.7126,9.7126,9.6457,9.5609,9.5359,9.4291,9.3704,9.3498,9.3268,9.1834,0.0,0.0,0.0,7.703,0.0,0.0,0.0,0.0,6.1386,0.0,0.0,0.0,0.0,0.0,0.0,0.0,0.0,0.0,0.0,0.0,0.0,0.0,0.0,0.0,0.0,0.0,0.0,0.0,0.0,0.0,9.4725,9.9849,10.3307,10.4292,10.3155,10.2437,10.2437,10.2437,10.3095,10.4352,10.4352,10.5728,10.8181,10.8181,10.8773,10.9579,10.8947,10.7924,10.6412,10.5758,10.5012,10.4109,10.4109,10.5311,10.6707,10.7445,10.7747,10.7721,10.8483,10.9,10.9397,10.9397,10.9397,10.9397,10.9397,10.9397,10.9397,10.9397,10.9397,10.9892,11.1724,11.2013,11.2221,11.2695,11.2902,11.1792,10.8284,10.7506,10.6493,10.2929,10.2291,10.1874,10.0877,10.0665,10.0665,10.0665,10.0665,10.0665,10.0665,10.0665,10.0665,10.0665,10.0665,9.9973,9.8197,9.798,9.6865,9.3854,9.2922,9.2397,9.2445,9.3954,9.4736,9.4736,9.4736,9.4242,9.3001,9.1946,9.1157,9.0803,8.9819,8.8871,7.8209,0.0,0.0,0.0,0.0,0.0,0.0,0.0,0.0,0.0,0.0,0.0,0.0,0.0,0.0,0.0,0.0,5.7344,0.0,0.0,0.0,0.0,0.0,0.0,0.0,0.0,0.0,0.0,0.0,9.1839,9.1839,9.8613,10.2718,10.2975,10.2676,10.2437,10.2437,10.2437,10.2616,10.2975,10.2975,10.4352,10.6865,10.6865,10.8181,11.0147,10.9898,10.9138,10.7924,10.7924,10.7271,10.6584,10.6584,10.6607,10.6743,10.6406,10.735,10.841,10.8677,10.841,10.8353,10.8772,10.919,10.9397,10.9397,10.9397,10.9397,10.9397,10.9397,10.9455,11.0006,11.0536,11.0685,11.0949,11.1301,11.1098,10.9126,10.8778,10.7971,10.5183,10.394,10.3176,10.2083,10.1299,10.0665,10.0665,10.0665,10.0665,10.0665,10.0665,10.0665,10.0665,10.0665,10.0453,10.0027,10.0186,10.0135,9.9276,9.7463,9.5276,9.3125,9.3418,9.3564,9.3564,9.3564,9.3321,9.3077,9.2057,9.0945,8.9921,8.67,8.5593,0.0,0.0,0.0,0.0,0.0,0.0,6.7032,0.0,6.1597,0.0,0.0,0.0,0.0,0.0,0.0,0.0,5.8935,0.0,0.0,0.0,0.0,0.0,0.0,0.0,0.0,0.0,0.0,0.0,9.5367,9.6257,9.499,9.9728,10.2529,10.2437,10.2437,10.2437,10.2437,10.2437,10.2437,10.2437,10.2437,10.3574,10.5608,10.6147,10.7523,10.9497,11.0096,10.9709,10.8696,10.8696,10.8001,10.6704,10.7108,10.7108,10.6906,10.6094,10.6402,10.7177,10.6821,10.6406,10.6141,10.6614,10.7028,10.7177,10.7177,10.7177,10.7177,10.7177,10.7177,10.7348,10.8068,10.8595,10.921,10.9415,10.9821,10.9877,10.7999,10.7366,10.6475,10.4461,10.3325,10.2555,10.2291,10.151,10.0665,10.0665,10.0665,10.0665,10.0665,10.0665,10.0665,10.0665,10.0665,9.9759,9.7762,9.7926,9.7272,9.5455,9.4045,9.2672,9.1568,9.2006,9.2491,9.2491,9.2491,9.2009,9.0749,8.9742,8.8976,8.8207,8.5778,8.4415,0.0,0.0,0.0,0.0,5.9944,0.0,0.0,0.0,0.0,0.0,0.0,0.0,0.0,0.0,0.0,0.0,0.0,0.0,0.0,0.0,0.0,0.0,0.0,0.0,0.0,9.3621,9.8109,9.9743,10.3099,10.3878,10.1468,10.2381,10.2804,10.2725,10.2611,10.2437,10.2437,10.2437,10.2437,10.2437,10.2437,10.3095,10.4232,10.5728,10.6984,10.8121,10.9677,10.9709,10.8696,10.8696,10.7534,10.5758,10.675,10.6947,10.675,10.5758,10.5357,10.5156,10.4404,10.3997,10.3997,10.3997,10.3997,10.3997,10.3997,10.3997,10.3997,10.3997,10.3997,10.4483,10.6175,10.7073,10.7538,10.7885,10.8546,10.8456,10.6245,10.5012,10.3997,10.2913,10.1665,10.1299,10.1874,10.1299,10.0665,10.0665,10.0665,10.0665,10.0665,10.0665,10.0665,10.0665,10.0665,9.89,9.4614,9.4164,9.2348,8.8494,8.783,8.8305,8.9249,9.0692,9.1466,9.1466,9.1466,9.0223,8.7953,8.706,8.635,8.5628,8.5628,8.4462,0.0,0.0,0.0,0.0,0.0,6.0213,0.0,0.0,0.0,0.0,0.0,0.0,0.0,0.0,0.0,0.0,0.0,0.0,0.0,0.0,0.0,0.0,0.0,0.0,0.0,10.4344,10.394,10.2846,10.3234,10.3565,10.3628,10.3628,10.3937,10.4421,10.3071,10.2437,10.2437,10.2437,10.2437,10.2437,10.2437,10.2616,10.2916,10.5309,10.6506,10.6865,10.9258,10.9709,10.8696,10.8696,10.7924,10.675,10.6947,10.6552,10.5758,10.4607,10.4201,10.4201,10.4053,10.3997,10.3997,10.3997,10.3997,10.3997,10.3997,10.3997,10.3997,10.4607,10.4607,10.481,10.5643,10.616,10.6675,10.6874,10.7271,10.7608,10.7121,10.6866,10.6214,10.5156,10.4201,10.2762,10.1299,10.0877,10.0665,10.0665,10.0665,10.0665,10.0665,10.0665,10.0665,10.0665,10.0665,10.024,9.933,9.798,9.6834,9.5951,9.2982,9.166,9.189,9.0849,9.0343,9.0343,9.0343,9.0108,8.9588,8.9394,8.7116,8.2995,8.2995,8.2794,0.0,0.0,0.0,5.8126,0.0,0.0,0.0,0.0,6.8061,7.2269,7.5654,7.8082,7.9452,7.989,7.9981,7.9981,0.0,0.0,0.0,0.0,0.0,0.0,0.0,0.0,10.791,10.7182,10.6228,10.5357,10.4687,10.4558,10.4833,10.5283,10.6066,10.7204,10.6112,10.5583,10.5583,10.4314,10.3697,10.3697,10.2785,10.2437,10.2557,10.4531,10.5788,10.6506,10.848,10.949,10.9519,10.9519,10.9138,10.8755,10.8117,10.7534,10.6947,10.5357,10.481,10.481,10.4201,10.3997,10.3997,10.3997,10.3997,10.3997,10.3997,10.3997,10.4053,10.4201,10.4607,10.4753,10.5156,10.5872,10.6528,10.6528,10.6866,10.7259,10.7259,10.6866,10.6015,10.5012,10.3997,10.2555,10.0877,10.0665,10.0665,10.0665,10.0665,10.0665,10.0665,10.0665,10.024,9.9061,9.8846,9.7926,9.5455,9.4338,9.3436,9.2577,9.0737,8.9855,9.0321,8.9718,8.9297,8.8542,8.8305,8.783,8.7116,8.783,8.6397,8.324,8.324,8.2749,0.0,0.0,0.0,0.0,0.0,0.0,6.17,6.4408,6.8061,0.0,7.7717,8.1276,8.6424,8.829,8.8935,8.8935,8.9543,0.0,0.0,0.0,0.0,0.0,0.0,0.0,10.742,10.7149,10.7082,10.742,10.656,10.6004,10.609,10.6772,10.791,10.9508,10.8652,10.8232,10.8331,10.6747,10.5789,10.5789,10.4572,10.3778,10.3838,10.4577,10.5605,10.6928,10.7886,10.9019,11.0335,11.0335,11.0335,11.0335,10.9138,10.8504,10.8117,10.6354,10.5357,10.5156,10.4201,10.3997,10.3997,10.3997,10.3997,10.3997,10.3997,10.3997,10.3997,10.3997,10.4404,10.481,10.5012,10.5872,10.6528,10.6726,10.6924,10.7259,10.7259,10.6412,10.5156,10.4201,10.2969,10.1874,10.0877,10.0665,10.0665,10.0665,10.0665,10.0665,10.0665,10.0665,9.9973,9.7926,9.7272,9.5455,9.166,9.0272,8.9201,8.783,8.7402,8.764,8.8116,8.8826,8.8778,8.7545,8.6829,8.5869,8.4462,8.5145,8.4902,8.373,8.373,8.324,5.3417,5.4104,5.5378,5.6987,0.0,0.0,6.1483,7.1014,8.0142,0.0,9.2224,9.954,9.6386,9.6136,9.6422,9.6422,9.6448,9.867,0.0,0.0,0.0,0.0,0.0,0.0,10.9082,10.8114,10.7842,10.9269,10.825,10.7894,10.8582,10.7317,10.7383,10.8941,10.7331,10.6908,10.7613,10.8714,10.912,10.912,10.8859,10.8859,10.8796,10.7332,10.7344,10.8517,10.8372,10.9019,11.0335,11.0335,11.0335,11.0335,10.9138,10.8117,10.7143,10.5957,10.4955,10.4201,10.3997,10.3997,10.3997,10.3997,10.3997,10.3997,10.3997,10.3997,10.3997,10.3997,10.4404,10.5012,10.6072,10.6528,10.6726,10.7121,10.7259,10.7259,10.7259,10.6412,10.5156,10.4201,10.2969,10.1874,10.0877,10.0665,10.0665,10.0665,10.0665,10.0665,10.0665,10.0665,10.0665,10.024,9.8414,9.6781,9.612,9.2298,8.9855,9.0321,8.8778,8.8353,8.8826,8.9532,8.9767,8.9767,8.8542,8.7307,8.5869,8.373,8.2547,8.2547,8.2547,8.23,5.3742,5.4408,5.5579,5.7118,0.0,0.0,6.3052,7.0856,7.8214,0.0,9.1026,9.962,9.8493,10.1208,10.3584,10.3584,10.3742,10.4626,10.7143,0.0,0.0,0.0,0.0,0.0,0.0,10.7638,10.7687,10.8552,10.4919,10.4374,10.8114,10.8519,10.9255,11.0828,10.9711,10.9301,10.9685,10.8572,10.8399,10.9233,10.7767,10.7581,10.8337,10.6552,10.6519,10.7699,10.7228,10.7882,10.9079,10.8361,10.8061,10.7817,10.6829,10.6076,10.5697,10.4548,10.3633,10.2763,10.3445,10.3328,10.3037,10.3771,10.3997,10.3997,10.3997,10.3997,10.3997,10.3997,10.4201,10.4404,10.5213,10.6072,10.6528,10.6726,10.7121,10.7259,10.7259,10.6412,10.5156,10.4201,10.2555,10.1299,10.0665,10.0665,10.0665,10.0665,10.0665,10.0665,10.0665,10.0665,9.9545,9.6834,9.5507,9.3888,9.0968,8.8917,8.7783,8.802,8.7354,8.7163,8.7878,8.783,8.7593,8.7116,8.635,8.5145,8.373,8.3485,8.2995,8.23,8.23,8.23,5.413,0.0,0.0,0.0,0.0,0.0,6.4284,0.0,7.8253,8.0531,9.1261,10.0403,10.1356,10.5006,10.8012,10.824,10.8353,10.8284,10.8284,10.7944,10.7531,0.0,0.0,0.0,0.0,0.0,0.0,0.0,10.4076,10.3325,10.751,10.8853,11.0032,11.1413,11.0929,11.0696,11.0852,10.918,10.8817,10.9867,10.8006,10.7327,10.7823,10.5562,10.5048,10.5737,10.536,10.5608,10.6087,10.5548,10.5309,10.5189,10.4761,10.427,10.3774,10.3435,10.241,10.1617,10.2473,10.2223,10.1852,10.2699,10.2981,10.2981,10.2981,10.2981,10.2981,10.2981,10.2981,10.2981,10.3385,10.4671,10.5868,10.661,10.7121,10.7259,10.7259,10.5637,10.3929,10.3183,10.1141,9.9682,9.9682,9.9682,9.9682,9.9682,9.9682,9.9682,9.9682,9.9207,9.7452,9.391,9.2297,9.0078,8.669,8.5791,8.5455,8.5975,8.6022,8.6355,8.7402,8.7116,8.6637,8.6156,8.5628,8.466,8.324,8.2942,8.2427,8.1497,8.1497,8.1497,0.0,0.0,0.0,5.7653,5.9876,6.2509,6.4485,7.5238,8.533,8.7014,9.8174,10.7602,10.7671,10.7921,10.8397,10.913,10.862,10.8284,10.8284,10.8284,10.8284,10.8284,10.8509,10.9058,11.034,10.9175,10.8559,10.9592,10.8348,10.7578,10.7299,10.7783,10.8299,10.9196,10.9074,10.9503,11.0219,11.1564,11.217,11.2237,11.1506,11.035,10.8811,10.5179,10.3316,10.314,10.2761,10.1898,10.0821,10.2078,10.2557,10.2676,10.3993,10.3213,10.1675,10.2897,10.2026,10.0329,10.0385,10.0385,10.0385,10.0442,10.0442,10.0442,10.0442,10.0442,10.0442,10.0442,10.0442,10.0442,10.0442,10.2137,10.4577,10.6773,10.7259,10.7259,10.7259,10.3724,10.0329,10.0329,9.8792,9.7224,9.7224,9.7224,9.7224,9.7224,9.7224,9.7224,9.7224,9.5201,9.3889,9.3677,8.9527,8.6859,8.6634,8.4503,8.3865,8.5508,8.5556,8.6264,8.8068,8.859,8.8826,8.8826,8.8305,8.7307,8.611,8.1538,7.9444,7.9444,7.9444,7.9444,6.1834,6.1088,6.12,7.0884,6.8584,6.6905,7.8149,8.3874,8.7655,9.043,10.0582,10.7818,10.3746,10.6299,10.9278,10.9385,10.9278,10.9169,10.9169,10.902,10.891,10.891,10.862,10.8715,10.9195,10.8514,10.8217,10.8696,10.4596,0.0,10.751,10.3965,10.3897,10.8163,10.8299,10.8386,10.8624,10.8736,10.9234,11.012,10.9103,10.8782,10.9103,10.5263,10.3372,10.3253,10.1817,9.9924,9.8009,9.9326,9.9864,9.9864,10.0343,10.0179,9.9604,10.0907,10.0126,9.8709,10.0377,10.0247,9.9257,10.0047,10.0329,10.0329,10.0329,10.0329,10.0329,10.0329,10.0329,10.0329,10.0722,10.1398,10.244,10.3814,10.4508,10.47,10.47,10.1821,9.9282,9.9282,9.8077,9.7115,9.7115,9.7115,9.7115,9.7115,9.5771,9.4886,9.4886,9.2936,9.0786,8.9206,8.7656,8.6134,8.4408,8.3534,8.349,8.4516,8.4563,8.4705,8.5269,8.4802,8.41,8.3865,8.292,8.2446,8.292,8.2015,8.1298,8.0336,8.1006,8.0961,6.5734,6.5532,6.6002,7.8072,7.5034,7.2352,8.5201,8.8128,8.9536,9.4149,10.282,10.8315,10.4364,10.7203,10.9951,10.9705,10.9599,10.9599,10.9705,10.9599,10.9493,10.9599,10.9169,10.8951,10.9061,10.862,10.8353,10.8058,10.4391,10.3803,10.751,10.4101,10.376,10.7761,10.7898,10.7898,10.7898,10.7551,10.7793,10.8624,10.7584,10.7174,10.7193,10.433,10.2364,10.0916,9.9209,9.7411,9.5915,9.6753,9.7112,9.7171,9.765,9.7663,9.7446,9.8414,9.7846,9.6661,9.7915,9.7849,9.7225,9.7564,9.7959,9.8297,9.8297,9.8297,9.841,9.8862,9.8975,9.9169,9.9556,10.0283,10.101,10.1776,10.2693,10.2897,10.1025,9.882,9.7043,9.6656,9.5876,9.4945,9.4747,9.4548,9.4548,9.4548,9.3614,9.2854,9.248,9.0368,8.8179,8.5865,8.4753,8.3576,8.1709,8.1809,8.2412,8.3017,8.2459,8.2323,8.3256,8.2003,8.1259,8.1626,8.0968,8.0187,7.891,7.9952,8.0214,7.9265,7.989,7.9845,6.6162,6.8903,7.1451,8.0252,7.9756,7.8989,8.655,8.909,9.181,9.8776,10.5093,10.9455,10.9455,11.0294,11.0728,10.9951,10.9705,10.9811,11.0125,11.0125,11.0125,11.0434,11.0229,10.9916,10.9705,10.9455,10.891,10.8012,10.7898,10.7715,10.7415,10.7415,10.7531,10.7898,10.7898,10.7898,10.7898,10.7898,10.7898,10.7898,10.7132,10.5794,10.37,10.2843,10.0504,9.7089,9.5437,9.464,9.464,9.4479,9.4479,9.4658,9.5975,9.5792,9.5014,9.545,9.4864,9.4032,9.3188,9.3614,9.4404,9.3275,9.367,9.463,9.463,9.463,9.4855,9.6097,9.6435,9.6681,9.736,9.878,10.0074,10.0451,10.1824,10.1792,9.7014,9.5028,9.4024,9.288,9.1963,9.1089,9.0149,9.0014,9.0014,8.977,9.0751,9.0831,8.9743,8.7555,8.5347,8.3274,8.1238,7.9518,7.8537,7.9378,8.036,8.1295,7.9505,7.942,8.1817,8.0431,8.0339,8.177,8.2327,8.0293,7.507,7.6007,7.6498,7.6498,7.6543,7.6543,7.316,7.4329,7.5425,9.3975,9.1814,8.836,10.1022,10.0915,10.0436,0.0,11.0727,11.1316,11.1122,11.1696,11.216,11.1927,11.1341,11.0926,11.1095,11.0669,11.0332,11.0125,11.0021,11.0021,10.9916,10.9562,10.913,10.891,10.862,10.8397,10.8058,10.8058,10.7944,10.7898,10.7898,10.7898,10.7898,10.7898,10.7898,10.7898,10.6657,10.5928,10.5241,10.176,10.0283,10.0346,9.8832,9.7485,9.6162,9.496,9.4479,9.4377,9.4247,9.4038,9.3718,9.4107,9.3711,9.3008,9.3746,9.3777,9.3275,9.2993,9.3106,9.3332,9.3332,9.3332,9.3798,9.5356,9.5696,9.6109,9.7949,9.8203,9.8156,9.9448,9.8694,9.7593,9.7255,9.5176,9.2763,9.1012,9.0526,9.0338,9.0014,9.0014,8.9389,8.7936,8.6335,8.4792,8.3072,8.0889,7.918,7.8654,7.8061,7.7648,7.7415,7.8739,7.9068,7.8116,7.8317,7.7841,7.6502,7.6007,7.5562,7.5161,7.705,7.7456,7.6052,7.7495,7.8176,7.8221,7.9454,7.9596,7.1204,7.5084,7.9621,9.6393,9.4294,9.1778,10.5864,10.4892,10.3185,11.0775,11.3049,11.3473,11.2628,11.2875,11.3049,11.254,11.216,11.1884,11.2069,11.1884,11.1602,11.1067,11.1067,11.0799,11.0434,10.9916,10.9493,10.9455,10.8951,10.862,10.8509,10.8509,10.8284,10.8126,10.824,10.8126,10.7898,10.7898,10.7898,10.7898,10.72,10.6483,10.5805,10.3307,10.2234,10.2026,10.014,9.8979,9.8088,9.7119,9.6813,9.6966,9.5631,9.4999,9.496,9.3502,9.2609,9.2209,9.2026,9.212,9.1978,9.1413,9.1639,9.209,9.209,9.209,9.2497,9.405,9.4573,9.4927,9.6762,9.6654,9.6487,9.7546,9.6786,9.5855,9.5975,9.4169,9.2111,9.051,8.9485,8.8932,8.8376,8.8376,8.8003,8.6765,8.5993,8.4935,8.3385,8.1199,7.9433,7.8717,7.7659,7.6807,7.6339,7.7865,7.8645,7.8034,7.7679,7.7076,7.6496,7.4979,7.4311,7.4308,7.52,7.5787,7.5969,7.7459,7.8137,7.8597,7.9418,7.9603,6.5617,7.3515,8.3236,9.3101,9.312,9.3591,10.4689,10.4661,10.4103,11.0302,11.3802,11.5251,11.4043,11.4043,11.3883,11.2875,11.2788,11.2962,11.3206,11.3389,11.3305,11.2575,11.2627,11.226,11.1263,11.0708,11.0368,10.9916,10.9208,10.8772,10.8772,10.8772,10.8662,10.8509,10.8551,10.8509,10.8012,10.7898,10.7898,10.7898,10.7898,10.7317,10.6051,10.5928,10.4863,10.264,10.0567,9.9852,10.0076,9.95,9.9582,9.9726,9.7726,9.6813,9.6444,9.3176,9.1793,9.1624,8.991,9.0066,9.0623,8.9551,8.989,9.0793,9.0793,9.0793,9.1197,9.2981,9.3445,9.3682,9.486,9.498,9.4983,9.5683,9.551,9.5044,9.3751,9.2479,9.1227,9.0313,8.8685,8.7204,8.6482,8.6355,8.63,8.6118,8.6621,8.6707,8.6045,8.3763,8.1508,8.0335,7.8098,7.648,7.552,7.7415,7.8396,7.8287,7.6626,7.6147,7.7771,7.5205,7.448,7.6364,7.5471,7.5294,7.5582,7.6961,7.7824,7.8187,7.8413,7.8413,6.542,7.3567,8.3119,9.2717,9.9646,10.3768,10.2175,10.6524,11.1537,11.4003,11.5106,11.5538,11.5324,11.5394,11.5535,11.5608,11.5033,11.459,11.4439,11.405,11.372,11.3389,11.4368,11.4569,11.3206,11.3042,11.2657,11.1553,11.0396,10.9811,10.9811,10.9811,10.9705,10.9385,10.8951,10.862,10.8509,10.8126,10.7898,10.7898,10.7898,10.7551,10.6776,10.6173,10.5182,10.3701,10.1953,10.1474,10.1484,9.8684,9.7637,9.7575,9.5059,9.3994,9.3831,9.2406,9.1455,9.0772,9.0429,9.0024,8.9495,8.9269,8.9325,8.9495,8.9789,8.9963,9.0422,9.2552,9.3247,9.3477,9.5335,9.4812,9.4405,9.5623,9.4111,9.2316,9.1334,9.0256,8.9226,8.8348,8.7273,8.6482,8.63,8.6718,8.6482,8.4986,8.3286,8.1488,7.9685,7.7061,7.5758,7.6329,7.5919,7.5753,7.5976,7.7571,7.6871,7.3439,7.3634,7.3374,7.1917,7.1301,7.2619,7.6364,7.5879,7.6149,7.7053,7.8321,7.8956,7.8956,7.9585,7.9809,6.891,7.2733,7.6235,8.1541,8.7209,9.3845,10.2697,10.5689,10.7806,11.231,11.1409,11.074,11.3774,11.5161,11.5883,11.6024,11.581,11.5527,11.56,11.5527,11.5175,11.4515,11.5088,11.4919,11.3305,11.2984,11.238,11.1165,11.0568,11.0229,11.0021,11.0332,11.0125,10.9455,10.9278,10.8841,10.8284,10.8012,10.7898,10.7898,10.7898,10.7783,10.7434,10.7014,10.6295,10.5182,10.3701,10.3438,10.3636,10.2033,10.1558,10.1558,9.8262,9.6905,9.6505,9.3176,9.1624,9.1057,9.0199,8.9562,8.9213,8.9213,8.9213,8.9388,8.968,8.9853,9.014,9.1576,9.2093,9.2438,9.3419,9.3358,9.3009,9.3587,9.2887,9.1903,9.1445,9.083,9.0077,8.8741,8.8006,8.7448,8.6409,8.6537,8.6064,8.4062,8.2323,8.0937,8.0347,7.8288,7.7429,7.8165,7.7047,7.6219,7.647,7.7446,7.7194,7.5572,7.5558,7.5206,7.4534,7.3154,7.3552,7.6059,7.6375,7.6827,7.7456,7.868,7.9407,7.9631,8.0079,8.0032,7.0283,7.1084,7.0865,7.4503,7.6081,8.1603,10.0216,10.1328,10.0755,10.924,10.8539,10.789,11.251,11.4783,11.6018,11.6018,11.6076,11.627,11.6471,11.6644,11.6509,11.5657,11.603,11.5542,11.373,11.335,11.286,11.1906,11.1333,11.1038,11.1159,11.1109,11.0669,10.9705,10.9705,10.9278,10.824,10.8126,10.8012,10.7898,10.7898,10.7898,10.7898,10.7783,10.7132,10.6106,10.4929,10.4675,10.5182,10.4736,10.4608,10.4286,10.0863,9.9292,9.8559,9.4096,9.2406,9.1962,9.0372,8.9736,8.9562,8.9388,8.9213,8.9388,8.968,8.9853,9.0199,9.0886,9.1227,9.1397,9.1793,9.1962,9.1962,9.1962,9.1962,9.1962,9.1624,9.1576,9.1109,8.9012,8.8754,8.8213,8.6646,8.6482,8.6009,8.4301,8.2775,8.1788,8.218,7.9943,7.8518,7.9128,7.7378,7.6162,7.6625,7.6928,7.7122,7.761,7.7052,7.678,7.7189,7.5338,7.5025,7.6328,7.6962,7.7638,7.7887,7.8766,7.9631,8.0032,8.0032,8.0032,6.4463,6.8509,7.421,8.4707,8.1832,7.9116,8.8788,9.0884,9.4327,10.6904,11.1471,11.3387,11.3914,11.5313,11.6344,11.6344,11.6583,11.6704,11.6657,11.6704,11.6763,11.6704,11.7986,11.8092,11.6289,11.6635,11.6775,11.6617,11.4524,11.3622,11.4571,11.3197,11.1955,11.1067,11.0568,11.0125,10.9493,10.8951,10.8397,10.7898,10.7898,10.7898,10.7898,10.7249,10.6657,10.5928,10.4613,10.4225,10.4418,10.2635,10.127,10.0076,9.8088,9.6318,9.496,9.4479,9.3891,9.307,9.213,9.1057,9.0429,8.9562,8.9213,8.9388,8.968,9.0199,9.0544,9.1057,9.1566,9.1962,9.1962,9.1962,9.1962,9.1962,9.1962,9.1624,9.0887,9.0715,9.0138,8.8172,8.7784,8.7452,8.6482,8.7039,8.7519,8.7328,8.3929,8.1474,8.1474,7.6513,7.3215,7.4135,7.3157,7.3275,7.5071,7.5295,7.4936,7.4485,7.4348,7.4392,7.4392,7.5205,7.6464,7.7824,7.772,7.8165,7.9043,7.9538,8.0032,8.0032,8.0032,8.0032,6.226,6.3473,6.5639,7.4063,7.5207,7.5104,7.8467,8.3116,8.9639,9.9721,10.2795,10.4234,10.5508,11.0043,0.0,11.4529,11.4989,11.5299,11.5299,11.6363,11.7013,11.7013,11.7621,11.7517,11.6206,11.6177,11.5981,11.4998,11.426,11.3937,11.3909,11.3579,11.2788,11.1578,11.1386,11.0699,10.9599,10.9061,10.862,10.8397,10.8012,10.7898,10.7898,10.7667,10.6895,10.5928,10.5558,10.5182,10.4675,10.4093,10.3504,10.264,10.0786,9.9645,9.8706,9.5571,9.4198,9.3549,9.1169,9.0026,8.9736,8.9388,8.9213,8.9388,9.0026,9.0372,9.0772,9.1397,9.1793,9.1962,9.1962,9.1962,9.1962,9.1962,9.1962,9.1793,9.1512,9.203,9.1862,8.9086,8.946,8.9547,8.8142,8.849,8.8418,8.7229,8.4711,8.2258,7.9959,7.7779,7.6433,7.6846,7.6183,7.6057,7.6872,7.6736,7.6328,7.6101,7.5601,7.5601,7.6101,7.651,7.7144,7.8187,7.8495,7.8766,7.9182,7.9855,8.0032,8.0032,8.0032,7.9585,5.8934,5.8963,5.9685,6.6235,6.8811,7.1206,7.6549,7.9526,8.3999,9.4023,9.8047,10.0548,10.2787,10.5877,0.0,11.2936,11.1922,11.1399,11.3493,11.531,11.646,11.646,11.6905,11.6955,11.6187,11.6059,11.5742,11.5096,11.4884,11.4733,11.4461,11.426,11.3638,11.2342,11.2069,11.1412,11.0262,10.953,10.8991,10.8662,10.8284,10.8126,10.8126,10.8012,10.72,10.5995,10.6173,10.5682,10.4741,10.4802,10.4546,10.3832,10.2435,10.1687,10.0786,9.721,9.5667,9.5097,9.1897,9.06,9.0486,8.9506,8.9388,8.9506,9.0199,9.0544,9.0886,9.1566,9.1793,9.1962,9.1962,9.1962,9.1962,9.1962,9.2305,9.2479,9.2479,9.3283,9.3295,9.0701,9.1064,9.1321,8.9715,8.9938,8.9852,8.8452,8.741,8.5532,8.2008,8.1141,8.015,7.8035,7.687,7.6511,7.6827,7.6645,7.6597,7.7095,7.6638,7.6867,7.7551,7.7824,7.8051,7.8685,7.9136,7.9407,7.9407,7.9855,8.0032,8.0032,8.0032,7.936,5.3341,5.5759,5.9847,6.627,6.5426,6.7743,8.5611,8.0896,7.6875,9.1303,10.0786,10.714,10.9498,10.4307,10.2648,11.1992,10.711,10.4509,11.1052,11.3588,11.4736,11.4736,11.6164,11.7145,11.6823,11.6823,11.7503,11.9019,11.7429,11.6745,11.7514,11.5833,11.4435,11.3556,11.2875,11.2252,11.179,11.0869,10.9742,10.8662,10.8662,10.8662,10.8662,10.8126,10.72,10.5928,10.5928,10.5249,10.403,10.403,10.3104,10.1677,10.1677,10.0773,9.9418,9.9272,9.8979,9.8238,9.5256,9.3977,9.3163,9.0142,8.9506,8.9853,8.9853,9.0544,9.1227,9.1227,9.1566,9.1962,9.1962,9.1962,9.1962,9.1962,9.2881,9.3913,9.3913,9.4089,9.3936,9.2972,9.2542,9.1853,9.1018,9.1559,9.2078,9.2078,9.261,9.1882,8.9308,8.6557,8.2157,7.5262,7.28,7.2528,7.3989,7.4077,7.4702,7.6319,7.6409,7.6867,7.8187,7.8685,7.9407,8.0032,8.0032,8.0032,8.0032,8.0032,8.0032,8.0032,8.0032,7.936,5.2973,5.4165,5.7724,6.8629,6.5495,6.4859,8.4224,7.9731,7.6084,9.2167,8.9369,8.4933,8.7888,9.7659,10.3113,0.0,10.2474,10.7964,10.8677,11.1408,11.3294,11.3063,11.4781,11.5748,11.5533,11.6516,11.735,11.7577,11.7192,11.6939,11.6942,11.6305,11.56,11.4813,11.4358,11.3883,11.3305,11.2557,11.1648,11.0828,11.0019,10.9139,10.8058,10.8012,10.7434,10.6657,10.6657,10.5928,10.4863,10.4675,10.4159,10.3438,10.3371,10.297,10.2364,10.0645,9.9146,9.7876,9.5195,9.3058,9.1339,9.0372,8.9853,8.9506,9.0199,9.0544,9.0886,9.1566,9.1793,9.1962,9.1962,9.2706,9.3225,9.3225,9.4375,9.5146,9.5215,9.5615,9.5653,9.3739,9.4047,9.4017,9.3136,9.3526,9.3798,9.3925,9.3192,9.195,9.0304,8.6436,8.2717,8.0178,7.6958,7.5151,7.569,7.5734,7.5823,7.6364,7.5784,7.5565,7.5558,7.6176,7.6836,7.7976,7.7976,7.7976,7.7976,7.7976,7.7976,7.7976,7.7055,7.613,5.2966,5.3067,5.5535,6.7153,6.2876,6.1019,8.0909,7.5077,7.0569,8.8481,8.3303,7.6473,7.9378,9.118,9.9085,9.4965,9.964,10.4438,10.6133,10.8933,11.0891,11.1408,11.3122,11.4191,11.4112,11.4952,11.5439,11.5218,11.5218,11.5105,11.493,11.5218,11.5259,11.4857,11.4886,11.4663,11.4358,11.3494,11.2417,11.1,11.079,10.9366,10.7119,10.7451,10.6714,10.5204,10.5204,10.5338,10.5491,10.5056,10.5134,10.534,10.4885,10.449,10.3833,10.2163,10.0298,9.82,9.5762,9.349,9.1339,9.0544,9.0199,9.0026,9.0544,9.1231,9.1862,9.1909,9.2311,9.2776,9.3241,9.399,9.457,9.4579,9.5625,9.6501,9.6293,9.6686,9.665,9.5098,9.4684,9.4546,9.3874,9.3596,9.3415,9.3539,9.2061,9.0898,9.0444,8.5821,8.2611,8.2348,7.8997,7.6638,7.6409,7.6409,7.623,7.5645,7.6104,7.6374,7.6183,7.5993,7.6203,7.6857,7.6053,7.5605,7.5605,7.5605,7.5605,7.5605,7.4953,7.3859,5.2881,5.2163,5.337,6.3267,5.8685,5.6863,7.6597,6.8295,6.1977,8.1474,8.1405,7.8727,8.1555,8.4361,9.0187,10.2348,9.8361,9.62,10.3164,0.0,10.7321,10.8883,11.0692,11.1783,11.1883,11.223,11.2425,11.2522,11.218,11.194,11.194,11.3006,11.3641,11.3755,11.4364,11.4668,11.4811,11.3754,11.1853,10.9065,11.0572,10.9127,10.5332,10.6679,10.5604,10.2679,10.2408,10.3686,10.5604,10.465,10.5328,10.6792,10.6071,10.5082,10.3964,10.3636,10.1961,9.9518,9.7025,9.4758,9.267,9.0658,9.0544,9.1227,9.1285,9.2551,9.3648,9.2543,9.3009,9.4114,9.5335,9.58,9.5859,9.5882,9.6926,9.7569,9.7099,9.7214,9.7248,9.6813,9.489,9.354,9.3429,9.2551,9.1785,9.1785,9.0094,8.909,8.9825,8.5106,8.193,8.23,7.9221,7.714,7.6409,7.6409,7.5734,7.4121,7.6962,7.8818,7.8726,7.7313,7.6542,7.645,7.4614,7.346,7.3151,7.3151,7.3151,7.3151,7.3151,7.249,4.931,4.9843,5.2635,6.5103,5.9891,5.7006,7.7043,6.7886,6.0406,7.933,7.5865,7.1773,7.9067,7.2781,7.1761,8.7939,9.5893,9.9204,9.6968,9.8185,9.9372,9.9555,10.2248,10.3926,10.3721,10.924,11.2746,11.2574,11.2363,11.2254,11.2254,11.2327,11.23,11.2315,11.2107,11.207,11.2208,11.1944,10.8541,10.2105,10.6793,10.6172,10.1149,10.6094,10.7407,10.5885,10.2262,10.1988,10.3796,10.0028,10.0955,10.462,10.3305,10.3305,10.4289,10.4546,10.3504,10.1558,9.8811,9.6475,9.44,9.1787,9.0715,9.0887,9.2209,9.2901,9.3421,9.4637,9.4405,9.3939,9.423,9.516,9.6091,9.6877,9.8223,9.8868,9.8396,9.8122,9.789,9.7266,9.6492,9.5758,9.5242,9.5256,9.5142,9.4377,9.2707,9.1265,9.0682,8.5606,8.2107,8.1693,7.8547,7.6638,7.6409,7.6912,7.6235,7.4121,7.5204,7.5654,7.4844,7.5235,7.4953,7.3746,7.369,7.2762,7.1187,7.1187,7.1187,7.1187,7.0285,6.9854,4.9205,4.9669,5.1483,6.1199,5.725,5.4394,6.7622,6.1813,5.782,7.25,7.22,7.121,7.7267,7.6432,7.6031,7.9503,8.7246,9.1998,8.9656,9.2916,9.4923,0.0,0.0,10.2829,10.0262,10.6707,11.0995,11.0778,11.0734,11.0555,11.0321,11.0865,11.1081,11.0904,11.1223,11.1545,11.1665,11.0072,10.5591,9.8276,10.5144,10.4487,9.7278,10.5018,10.6894,10.3911,0.0,10.236,10.3806,10.0984,10.1997,10.5277,10.3436,10.291,10.3038,10.2633,10.1731,10.0354,9.748,9.5445,9.3476,9.2029,9.1788,9.2406,9.2631,9.3412,9.4232,9.4114,9.5219,9.6499,9.6499,9.6964,9.7541,9.7991,9.8396,9.8694,9.7925,9.7335,9.6907,9.6435,9.5662,9.4911,9.4686,9.4482,9.375,9.2112,9.0261,8.8391,8.674,8.2875,8.0088,7.9622,7.7688,7.6409,7.6409,7.6638,7.6414,7.5195,7.6511,7.6776,7.502,7.3679,7.2526,7.1774,7.1069,7.0153,6.9027,6.9027,6.9027,6.9027,6.8383,6.7953,4.9992,4.9877,5.0269,5.5925,5.3579,5.1251,5.6341,5.4746,5.4822,6.4313,6.8566,7.1375,7.4184,8.2308,8.4962,7.4095,7.6618,8.0746,8.3215,8.8827,9.1643,8.8751,0.0,10.2304,9.8592,10.4489,10.8432,10.8277,10.8493,10.844,10.7914,10.9227,10.9792,10.9523,11.0534,11.1143,11.1291,10.8407,10.3367,9.6594,10.4515,10.3588,9.4984,10.4185,10.5774,10.1482,0.0,10.3193,10.4352,10.3048,10.3954,10.6258,10.3829,10.2452,10.1593,9.9821,9.911,9.854,9.6086,9.4064,9.255,9.2106,9.2838,9.3861,9.2884,9.4168,9.5275,9.2601,9.5219,9.8709,9.8942,9.8934,9.9051,9.881,9.857,9.7789,9.6892,9.6417,9.5865,9.5091,9.4208,9.3572,9.354,9.2835,9.1538,8.9417,8.6911,8.4619,8.2392,7.9518,7.7456,7.7278,7.6638,7.6409,7.6638,7.6638,7.6548,7.6186,7.8092,7.8035,7.6007,7.2402,7.0424,7.0294,6.838,6.7474,6.713,6.713,6.713,6.713,6.713,6.713,4.7031,4.7568,4.9152,5.5675,5.3595,5.1254,5.634,5.3835,5.2314,5.943,6.1305,6.2584,6.5763,6.8548,6.9761,6.8291,6.9866,7.39,8.1395,8.4656,8.6157,8.5637,8.8424,0.0,9.4825,10.24,10.6905,10.6547,10.7751,10.8435,10.8219,10.8441,10.8428,10.8243,10.8165,10.8239,10.8481,10.7416,10.3552,9.6978,10.3388,10.3462,9.794,10.4566,10.7291,10.6542,0.0,0.0,10.3663,9.9086,9.9635,10.3011,9.9676,9.9881,10.178,9.914,9.9187,10.0179,9.9492,9.7563,9.4991,9.2697,9.2262,9.2903,9.3681,9.4991,9.534,9.2648,9.3299,9.4986,9.6033,9.6603,9.7099,9.9051,9.8709,9.791,9.7436,9.727,9.6767,9.5403,9.4986,9.4739,9.4287,9.47,9.4812,9.3596,8.973,8.6641,8.5171,8.0498,7.7233,7.6638,7.6409,7.6638,7.714,7.7551,7.7144,7.5429,7.4802,7.382,7.2532,7.1823,7.0812,6.9592,6.9682,6.8988,6.713,6.713,6.713,6.713,6.7563,6.778,4.7477,4.8448,4.9455,5.2512,5.1551,5.0569,5.2918,5.1627,5.1547,5.7274,5.9145,6.0185,6.1506,6.5965,6.8626,6.5985,6.9275,7.3817,7.8572,8.3865,8.6604,8.4744,9.1629,9.602,0.0,10.2103,10.6485,10.548,10.6948,10.7634,10.7257,10.8235,10.866,10.8332,10.7958,10.7914,10.8216,10.764,10.3956,9.7389,10.3343,10.1108,9.2274,10.2739,10.5287,10.1605,10.3757,10.461,10.4195,10.1951,10.1766,10.2693,9.9729,9.9443,10.0376,9.7479,9.6907,9.7501,9.7501,9.6508,9.5109,9.3599,9.3317,9.3538,9.348,9.4748,9.6023,9.4676,9.4694,9.5103,9.533,9.6024,9.6661,9.6377,9.6294,9.6037,9.4799,9.4297,9.3981,9.3204,9.3258,9.3346,9.3275,9.322,9.267,9.0233,8.7743,8.5104,8.2034,7.9274,7.7595,7.6912,7.6912,7.7095,7.7779,7.6105,7.4803,7.3865,7.3199,7.2534,7.1124,7.0903,7.0028,6.8204,6.838,6.7991,6.713,6.713,6.7347,6.7563,6.7996,6.778,5.0534,0.0,5.4126,5.4436,5.338,5.2312,0.0,5.1084,5.0995,5.4713,5.7407,5.8806,5.7795,6.4244,6.8127,6.331,6.9172,7.4475,7.4961,8.182,8.6334,8.4935,9.4535,9.9985,9.6729,10.2168,10.5469,10.4296,10.6146,10.7089,10.6578,10.8314,10.9139,10.8888,10.8519,10.8407,10.8551,10.8087,10.5155,10.0136,10.44,10.0288,8.934,10.1555,10.334,9.7339,10.493,10.7343,10.6031,10.5681,10.4572,10.2888,10.0018,9.905,9.8725,9.6223,9.5164,9.4922,9.5043,9.4856,9.4547,9.412,9.4369,9.4456,9.3409,9.4329,9.5553,9.5427,9.5335,9.5217,9.474,9.5388,9.5855,9.4235,9.4024,9.3958,9.2678,9.2093,9.1627,9.1463,9.1627,9.1929,9.1929,9.1627,9.0533,8.7682,8.5887,8.3621,7.9783,7.846,7.7685,7.7185,7.6915,7.7007,7.7144,7.4042,7.1738,7.1476,7.1255,7.038,6.9076,6.9032,6.8039,6.602,6.602,6.6104,6.6098,6.6568,6.6912,6.7347,6.7563,6.7347,0.0,6.247,6.6591,6.8176,6.3922,5.9367,5.9354,5.4391,0.0,5.0078,5.3796,5.5983,5.2833,5.7772,6.126,5.7857,6.6652,7.2997,7.0255,7.5667,8.1523,8.6182,9.0206,0.0,10.0914,10.208,10.2431,10.2445,10.5454,10.722,10.7072,10.8526,10.9419,10.9419,10.9245,10.9042,10.8809,10.84,10.7916,10.7339,10.7369,10.3386,9.6273,10.2865,10.3611,0.0,10.6513,10.9568,10.9635,10.7517,10.5206,10.2711,9.8869,9.7425,9.7313,9.5744,9.5218,9.5164,9.449,9.4368,9.4244,9.3559,9.4272,9.5338,9.5024,9.3961,9.2831,9.2658,9.3477,9.4114,9.336,9.3593,9.393,9.4369,9.3698,9.3012,9.2954,9.2893,9.2483,9.1559,9.1446,9.1502,9.1502,9.185,9.1706,9.0439,8.7092,8.4293,8.2876,7.9192,7.6453,7.6409,7.565,7.507,7.4303,7.1284,6.8895,6.7847,6.7017,6.6123,6.4791,6.4791,6.4121,6.3029,6.2988,6.2978,6.3371,6.4709,6.5382,6.5602,6.604,6.6477,5.8971,6.4313,6.9163,6.9829,6.7324,6.3828,6.0593,5.7077,5.3527,5.0131,5.0921,5.1708,5.03,5.3851,5.7534,5.9306,6.4954,7.0916,7.5971,8.0565,8.5361,9.0252,0.0,0.0,0.0,9.9677,9.9484,10.1693,10.1292,10.2244,10.5274,10.7091,10.7922,10.7876,10.8794,10.9271,10.9091,10.8761,10.8482,10.833,10.7795,10.3974,9.765,10.3212,10.3856,10.0848,10.6886,10.7723,0.0,10.8294,10.5389,9.8964,10.0733,10.0809,9.9545,9.7236,9.6605,9.6719,9.551,9.5098,9.4977,9.4368,9.4386,9.4594,9.3943,9.4034,9.4298,9.3724,9.3891,9.4053,9.3189,9.3479,9.3826,9.2981,9.2185,9.1223,8.9959,8.9614,8.9444,8.8412,8.8299,8.8355,8.8699,8.8012,8.7317,8.6404,8.4255,8.2514,8.1709,7.846,7.6014,7.6145,7.4162,7.174,6.9162,6.7215,6.5838,6.4961,6.4663,6.445,6.4285,6.4285,6.3868,6.2612,6.2612,6.2566,6.2217,6.2798,6.3432,6.4286,6.454,6.4327,6.5602,7.1143,7.628,7.634,7.3462,6.8822,6.2206,5.8912,5.5748,5.0409,4.9181,4.9146,4.9442,5.1818,5.5355,6.0501,6.387,6.8702,7.691,8.0919,8.4819,8.9721,9.4578,9.8248,0.0,0.0,9.9308,10.1492,10.0152,10.0749,10.4169,10.604,10.7056,10.6978,10.813,10.8682,10.8558,10.8781,10.8836,10.866,10.8101,10.4416,9.8212,10.346,10.4087,10.1216,10.6961,10.687,10.3039,10.8947,10.5889,9.7856,10.2863,10.3614,10.1943,9.9913,9.9005,9.8625,9.7542,9.6776,9.6224,9.515,9.477,9.4461,9.393,9.4839,9.6013,9.5626,9.4929,9.4035,9.2541,9.2291,9.2104,9.0886,8.9626,8.8318,8.6446,8.6076,8.5785,8.4358,8.4358,8.4756,8.5208,8.4552,8.3651,8.3512,8.2284,8.0842,7.9444,7.7084,7.5226,7.4143,7.2039,6.8846,6.4748,6.3775,6.3188,6.2735,6.2735,6.2982,6.3393,6.3188,6.2571,6.1743,6.1328,6.1034,6.1109,6.0899,6.1482,6.2863,6.2863,6.2442,7.7829,8.4723,9.0,9.0,8.3625,7.488,6.5227,5.9897,5.554,5.0315,4.8811,4.89,5.0311,5.1616,5.4493,6.0623,6.3388,6.6325,7.0984,7.4429,7.8367,0.0,0.0,9.2828,9.8304,10.1238,10.2455,10.1678,10.3175,0.0,10.4187,10.5908,10.6985,10.7102,10.7062,10.7082,10.7056,10.8622,10.9321,10.9242,10.8694,10.5031,9.8838,10.3831,10.4329,10.1508,10.7033,10.7528,0.0,10.9538,10.6874,10.0222,10.468,10.5472,10.4055,10.3739,10.243,10.0948,10.0456,9.9295,9.776,9.6012,9.5495,9.5495,9.5495,9.6522,9.7674,9.7882,9.659,9.4459,9.1545,8.9618,8.8285,8.7863,8.5993,8.3702,8.2594,8.263,8.2091,7.9736,8.0319,8.111,8.1454,8.1651,8.1807,8.2572,8.1506,7.9667,7.6186,7.5139,7.3588,7.0049,6.9371,6.6978,6.1894,6.1482,6.1482,6.1482,6.1482,6.1482,6.1482,6.0443,5.9841,5.9841,5.8264,5.8296,5.9632,5.8926,5.9404,6.096,6.096,6.096,7.3256,8.1284,8.9682,8.8131,8.5088,7.9433,6.7998,6.3651,5.9852,5.2033,5.0111,5.0299,5.1539,5.2967,5.5622,6.0661,6.3246,6.7473,7.562,7.9408,8.3354,8.8462,0.0,9.4128,0.0,9.5211,9.6472,9.6873,9.8645,10.1092,10.3871,10.4577,10.4892,10.5044,10.6273,10.6379,10.5053,10.6773,10.7584,10.7446,10.8535,10.7985,10.5978,10.7163,10.818,10.9226,11.0426,10.6286,0.0,10.9646,10.6156,9.5402,10.5347,10.8175,10.6378,10.5216,10.4608,10.3986,10.1387,10.0247,9.966,9.7659,9.698,9.6976,9.6976,9.7165,9.7358,9.6129,9.5159,9.4063,9.2058,8.8953,8.6154,8.607,8.3408,8.0453,7.9439,7.9361,7.8914,7.752,7.7501,7.8267,7.9863,7.8854,7.8712,8.1313,7.8635,7.6468,7.6713,7.302,6.985,6.8511,6.6212,6.3935,6.1525,6.1482,6.1482,6.1482,6.0643,6.0242,6.0242,5.9277,5.8467,5.7612,5.7448,5.7567,5.7432,5.615,5.6721,5.9109,5.583,5.4988,7.5836,8.2035,8.8219,8.6181,8.4691,8.0462,6.8124,6.5081,6.264,5.5095,5.2138,5.1956,5.4973,5.613,5.8387,6.3687,6.4011,6.6194,7.3915,7.7726,8.1525,8.6647,8.9916,0.0,0.0,0.0,9.3996,9.8617,9.9422,10.054,10.229,10.3175,10.3721,10.4008,10.5918,10.6051,10.4329,10.6087,10.6877,10.6894,10.7824,10.854,10.9111,10.8405,10.9741,11.269,11.2002,10.7391,0.0,11.1328,10.8253,9.8216,10.7988,11.0842,10.9188,10.7358,10.6392,10.5507,10.2665,10.1302,10.0695,9.8933,9.866,9.906,9.8475,9.7756,9.7032,9.5552,9.3812,9.227,9.1377,8.8623,8.5805,8.5124,8.2004,7.8871,7.7242,7.7022,7.644,7.4034,7.3933,7.4768,7.6166,7.5442,7.5647,7.8489,7.657,7.5004,7.5429,7.1823,6.877,6.7185,6.4264,6.2035,6.1482,6.1042,6.0842,6.0842,5.9882,5.9277,5.9277,5.7408,5.6589,5.7243,5.5106,5.4953,5.6323,5.3672,5.3426,5.5634,5.2922,5.2092,8.2902,8.5551,8.6105,8.3788,8.2561,7.8676,6.6163,6.4259,6.3648,5.8136,5.43,5.3543,5.9071,5.9612,6.1451,6.8148,6.5562,6.4433,6.9317,7.2611,7.6184,8.0963,0.0,0.0,9.7247,9.3187,9.3867,10.3466,10.2427,10.0844,9.9831,10.161,10.3008,10.3668,10.5576,10.5931,10.4534,10.6152,10.7013,10.7123,10.7013,10.7866,10.9465,10.8435,10.9903,11.3015,11.2448,11.0098,0.0,11.381,11.2011,10.5716,11.1822,11.3401,11.1998,11.0022,10.8088,10.623,10.4358,10.261,10.1118,9.9848,10.027,10.0995,9.9552,9.8019,9.6454,9.5496,9.2473,8.9597,8.9661,8.838,8.6426,8.4183,8.125,7.8377,7.592,7.558,7.4586,7.0426,7.0456,7.135,7.1839,7.1682,7.2473,7.483,7.4928,7.4281,7.3268,7.1295,6.8917,6.6177,6.3085,6.1199,6.1283,6.0443,5.9841,5.9841,5.867,5.81,5.81,5.486,5.4445,5.7652,5.1933,5.1154,5.5415,5.1466,5.0347,5.1701,5.1364,5.0953,8.5144,8.6123,8.5313,8.0178,7.886,7.5612,6.3773,6.1463,6.0327,5.5467,5.3685,5.395,5.6891,5.6285,5.8592,6.8541,6.8659,6.9667,7.5759,7.8495,8.0818,0.0,8.5065,0.0,9.2535,9.0688,0.0,9.6346,9.4397,9.4522,9.8147,9.9778,10.1251,10.2742,10.3884,10.4262,10.3986,10.5985,10.7063,10.7133,10.8261,10.9772,11.1487,10.9984,11.0982,11.4028,11.3751,11.0733,10.6592,11.3893,11.2699,10.6771,11.2603,11.4595,11.4067,11.2574,11.0775,10.8842,10.6241,10.4262,10.2628,10.1097,9.9927,9.8961,9.7836,9.6302,9.4765,9.3203,9.1314,8.9025,8.6678,8.5733,8.4394,8.061,7.7571,7.5554,7.5324,7.5268,7.4586,7.2161,7.1914,7.2053,7.1976,7.0839,7.0522,7.2637,7.051,6.9239,7.0341,6.6991,6.4476,6.418,6.1458,6.0086,6.0842,5.9882,5.9277,5.9277,5.7856,5.6833,5.6833,5.3649,5.218,5.3021,5.0238,4.9283,4.9714,4.8702,4.9021,5.0675,4.7,4.5979,8.0805,8.2435,8.3771,7.8799,7.7632,7.6024,6.9858,0.0,0.0,6.1258,5.89,5.8242,5.9619,5.8495,6.0304,6.9207,6.9558,6.9294,7.1157,7.6695,8.0179,7.9098,8.2307,8.6939,0.0,9.0495,9.1119,9.6592,9.4977,9.4625,9.6707,9.7575,9.9327,10.2421,10.3984,10.4818,10.4973,10.6222,10.6928,10.7184,10.797,10.9221,11.0944,11.0061,11.0896,11.2995,11.2971,11.2126,11.0992,11.4933,11.4488,11.1587,11.445,11.5169,11.4447,11.2727,11.1016,10.9106,10.6365,10.4291,10.2501,9.9957,9.8207,9.7038,9.5761,9.4244,9.2602,9.1092,8.9193,8.7158,8.5173,8.4398,8.3468,8.038,7.8793,7.7775,7.7758,7.6363,7.4696,7.273,7.1291,7.037,7.0194,6.9095,6.8667,6.9994,6.8694,6.7972,6.864,6.6054,6.4149,6.4437,6.1555,5.9421,5.8952,5.8178,5.762,5.7459,5.6637,5.601,5.5803,5.3057,5.1157,5.0312,4.732,4.5632,4.5702,4.3577,4.3546,4.5637,4.315,4.2537,7.6348,7.8809,8.2145,7.8485,7.7923,7.7974,7.6873,7.5764,0.0,6.8258,6.5217,6.3406,6.3238,6.1959,6.3129,6.9979,6.9108,6.7264,6.6329,7.3327,7.7568,0.0,7.8894,8.5125,9.3057,9.0816,0.0,0.0,9.6631,9.5043,9.4627,9.4618,9.6905,10.1952,10.3963,10.552,10.6472,10.6734,10.7129,10.7545,10.7482,10.8277,10.9638,10.9323,10.9318,10.9585,11.0568,0.0,11.328,11.4447,11.5021,11.5175,11.4808,11.4146,11.2988,11.1171,10.9132,10.7095,10.4899,10.2817,10.0491,9.7833,9.642,9.534,9.3969,9.2174,9.0365,8.8907,8.7041,8.5185,8.4068,8.3558,8.2977,8.122,8.1154,8.1216,8.0468,7.804,7.5328,7.2967,7.0524,6.8575,6.8366,6.7595,6.7246,6.7576,6.8057,6.8299,6.7906,6.6052,6.4668,6.4099,6.1095,5.8468,5.6961,5.6095,5.5502,5.4941,5.4994,5.4557,5.3693,5.1364,4.9123,4.736,4.3149,4.1205,4.1871,3.8551,3.8123,4.0037,4.0252,4.0037,7.9874,8.1195,8.1332,7.8561,7.9439,7.977,7.5288,7.4016,7.2403,6.7888,6.7068,6.6202,6.3265,6.1829,6.3376,7.0291,0.0,6.7922,7.5648,7.585,7.6048,7.8308,7.8305,8.1163,8.8912,8.9755,9.1413,9.5425,8.999,8.7713,9.0273,9.0257,9.3106,9.9782,10.1315,10.3696,10.7119,10.7844,10.8361,10.8663,10.8831,10.9302,10.9775,10.8265,10.535,10.1713,10.5905,10.5498,10.2343,10.7953,11.0302,11.0138,10.9495,10.9208,10.8851,10.7346,10.4633,10.1635,10.1818,9.9154,9.569,9.6236,9.5598,9.4428,9.3245,9.0931,8.8465,8.672,8.5873,8.4925,8.2368,8.2495,8.3031,8.1224,8.1154,8.1216,8.0468,7.9743,7.8126,7.4122,7.1893,7.0282,6.8519,6.8132,6.786,6.7187,6.7435,6.7956,6.851,6.4671,6.1312,5.962,5.722,5.5567,5.5374,5.436,5.3414,5.3018,5.2135,5.0564,4.8257,4.5373,4.3015,4.0762,3.8088,3.6588,3.6294,3.7538,3.7945,3.7736,3.8362,3.8571,7.5531,7.9211,8.3123,8.0592,8.1249,8.1946,7.9544,7.8281,7.6038,7.0615,6.944,6.7853,6.2566,5.9252,0.0,0.0,0.0,0.0,7.5293,7.4889,7.4454,0.0,7.7247,0.0,8.5544,8.6653,8.7651,0.0,8.77,8.7619,8.9704,9.0436,9.2962,9.7714,9.9764,10.1694,10.3735,10.4737,10.5445,10.6039,10.6099,10.6373,10.6667,10.5943,10.4479,10.2503,0.0,10.4893,10.3763,10.6635,10.7809,10.7754,10.8277,10.7882,10.6864,10.5838,10.3843,10.1543,10.0927,9.6416,9.1325,9.3663,9.2834,9.0739,9.0035,8.8512,8.6828,8.5841,8.4912,8.3855,8.3065,8.3116,8.3113,8.2177,8.2106,8.1848,8.0416,8.0272,7.9264,7.5558,7.2333,6.9874,6.9045,6.7726,6.6589,6.6235,6.6527,6.6931,6.6802,6.3792,6.1111,5.9092,5.6387,5.4197,5.3171,5.1676,5.0335,4.9112,4.8305,4.6891,4.4807,4.3567,4.1302,3.8001,3.698,3.5769,3.4146,3.4173,3.4488,3.5217,3.4904,3.4747,7.1719,7.6613,8.2397,8.149,8.2154,8.287,8.2552,8.127,7.887,7.4116,7.2973,7.0901,0.0,0.0,0.0,6.8221,6.563,0.0,7.3935,7.3547,0.0,7.4034,0.0,7.6404,7.986,8.1374,0.0,0.0,8.328,8.5348,8.7932,8.9082,9.1794,9.6468,9.8288,9.9631,10.047,10.1284,10.2076,10.2897,10.3292,10.3391,10.3206,10.3554,10.2768,10.1192,10.2203,10.2694,10.2922,10.3803,10.4444,10.4891,10.586,10.5151,10.3525,10.2881,10.1282,9.9347,9.8525,9.4535,9.038,9.2853,9.1607,8.897,8.8244,8.6997,8.562,8.483,8.3746,8.2814,8.2714,8.2615,8.2469,8.1781,8.1704,8.1309,7.9923,7.9891,7.919,7.6218,7.2949,7.0443,7.0014,6.7999,6.6185,6.6194,6.6124,6.5949,6.5522,6.3566,6.138,5.9167,5.6247,5.3608,5.1317,4.9958,4.8319,4.6089,4.5405,4.3846,4.0971,4.0971,3.9199,3.5314,3.4799,3.3578,3.144,2.9931,3.014,3.1626,3.1269,3.1261,7.2086,7.4742,7.655,7.9971,8.1508,8.1912,8.0939,7.9592,7.8263,7.7739,7.7972,7.6877,0.0,0.0,7.1311,7.17,6.8716,6.8419,7.4822,7.3121,7.1461,0.0,0.0,0.0,0.0,0.0,0.0,7.292,0.0,7.6552,8.2714,8.3311,8.7439,9.6073,9.6676,9.7426,9.8861,9.9154,9.9642,10.0363,10.1827,10.1811,10.0522,10.1445,9.8332,9.2376,9.5757,9.5571,9.3163,9.6342,9.8709,10.0244,9.9772,9.8667,9.7177,9.6554,9.422,9.1528,9.2677,9.3976,9.5101,9.5142,9.3676,9.1625,9.014,8.7657,8.5035,8.3265,8.2693,8.2009,7.9309,7.9437,8.0079,7.9001,7.8723,7.8847,7.8743,7.8309,7.7294,7.5558,7.4638,7.347,7.1813,6.9821,6.8366,6.8049,6.6527,6.5574,6.5572,6.3947,6.1514,5.8204,5.6068,5.3608,5.0378,4.9887,4.8291,4.4942,4.4196,4.124,3.5661,3.5457,3.3765,3.0603,2.8742,2.7292,2.6239,2.4962,2.5379,2.7078,2.8054,2.9445,6.7575,7.1576,7.596,7.7166,7.8662,7.972,7.9387,7.8724,7.7976,7.71,7.5816,7.3799,7.0218,6.7518,6.6343,6.7954,6.5609,6.5937,7.2697,6.9494,6.7899,7.1544,6.806,6.7009,0.0,0.0,0.0,6.7941,7.2197,7.6108,7.9073,8.0238,8.4079,9.134,9.181,9.3482,9.6592,9.7132,9.6994,9.6253,9.727,9.766,9.7289,9.7087,9.5894,9.4141,9.5664,9.5233,9.3698,9.6062,9.6153,9.4913,9.5949,9.5315,9.3604,9.3151,9.2775,9.2652,9.2373,9.1659,9.1004,9.2054,9.054,8.808,8.7214,8.5562,8.3759,8.2882,8.1497,8.0447,8.0557,8.0255,7.982,7.9769,7.8879,7.755,7.6298,7.5291,7.4043,7.2591,7.3161,7.3104,7.0921,6.9754,6.8259,6.6263,6.526,6.4711,6.4731,6.2772,6.0293,5.7762,5.5389,5.2502,4.8408,4.6649,4.429,4.052,3.8955,3.677,3.3536,3.1525,2.9839,2.8867,2.6075,2.4697,2.4742,2.3885,2.3885,2.4742,2.4723,2.5045,6.507,6.7344,7.0881,7.3115,7.4934,7.6463,7.7619,7.8102,7.7995,7.7142,7.5204,7.2928,7.0418,6.788,6.6177,6.6607,6.5372,6.5871,7.019,6.7511,6.6484,7.0041,6.685,0.0,0.0,0.0,0.0,6.7066,7.1617,7.5022,7.663,7.7851,8.0863,8.5984,8.6608,8.8132,9.0819,9.2095,9.1945,9.0546,9.2231,9.2977,9.2927,9.3073,9.3692,9.4622,9.396,9.3659,9.3553,9.3928,9.3153,9.1856,9.3217,9.2707,9.1306,9.1364,9.1038,9.0532,9.0379,8.9636,8.8882,8.9845,8.8586,8.6451,8.5199,8.3314,8.1524,8.1078,7.9445,7.8174,7.9452,7.9086,7.8448,7.881,7.801,7.6848,7.554,7.4501,7.3457,7.1904,7.2615,7.264,7.0582,6.9227,6.7945,6.6033,6.493,6.4239,6.41,6.2166,5.984,5.6692,5.5027,5.2277,4.7799,4.549,4.2725,3.9125,3.6972,3.4685,3.2081,2.9635,2.7857,2.7151,2.3784,2.2051,2.2108,2.1048,2.1048,2.1909,2.1511,2.164,6.5059,6.2617,6.1449,6.8198,7.0696,7.2432,7.5782,7.7446,7.815,7.7956,7.6692,7.5164,7.3681,7.3181,7.175,6.8109,6.835,6.8617,6.7651,6.7465,6.7465,6.7361,6.6072,6.4174,0.0,6.3134,6.6136,6.9818,7.0784,7.2403,7.5261,7.5957,7.7708,8.0582,8.1218,8.1531,8.1558,8.4076,8.4679,8.3595,8.6915,8.8227,8.7669,8.9699,9.1456,9.268,9.0233,9.0081,9.1522,8.9321,8.9453,9.1131,9.1285,9.0712,8.9903,9.0888,8.8303,8.4529,8.6147,8.7853,8.9305,8.8894,8.8324,8.7232,8.4587,8.1356,7.8566,7.8,7.68,7.5686,7.5686,7.5649,7.5708,7.58,7.6055,7.6143,7.6207,7.5869,7.5228,7.3597,7.3076,7.2476,7.0836,6.8628,6.7075,6.7403,6.5333,6.3653,6.3405,6.2271,5.9782,5.5443,5.4985,5.3119,4.8561,4.6193,4.3605,4.0427,3.8237,3.5201,3.0936,2.9451,2.7551,2.5257,2.1476,1.9097,1.7998,1.6337,1.6337,1.8013,1.8636,1.943,6.4788,6.6401,6.7906,6.9148,7.2526,7.5511,7.5449,7.5763,7.599,7.5697,7.4529,7.3046,7.132,6.8594,6.6488,6.6148,6.4891,6.481,6.7374,6.7733,6.8092,6.9109,6.6563,6.4567,6.4251,6.4443,6.466,6.4852,6.5954,6.755,6.9796,7.0286,7.2529,7.6912,7.7423,7.8467,8.0173,8.2868,8.3497,8.2014,8.5743,8.678,8.5502,8.6834,8.739,8.7333,8.7417,8.7001,8.6515,8.727,8.6755,8.5496,8.5695,8.5652,8.5328,8.4105,8.3328,8.2673,8.2081,8.2813,8.4138,8.4022,8.4189,8.4264,8.3255,8.1947,8.062,7.994,7.8497,7.7205,7.6964,7.5942,7.5026,7.5216,7.3517,7.1897,7.1868,7.0052,6.8338,6.7921,6.8452,6.8432,6.675,6.5465,6.4959,6.5476,6.1779,5.8855,5.8981,5.9552,5.8215,5.3602,5.3133,4.993,4.2483,4.1385,3.9068,3.445,3.4085,3.2458,2.8946,2.6587,2.362,1.9665,1.6379,1.3794,1.1863,1.3157,1.3241,1.23,1.3326,1.316,6.1603,6.0811,6.037,6.1552,6.6182,6.999,6.8853,7.2146,7.4453,7.1311,7.1511,7.1513,6.9267,6.6935,6.508,0.0,6.4482,6.5129,6.674,6.7566,6.8392,6.9626,6.6852,6.4807,6.4567,6.4034,6.3582,6.3215,6.4167,6.5206,6.6398,6.6716,6.8523,7.1909,7.2217,7.3194,7.4828,7.7263,7.7971,7.6823,8.0479,8.153,8.0379,8.3064,8.3651,8.2546,8.4351,8.4543,8.3565,8.4898,8.4045,8.2072,8.2592,8.2663,8.2137,7.9562,7.8722,7.8811,7.7983,7.7829,7.8066,7.8688,7.8669,7.8326,7.7708,7.7162,7.6701,7.6649,7.6359,7.6011,7.6114,7.5445,7.4762,7.449,7.3193,7.1955,7.1961,7.0118,6.8233,6.7493,6.7507,6.6754,6.414,6.2823,6.1949,6.1234,5.8051,5.5612,5.5296,5.5435,5.4336,5.1253,5.0334,4.7242,4.1119,3.8852,3.6463,3.3063,3.0767,2.8861,2.7129,2.3055,1.9553,1.702,1.3189,1.0828,0.9494,1.0933,1.0779,0.9005,0.9762,0.8352,5.667,5.1378,4.7835,5.0905,5.613,6.0526,0.0,0.0,7.2228,6.6843,6.8338,6.9833,6.6958,6.6062,6.5168,6.2946,6.5131,6.6822,6.5914,6.6857,6.7973,6.8462,6.6323,6.4262,6.3057,6.2468,6.2468,6.3195,6.3195,6.3524,6.4071,6.4017,6.4671,6.6039,6.648,6.681,6.7347,6.97,7.0467,6.9964,7.3508,7.4708,7.4032,7.8939,8.0108,7.846,8.1092,8.2061,8.1704,8.2113,8.1413,8.0058,8.0779,8.0576,7.9549,7.6581,7.4696,7.366,7.4019,7.2996,7.1972,7.3628,7.3111,7.1653,7.0909,7.0242,6.9876,7.0479,7.1307,7.2261,7.3245,7.3716,7.3806,7.352,7.3715,7.3957,7.3982,7.2926,7.1445,6.9851,6.8402,6.6249,6.2824,6.0719,5.8689,5.615,5.461,5.3248,5.2126,5.0902,4.9868,4.8909,4.7137,4.4927,4.2536,3.7829,3.4358,3.2782,2.8204,2.5053,2.43,1.933,1.6152,1.5546,1.1373,0.9046,0.8877,0.9068,0.8445,0.7217,0.7488,0.4662,0.0,0.0,0.0,0.0,0.0,0.0,0.0,0.0,6.346,6.9381,6.7932,6.4835,6.264,6.0427,5.9034,5.9468,5.9959,6.1311,6.4273,6.5738,6.5603,6.311,6.1574,6.0963,6.1906,5.9713,5.8734,5.9713,5.7694,5.7147,5.8776,5.8384,5.8785,6.0113,6.2362,6.3473,6.336,6.6893,6.8218,6.7238,7.217,7.359,7.2008,7.5451,7.6351,7.537,7.6972,7.7935,7.8483,7.8946,7.8264,7.6945,7.7239,7.6541,7.5191,7.3873,7.1883,6.9822,7.0474,6.9417,6.8328,7.1655,7.2379,7.1969,7.1613,7.0493,6.8945,6.7071,6.5414,6.4785,6.7232,6.7517,6.7987,7.1149,7.1165,7.068,7.1393,6.9813,6.8204,6.7935,6.6897,6.5031,6.1607,6.0685,5.8893,5.415,5.2427,5.1066,4.9101,4.9301,4.8856,4.7014,4.513,4.3722,4.2501,3.606,2.9934,2.5048,2.4052,2.1439,1.6114,1.6051,1.4305,1.0229,0.8296,0.6631,0.5174,0.6317,0.6113,0.4133,0.4868,0.2417,0.0,0.0,0.0,0.0,0.0,0.0,0.0,0.0,0.0,0.0,0.0,5.7854,0.0,0.0,5.407,5.7518,5.9848,6.154,6.2631,6.3457,6.2239,5.7931,5.7961,5.818,5.7693,5.6449,5.5765,5.6177,5.428,5.3609,5.4668,5.3796,5.3844,5.5051,5.6762,5.7743,5.7836,6.0874,6.2781,6.3454,6.5942,6.7622,6.8349,7.093,7.1793,7.1307,7.3855,7.4984,7.5383,7.6425,7.6416,7.5545,7.3095,7.2093,7.1688,6.9145,6.8293,6.8155,6.7312,6.6246,6.5651,6.7807,6.783,6.6884,6.5954,6.555,6.5335,6.4957,6.4424,6.4462,6.6298,6.6413,6.663,6.8989,6.9065,6.8667,6.9425,6.8273,6.6942,6.6505,6.5497,6.3724,6.0402,5.8669,5.6219,5.1723,5.0666,4.9403,4.6807,4.6479,4.5568,4.2965,4.0479,3.8699,3.8,3.2933,2.8218,2.4709,2.1734,1.8308,1.4156,1.2553,1.0916,0.9007,0.6467,0.4372,0.3063,0.3206,0.2205,-0.0204,0.0589,-0.0579,0.0,0.0,0.0,0.0,0.0,0.0,0.0,0.0,0.0,0.0,0.0,0.0,0.0,0.0,0.0,5.5783,5.9839,6.2008,6.075,6.0224,5.8362,5.404,5.5153,5.5497,5.3227,5.339,5.3271,5.2644,5.1552,5.0953,5.1232,5.0241,5.0025,5.073,5.1915,5.2853,5.325,5.5365,5.7299,5.9305,0.0,0.0,6.4023,6.6285,6.6866,6.6579,7.0381,7.1726,7.1385,7.3431,7.4262,7.3901,6.9424,6.8267,6.8681,6.5623,6.5261,6.6176,6.5344,6.4304,6.3653,6.519,6.4235,6.2286,6.1032,6.0865,0.0,6.2594,6.3307,6.406,6.5389,6.5524,6.5604,6.6821,6.6955,6.6888,6.7231,6.6198,6.4961,6.4327,6.3104,6.1388,5.8519,5.5637,5.2316,4.8058,4.7536,4.6544,4.3848,4.3156,4.2087,3.9567,3.6785,3.497,3.4366,3.0003,2.7021,2.6308,1.9827,1.4604,1.1615,0.8383,0.6714,0.6762,0.3578,0.172,0.1373,0.0386,-0.1164,-0.3565,-0.4804,-0.5398,0.0,0.0,0.0,0.0,0.0,0.0,0.0,0.0,0.0,0.0,0.0,0.0,0.0,0.0,0.0,0.0,5.5243,5.7104,5.779,5.5945,5.4125,5.3476,5.3136,5.2204,5.0526,5.1122,5.1039,4.9631,4.8956,4.8429,4.8098,0.0,0.0,0.0,0.0,5.2041,5.2862,5.4146,5.5437,5.6254,5.756,5.8413,5.9197,6.2264,6.2798,6.1354,6.5298,6.6238,6.5348,6.8749,6.9884,6.9382,6.7948,6.6673,6.5959,6.7243,6.4362,6.0705,6.6298,0.0,0.0,6.7414,6.6869,6.4234,6.4042,6.2034,5.9646,5.8349,5.681,5.6248,5.9267,5.9822,6.054,6.4206,6.4789,6.4306,6.3582,6.1158,5.9311,5.9874,5.7933,5.5957,5.5202,5.1652,4.7173,4.2033,4.0528,3.9696,3.8708,3.9614,4.0378,4.0154,0.0,0.0,3.7286,2.9386,2.4614,2.539,1.7277,0.9253,0.2173,0.3035,0.1498,-0.2886,-0.2412,-0.1663,-0.0531,-0.1061,-0.1802,-0.2795,-1.1478,-1.3671,0.0,0.0,0.0,0.0,0.0,0.0,0.0,0.0,0.0,0.0,0.0,0.0,0.0,0.0,0.0,0.0,5.2149,5.3887,5.2996,5.2432,5.1828,5.1028,5.1758,5.1577,5.0047,4.9827,4.9358,4.8303,4.7234,4.6471,4.6135,4.5717,4.5412,4.5339,4.6758,4.7403,4.7015,4.8504,4.9393,5.0072,5.0722,5.2511,5.5496,5.6879,5.806,5.8922,6.0946,6.2431,6.3441,6.5272,6.6168,0.0,0.0,0.0,0.0,0.0,5.9815,5.8083,6.029,5.9445,5.8086,6.127,6.1203,5.9638,5.8995,5.7857,5.671,5.5871,5.5117,5.4895,5.6219,5.6428,5.6882,5.9356,5.9721,5.9365,5.9358,5.8218,5.7046,5.695,5.6373,0.0,5.0912,4.9799,4.8337,4.4939,4.4648,4.4578,4.4127,4.3651,4.2753,4.0843,3.8677,3.6473,3.4552,2.848,0.0,0.0,0.0,1.3283,1.0327,0.8701,0.0,0.0,0.0,0.0,0.0,0.0,0.0,0.0,-1.3962,-1.4349,0.0,0.0,0.0,0.0,0.0,0.0,0.0,0.0,0.0,0.0,0.0,0.0,0.0,0.0,0.0,0.0,0.0,5.0526,4.8512,4.9378,4.9895,4.8571,5.0207,5.0641,4.8453,4.8178,4.7718,4.6703,4.6018,4.5329,4.4649,4.4346,4.4126,4.3707,4.4573,4.4385,4.3276,4.489,4.5911,4.6258,4.6663,4.864,5.2382,5.2342,5.3746,5.6268,5.6616,5.8645,6.138,6.2379,6.3146,6.339,5.8496,5.505,5.2732,5.273,5.3484,5.4505,5.515,5.5228,5.5365,5.7053,5.7052,5.6069,5.4932,5.4325,5.3969,5.3908,5.3974,5.4193,5.4671,5.4613,5.4754,5.5828,5.5815,5.5547,5.5535,5.4544,5.3589,5.3543,5.3794,5.221,4.716,4.7362,4.7559,4.5769,4.5899,0.0,4.612,4.4972,4.3258,4.07,3.8119,3.5725,3.3698,2.8245,2.4827,2.4614,1.8716,1.5391,1.5584,1.0872,0.401,-0.5223,-0.6816,-0.9032,0.0,0.0,0.0,0.0,0.0,0.0,0.0,0.0,0.0,0.0,0.0,0.0,0.0,0.0,0.0,0.0,0.0,0.0,0.0,0.0,0.0,0.0,0.0,0.0,4.4872,4.6755,4.7881,4.6692,4.8163,4.8042,4.4628,4.608,4.6137,4.4067,4.5038,4.4989,4.3622,4.4951,4.4573,4.2517,4.4359,4.5116,4.4271,4.6274,4.7117,4.7154,4.8492,4.9243,4.9433,4.9887,5.0632,5.1685,5.2027,5.4362,5.8134,6.0002,6.1273,6.1402,5.4191,4.8465,4.4244,4.3876,4.5614,4.8812,5.3511,5.5236,5.5544,5.7914,5.7534,5.5976,5.4785,5.3307,5.1986,5.212,5.2209,5.2584,5.419,5.4641,5.4649,5.4822,5.4543,5.3867,5.2406,4.9146,4.7152,4.9132,4.8452,4.6867,4.4738,4.3525,4.2339,4.0898,3.9633,0.0,3.9664,3.9872,3.9788,3.9241,3.7551,3.6722,3.6934,2.9144,2.3905,2.3186,1.6029,1.1643,1.1322,0.4728,-0.1167,-0.5879,-0.9535,-1.2582,-1.5281,0.0,0.0,0.0,0.0,0.0,0.0,0.0,0.0,0.0,0.0,0.0,0.0,0.0,0.0,0.0,0.0,0.0,0.0,0.0,0.0,0.0,0.0,0.0,0.0,0.0,4.7709,4.4205,4.661,4.6811,4.2182,4.3152,4.3272,4.1869,4.3888,4.4819,4.4137,4.3206,4.2559,4.2072,4.1209,4.0245,3.9074,3.9392,3.9264,3.8502,3.8907,4.0181,4.1862,4.2018,4.4327,4.784,4.7005,4.9585,5.4609,5.5376,5.506,5.322,4.6339,4.2714,4.1285,4.0516,4.1176,4.3017,4.7034,4.9001,5.0024,5.1833,5.04,4.825,4.9204,4.7629,4.5695,4.685,4.722,4.7367,4.7876,4.8103,4.8487,4.9521,4.9787,4.9825,5.0368,4.8473,4.7123,4.8681,4.5368,4.1928,4.0584,4.3181,4.4666,4.2183,4.3699,4.507,4.5253,4.5519,4.4493,4.1598,4.0934,3.9781,3.7385,3.1998,2.7715,2.5057,1.9123,1.4574,1.1856,0.7274,0.2948,-0.1071,-0.8421,-1.3335,-1.5744,0.0,0.0,0.0,0.0,0.0,0.0,0.0,0.0,0.0,0.0,0.0,0.0,0.0,0.0,0.0,0.0,0.0,0.0,0.0,0.0,0.0,0.0,0.0,0.0,0.0,0.0,4.5583,4.719,0.0,4.2309,4.1936,4.1527,4.0053,4.1069,4.2027,4.263,4.0805,4.0256,4.1267,3.9289,3.7691,3.6696,3.665,3.6134,3.5376,3.5604,3.6836,3.8701,3.8135,4.0325,4.4673,4.3503,4.6382,5.1415,5.0555,4.7454,4.2762,3.7907,3.4181,3.1591,3.3264,3.4763,3.6744,4.1999,4.4978,4.6595,4.7703,4.524,4.2025,4.2383,4.0393,3.8655,4.1155,4.176,4.1762,4.2637,4.3585,4.4558,4.5246,4.5758,4.6425,4.7788,4.5833,4.4309,4.5803,4.1982,3.8376,3.8278,4.0473,4.2131,4.1596,4.3611,4.5462,4.6165,4.6929,4.6046,4.2475,4.1956,4.0464,3.6687,3.3178,2.928,2.4816,2.0164,1.6188,1.2757,0.8636,0.4071,-0.1262,-0.8445,-1.3396,0.0,0.0,0.0,0.0,0.0,0.0,0.0,0.0,0.0,0.0,0.0,0.0,0.0,0.0,0.0,0.0,0.0,0.0,0.0,0.0,0.0,0.0,0.0,0.0,0.0,0.0,0.0,4.9954,4.9409,0.0,0.0,0.0,0.0,3.8364,3.7,3.7107,3.9298,3.7631,3.7479,3.957,3.8316,3.7666,3.7323,3.7502,3.7646,3.7646,3.8298,3.8952,3.9514,3.7854,3.914,4.2413,4.1811,4.4528,4.8743,4.5076,3.8867,3.1345,2.9247,2.3334,1.6676,2.2855,2.6751,3.0074,3.8086,4.2726,4.5138,4.5486,4.2349,3.7927,3.5005,3.2371,0.0,0.0,3.6061,3.6231,3.8698,4.1305,4.3033,4.2277,4.2903,4.3889,4.4697,4.1531,3.8872,0.0,3.7763,3.5603,3.6508,0.0,3.4056,3.8091,3.8789,3.9777,4.2291,4.4407,4.4596,4.1833,4.0788,3.8892,3.5458,3.2332,2.8169,2.2582,1.9012,1.5956,1.3682,0.8155,0.1588,-0.6036,-1.0085,0.0,0.0,0.0,0.0,0.0,0.0,0.0,0.0,0.0,0.0,0.0,0.0,0.0,0.0,0.0,0.0,0.0,0.0,0.0,0.0,0.0,0.0,0.0,0.0,0.0,0.0,4.6274,4.7028,4.4863,4.5332,4.3148,0.0,0.0,0.0,0.0,0.0,0.0,3.7151,3.5032,3.4151,3.5217,3.3688,3.3336,3.4502,3.5681,3.6422,3.6783,3.6394,3.6485,3.7392,3.6303,3.7824,4.1617,4.1832,4.3991,4.6408,3.4834,2.9995,2.9026,2.1438,1.856,1.9138,2.177,2.3067,2.4401,3.1315,3.5066,3.7261,4.0565,4.129,3.9843,3.4054,0.0,0.0,0.0,0.0,3.1999,3.637,3.8193,3.9363,4.104,4.2372,4.3487,4.4186,4.1254,3.706,0.0,2.9041,2.4853,1.7534,0.0,0.0,0.0,0.0,3.5229,3.9974,4.4956,4.6913,4.3748,4.2727,4.0969,3.817,3.2106,2.69,2.3192,1.7011,1.3046,1.1778,0.3803,-0.2186,-0.5746,0.0,0.0,0.0,0.0,0.0,0.0,0.0,0.0,0.0,0.0,0.0,0.0,0.0,0.0,0.0,0.0,0.0,0.0,0.0,0.0,0.0,0.0,0.0,0.0,0.0,0.0,0.0,4.3925,4.6204,4.6405,4.5307,4.2578,0.0,0.0,0.0,0.0,0.0,0.0,0.0,0.0,0.0,3.4117,3.2282,3.1685,3.2748,3.4021,3.4343,3.33,3.3869,3.4415,3.4811,3.3961,3.5735,3.9222,3.9731,3.9915,3.9064,3.0321,2.5062,2.166,0.0,0.0,0.0,0.0,2.0129,2.2622,2.9147,3.353,3.6327,3.7186,0.0,0.0,0.0,0.0,0.0,0.0,0.0,0.0,0.0,0.0,3.7999,3.9031,3.9624,4.055,4.2656,3.4044,2.4256,0.0,1.5888,1.2653,0.6635,0.0,0.0,0.0,0.0,3.0159,3.6176,4.2957,4.5911,4.2566,4.1828,3.9914,3.5625,2.9831,2.4783,2.1004,1.4561,0.9903,0.746,-0.0837,-0.6928,0.0,0.0,0.0,0.0,0.0,0.0,0.0,0.0,0.0,0.0,0.0,0.0,0.0,0.0,0.0,0.0,0.0,0.0,0.0,0.0,0.0,0.0,0.0,0.0,0.0,0.0,0.0,0.0,0.0,4.4665,4.9595,0.0,0.0,0.0,0.0,0.0,0.0,0.0,0.0,0.0,0.0,0.0,0.0,0.0,3.1455,3.2188,3.2838,3.1982,2.9557,3.1361,3.2035,3.1591,3.0918,3.2471,3.5803,3.5239,0.0,3.0698,2.7601,0.0,0.0,0.0,0.0,0.0,0.0,0.0,0.0,0.0,0.0,0.0,0.0,0.0,0.0,0.0,0.0,0.0,0.0,0.0,0.0,0.0,0.0,3.5916,3.5026,3.4619,3.4851,0.0,2.2146,0.7489,0.3552,0.1673,0.0,0.0,0.0,0.0,0.0,0.0,0.0,3.1237,3.9467,4.3509,4.0586,3.9869,3.731,3.1658,2.7064,2.2644,1.8385,1.1753,0.6459,0.2649,-0.5309,0.0,0.0,0.0,0.0,0.0,0.0,0.0,0.0,0.0,0.0,0.0,0.0,0.0,0.0,0.0,0.0,0.0,0.0,0.0,0.0,0.0,0.0,0.0,0.0,0.0,0.0,0.0,0.0,0.0,0.0,0.0,0.0,0.0,0.0,0.0,0.0,0.0,0.0,0.0,0.0,0.0,0.0,0.0,0.0,0.0,0.0,0.0,0.0,0.0,0.0,2.9452,2.8016,2.7201,2.5534,2.7443,3.1511,2.4549,2.5551,3.1026,1.675,0.0,0.0,0.0,0.0,0.0,0.0,0.0,0.0,0.0,0.0,0.0,0.0,0.0,0.0,0.0,0.0,0.0,0.0,0.0,0.0,0.0,0.0,0.0,0.0,2.5431,2.3509,1.4512,0.0,0.0,0.0,0.0,0.0,0.0,0.0,0.0,0.0,0.0,0.0,2.5126,3.6091,4.3073,4.2359,4.0137,3.7727,3.5236,2.6642,2.1235,2.0783,0.937,0.2548,0.0,0.0,0.0,0.0,0.0,0.0,0.0,0.0,0.0,0.0,0.0,0.0,0.0,0.0,0.0,0.0,0.0,0.0,0.0,0.0,0.0,0.0,0.0,0.0,0.0,0.0,0.0,0.0,0.0,0.0,0.0,0.0,0.0,0.0,0.0,0.0,0.0,0.0,0.0,0.0,0.0,0.0,0.0,0.0,0.0,0.0,0.0,0.0,0.0,0.0,0.0,0.0,0.0,0.0,0.0,0.0,0.0,0.0,0.0,1.7806,0.0,0.0,0.0,0.0,0.0,0.0,0.0,0.0,0.0,0.0,0.0,0.0,0.0,0.0,0.0,0.0,0.0,0.0,0.0,0.0,0.0,0.0,0.0,0.0,0.0,0.0,0.0,0.0,0.0,0.0,0.0,0.0,0.0,0.0,0.0,0.0,0.0,0.0,0.0,0.0,2.2004,3.3826,4.1061,3.9806,3.7927,3.491,3.0068,2.3296,1.7407,1.3213,0.5149,0.0,0.0,0.0,0.0,0.0,0.0,0.0,0.0,0.0,0.0,0.0,0.0,0.0,0.0,0.0,0.0,0.0,0.0,0.0,0.0,0.0,0.0,0.0,0.0,0.0,0.0,0.0,0.0,0.0,0.0,0.0,0.0,0.0,0.0,0.0,0.0,0.0,0.0,0.0,0.0,0.0,0.0,0.0,0.0,0.0,0.0,0.0,0.0,0.0,0.0,0.0,0.0,0.0,0.0,0.0,0.0,0.0,0.0,0.0,2.2761,0.0,0.0,0.0,0.0,0.0,0.0,0.0,0.0,0.0,0.0,0.0,0.0,0.0,0.0,0.0,0.0,0.0,0.0,0.0,0.0,0.0,0.0,0.0,0.0,0.0,0.0,0.0,0.0,0.0,0.0,0.0,0.0,0.0,0.0,0.0,0.0,0.0,0.0,0.0,0.0,0.0,1.904,3.1635,3.9034,3.699,3.565,3.1949,2.4526,2.0322,1.4479,0.6222,0.168,0.0,0.0,0.0,0.0,0.0,0.0,0.0,0.0,0.0,0.0,0.0,0.0,0.0,0.0,0.0,0.0,0.0,0.0,0.0,0.0,0.0,0.0,0.0,0.0,0.0,0.0,0.0,0.0,0.0,0.0,0.0,0.0,0.0,0.0,0.0,0.0,0.0,0.0,0.0,0.0,0.0,0.0,0.0,0.0,0.0,0.0,0.0,0.0,0.0,0.0,0.0,0.0,0.0,0.0,0.0,0.0,0.0,0.0,0.0,0.0,0.0,0.0,0.0,0.0,0.0,0.0,0.0,0.0,0.0,0.0,0.0,0.0,0.0,0.0,0.0,0.0,0.0,0.0,0.0,0.0,0.0,0.0,0.0,0.0,0.0,0.0,0.0,0.0,0.0,0.0,0.0,0.0,0.0,0.0,0.0,0.0,0.0,0.0,0.0,0.0,0.0,1.447,2.8868,3.8137,3.6814,3.5294,3.163,2.4954,2.048,1.4974,0.8178,0.0,0.0,0.0,0.0,0.0,0.0,0.0,0.0,0.0,0.0,0.0,0.0,0.0,0.0,0.0,0.0,0.0,0.0,0.0,0.0,0.0,0.0,0.0,0.0,0.0,0.0,0.0,0.0,0.0,0.0,0.0,0.0,0.0,0.0,0.0,0.0,0.0,0.0,0.0,0.0,0.0,0.0,0.0,0.0,0.0,0.0,0.0,0.0,0.0,0.0,0.0,0.0,0.0,0.0,0.0,0.0,0.0,0.0,0.0,0.0,0.0,0.0,0.0,0.0,0.0,0.0,0.0,0.0,0.0,0.0,0.0,0.0,0.0,0.0,0.0,0.0,0.0,0.0,0.0,0.0,0.0,0.0,0.0,0.0,0.0,0.0,0.0,0.0,0.0,0.0,0.0,0.0,0.0,0.0,0.0,0.0,0.0,0.0,0.0,0.0,0.0,0.0,1.1034,2.5895,3.5596,3.4823,3.2216,2.7661,2.0874,1.5186,0.8634,0.0928,0.0,0.0,0.0,0.0,0.0,0.0,0.0,0.0,0.0,0.0,0.0,0.0,0.0,0.0,0.0,0.0,0.0,0.0,0.0,0.0,0.0,0.0,0.0,0.0,0.0,0.0,0.0,0.0,0.0,0.0,0.0,0.0,0.0,0.0,0.0,0.0,0.0,0.0,0.0,0.0,0.0,0.0,0.0,0.0,0.0,0.0,0.0,0.0,0.0,0.0,0.0,0.0,0.0,0.0,0.0,0.0,0.0,0.0,0.0,0.0,0.0,0.0,0.0,0.0,0.0,0.0,0.0,0.0,0.0,0.0,0.0,0.0,0.0,0.0,0.0,0.0,0.0,0.0,0.0,0.0,0.0,0.0,0.0,0.0,0.0,0.0,0.0,0.0,0.0,0.0,0.0,0.0,0.0,0.0,0.0,0.0,0.0,0.0,0.0,0.0,0.0,0.0,0.7775,2.2635,3.2128,3.0591,2.8494,2.4301,1.7188,1.1925,0.5275,-0.3579,0.0,0.0,0.0,0.0,0.0,0.0,0.0,0.0,0.0,0.0,0.0,0.0,0.0,0.0,0.0,0.0,0.0,0.0,0.0,0.0,0.0,0.0,0.0,0.0,0.0,0.0,0.0,0.0,0.0,0.0,0.0,0.0,0.0,0.0,0.0,0.0,0.0,0.0,0.0,0.0,0.0,0.0,0.0,0.0,0.0,0.0,0.0,0.0,0.0,0.0,0.0,0.0,0.0,0.0,0.0,0.0,0.0,0.0,0.0,0.0,0.0,0.0,0.0,0.0,0.0,0.0,0.0,0.0,0.0,0.0,0.0,0.0,0.0,0.0,0.0,0.0,0.0,0.0,0.0,0.0,0.0,0.0,0.0,0.0,0.0,0.0,0.0,0.0,0.0,0.0,0.0,0.0,0.0,0.0,0.0,0.0,0.0,0.0,0.0,0.0,0.0,0.0,0.4517,1.9013,2.7633,2.3781,2.4425,2.218,1.5046,1.2453,0.7186,0.0,0.0,0.0,0.0,0.0,0.0,0.0,0.0,0.0,0.0,0.0,0.0,0.0,0.0,0.0,0.0,0.0,0.0,0.0,0.0,0.0,0.0,0.0,0.0,0.0,0.0,0.0,0.0,0.0,0.0,0.0,0.0,0.0,0.0,0.0,0.0,0.0,0.0,0.0,0.0,0.0,0.0,0.0,0.0,0.0,0.0,0.0,0.0,0.0,0.0,0.0,0.0,0.0,0.0,0.0,0.0,0.0,0.0,0.0,0.0,0.0,0.0,0.0,0.0,0.0,0.0,0.0,0.0,0.0,0.0,0.0,0.0,0.0,0.0,0.0,0.0,0.0,0.0,0.0,0.0,0.0,0.0,0.0,0.0,0.0,0.0,0.0,0.0,0.0,0.0,0.0,0.0,0.0,0.0,0.0,0.0,0.0,0.0,0.0,0.0,0.0,0.0,0.0,0.1625,1.2217,1.9944,0.0,1.9816,1.6455,1.2345,0.8488,0.3002,-0.4722,0.0,0.0,0.0,0.0,0.0,0.0,0.0,0.0,0.0,0.0,0.0,0.0,0.0,0.0,0.0,0.0,0.0,0.0,0.0,0.0,0.0,0.0,0.0,0.0,0.0,0.0,0.0,0.0,0.0,0.0,0.0,0.0,0.0,0.0,0.0,0.0,0.0,0.0,0.0,0.0,0.0,0.0,0.0,0.0,0.0,0.0,0.0,0.0,0.0,0.0,0.0,0.0,0.0,0.0,0.0,0.0,0.0,0.0,0.0,0.0,0.0,0.0,0.0,0.0,0.0,0.0,0.0,0.0,0.0,0.0,0.0,0.0,0.0,0.0,0.0,0.0,0.0,0.0,0.0,0.0,0.0,0.0,0.0,0.0,0.0,0.0,0.0,0.0,0.0,0.0,0.0,0.0,0.0,0.0,0.0,0.0,0.0,0.0,0.0,0.0,0.0,0.0,0.0,0.7047,1.4074,0.0,1.425,1.2046,0.8437,0.4749,-0.0138,-0.6307,0.0,0.0,0.0,0.0,0.0,0.0,0.0,0.0,0.0,0.0,0.0,0.0,0.0,0.0,0.0,0.0,0.0,0.0,0.0,0.0,0.0,0.0,0.0,0.0,0.0,0.0,0.0,0.0,0.0,0.0,0.0,0.0,0.0,0.0,0.0,0.0,0.0,0.0,0.0,0.0,0.0,0.0,0.0,0.0,0.0,0.0,0.0,0.0,0.0,0.0,0.0,0.0,0.0,0.0,0.0,0.0,0.0,0.0,0.0,0.0,0.0,0.0,0.0,0.0,0.0,0.0,0.0,0.0,0.0,0.0,0.0,0.0,0.0,0.0,0.0,0.0,0.0,0.0,0.0,0.0,0.0,0.0,0.0,0.0,0.0,0.0,0.0,0.0,0.0,0.0,0.0,0.0,0.0,0.0,0.0,0.0,0.0,0.0,0.0,0.0,0.0,0.0,0.0,0.3177,0.9369,0.544,0.8186,0.8499,0.3925,0.1315,-0.2255,-0.7227,-0.8513,0.0,0.0,0.0,0.0,0.0,0.0,0.0,0.0,0.0,0.0,0.0,0.0,0.0,0.0,0.0,0.0,0.0,0.0,0.0,0.0,0.0,0.0,0.0,0.0,0.0,0.0,0.0,0.0,0.0,0.0,0.0,0.0,0.0,0.0,0.0,0.0,0.0,0.0,0.0,0.0,0.0,0.0,0.0,0.0,0.0,0.0,0.0,0.0,0.0,0.0,0.0,0.0,0.0,0.0,0.0,0.0,0.0,0.0,0.0,0.0,0.0,0.0,0.0,0.0,0.0,0.0,0.0,0.0,0.0,0.0,0.0,0.0,0.0,0.0,0.0,0.0,0.0,0.0,0.0,0.0,0.0,0.0,0.0,0.0,0.0,0.0,0.0,0.0,0.0,0.0,0.0,0.0,0.0,0.0,0.0,0.0,0.0,0.0,0.0,0.0,0.0,0.0,-0.3039,0.1962,0.4357,0.4939,0.438,0.2835,-0.142,-0.5616,-0.9388,-1.0962,0.0,0.0,0.0,0.0,0.0,0.0,0.0,0.0,0.0,0.0,0.0,0.0,0.0,0.0,0.0,0.0,0.0,0.0,0.0,0.0,0.0,0.0,0.0,0.0,0.0,0.0,0.0,0.0,0.0,0.0,0.0,0.0,0.0,0.0,0.0,0.0,0.0,0.0,0.0,0.0,0.0,0.0,0.0,0.0,0.0,0.0,0.0,0.0,0.0,0.0,0.0,0.0,0.0,0.0,0.0,0.0,0.0,0.0,0.0,0.0,0.0,0.0,0.0,0.0,0.0,0.0,0.0,0.0,0.0,0.0,0.0,0.0,0.0,0.0,0.0,0.0,0.0,0.0,0.0,0.0,0.0,0.0,0.0,0.0,0.0,0.0,0.0,0.0,0.0,0.0,0.0,0.0,0.0,0.0,0.0,0.0,0.0,0.0,0.0,0.0,0.0,0.0,-0.9475,-0.5414,-0.0286,0.0559,0.0138,-0.1266,-0.4746,-0.8217,-1.1322,-1.2524,0.0,0.0,0.0,0.0,0.0,0.0,0.0,0.0,0.0,0.0,0.0,0.0,0.0,0.0,0.0,0.0,0.0,0.0,0.0,0.0,0.0,0.0,0.0,0.0,0.0,0.0,0.0,0.0,0.0,0.0,0.0,0.0,0.0,0.0,0.0,0.0,0.0,0.0,0.0,0.0,0.0,0.0,0.0,0.0,0.0,0.0,0.0,0.0,0.0,0.0,0.0,0.0,0.0,0.0,0.0,0.0,0.0,0.0,0.0,0.0,0.0,0.0,0.0,0.0,0.0,0.0,0.0,0.0,0.0,0.0,0.0,0.0,0.0,0.0,0.0,0.0,0.0,0.0,0.0,0.0,0.0,0.0,0.0,0.0,0.0,0.0,0.0,0.0,0.0,0.0,0.0,0.0,0.0,0.0,0.0,0.0,0.0,0.0,0.0,0.0,0.0,0.0,0.0,-1.1562,-0.6209,-0.4428,-0.4523,-0.685,-0.841,-1.0298,-1.2943,0.0,0.0,0.0,0.0,0.0,0.0,0.0,0.0,0.0,0.0,0.0,0.0,0.0,0.0,0.0,0.0,0.0,0.0,0.0,0.0,0.0,0.0,0.0,0.0,0.0,0.0,0.0,0.0,0.0,0.0,0.0,0.0,0.0,0.0,0.0,0.0,0.0,0.0,0.0,0.0,0.0,0.0,0.0,0.0,0.0,0.0,0.0,0.0,0.0,0.0,0.0,0.0,0.0,0.0,0.0,0.0,0.0,0.0,0.0,0.0,0.0,0.0,0.0,0.0,0.0,0.0,0.0,0.0,0.0,0.0,0.0,0.0,0.0,0.0,0.0,0.0,0.0,0.0,0.0,0.0,0.0,0.0,0.0,0.0,0.0,0.0,0.0,0.0,0.0,0.0,0.0,0.0,0.0,0.0,0.0,0.0,0.0,0.0,0.0,0.0,0.0,0.0,0.0,0.0,0.0,-1.0013,-0.8867,-0.9508,-1.2363,-1.2384,-1.2621,-1.3282,0.0,0.0,0.0,0.0,0.0,0.0,0.0,0.0,0.0,0.0,0.0,0.0,0.0,0.0]}]]]